[[{"header":{"parameterUnit":"m.s-1","parameterCategory":1,"la1":31.0,"la2":29.5877,"lo1":-88.7671,"lo2":-86.6584,"dy":0.0162,"dx":0.0185,"nx":115,"ny":88,"refTime":"2024-07-30T00:00:00:Z","depth":0,"parameterNumber":2,"parameterNumberName":"U-component_of_WINDS"},"data":[0.0,0.0,0.0,0.0,0.0,0.0,0.0,0.0,0.0,0.0,0.0,0.0,0.0,0.0,0.0,0.0,0.0,0.0,0.0,0.0,0.0,0.0,0.0,0.0,0.0,0.0,0.0,0.0,0.0,0.0,0.0,0.0,0.0,0.0,0.0,0.0,0.0,0.0,0.0,0.0,0.0,0.0,0.0,0.0,0.0,0.0,0.0,0.0,0.0,0.0,0.0,0.0,0.0,0.0,0.0,0.0,0.0,0.0,0.0,0.0,0.0,0.0,0.0,0.0,0.0,0.0,0.0,0.0,0.0,0.0,0.0,0.0,0.0,0.0,0.0,0.0,0.0,0.0,0.0,0.0,0.0,0.0,0.0,0.0,0.0,0.0,0.0,0.0,0.0,0.0,0.0,0.0,0.0,0.0,0.0,0.0,0.0,0.0,0.0,0.0,0.0,0.0,0.0,0.0,0.0,0.0,0.0,0.0,0.0,0.0,0.0,0.0,0.0,0.0,0.0,0.0,0.0,0.0,0.0,0.0,0.0,0.0,0.0,0.0,0.0,0.0,0.0,0.0,0.0,0.0,0.0,0.0,0.0,0.0,0.0,0.0,0.0,0.0,0.0,0.0,0.0,0.0,0.0,0.0,0.0,0.0,0.0,0.0,0.0,0.0,0.0,0.0,0.0,0.0,0.0,0.0,0.0,0.0,0.0,0.0,0.0,0.0,0.0,0.0,0.0,0.0,0.0,0.0,0.0,0.0,0.0,0.0,0.0,0.0,0.0,0.0,0.0,0.0,0.0,0.0,0.0,0.0,0.0,0.0,0.0,0.0,0.0,0.0,0.0,0.0,0.0,0.0,0.0,0.0,0.0,0.0,0.0,0.0,0.0,0.0,0.0,0.0,0.0,0.0,0.0,0.0,0.0,0.0,0.0,0.0,0.0,0.0,0.0,0.0,0.0,0.0,0.0,0.0,0.0,0.0,0.0,0.0,0.0,0.0,0.0,0.0,0.0,0.0,0.0,0.0,0.0,0.0,0.0,0.0,0.0,0.0,0.0,0.0,0.0,0.0,0.0,0.0,0.0,0.0,0.0,0.0,0.0,0.0,0.0,0.0,0.0,0.0,0.0,0.0,0.0,0.0,0.0,0.0,0.0,0.0,0.0,0.0,0.0,0.0,0.0,0.0,0.0,0.0,0.0,0.0,0.0,0.0,0.0,0.0,0.0,0.0,0.0,0.0,0.0,0.0,0.0,0.0,0.0,0.0,0.0,0.0,0.0,0.0,0.0,0.0,0.0,0.0,0.0,0.0,0.0,0.0,0.0,0.0,0.0,0.0,0.0,0.0,0.0,0.0,0.0,0.0,0.0,0.0,0.0,0.0,0.0,0.0,0.0,0.0,0.0,0.0,0.0,0.0,0.0,0.0,0.0,0.0,0.0,0.0,0.0,0.0,0.0,0.0,0.0,0.0,0.0,0.0,0.0,0.0,0.0,0.0,0.0,0.0,0.0,0.0,0.0,0.0,0.0,0.0,0.0,0.0,0.0,0.0,0.0,0.0,0.0,0.0,0.0,0.0,0.0,0.0,0.0,0.0,0.0,0.0,0.0,0.0,0.0,0.0,0.0,0.0,0.0,0.0,0.0,0.0,0.0,0.0,0.0,0.0,0.0,0.0,0.0,0.0,0.0,0.0,0.0,0.0,0.0,0.0,0.0,0.0,0.0,0.0,0.0,0.0,0.0,0.0,0.0,0.0,0.0,0.0,0.0,0.0,0.0,0.0,0.0,0.0,0.0,0.0,0.0,0.0,0.0,0.0,0.0,0.0,0.0,0.0,0.0,0.0,0.0,0.0,0.0,0.0,0.0,0.0,0.0,0.0,0.0,0.0,0.0,0.0,0.0,0.0,0.0,0.0,0.0,0.0,0.0,0.0,0.0,0.0,0.0,0.0,0.0,0.0,0.0,0.0,0.0,0.0,0.0,0.0,0.0,0.0,0.0,0.0,0.0,0.0,0.0,0.0,0.0,0.0,0.0,0.0,0.0,0.0,0.0,0.0,0.0,0.0,0.0,0.0,0.0,0.0,0.0,0.0,0.0,0.0,0.0,0.0,0.0,0.0,0.0,0.0,0.0,0.0,0.0,0.0,0.0,0.0,0.0,0.0,0.0,0.0,0.0,0.0,0.0,0.0,0.0,0.0,0.0,0.0,0.0,0.0,0.0,0.0,0.0,0.0,0.0,0.0,0.0,0.0,0.0,0.0,0.0,0.0,0.0,0.0,0.0,0.0,0.0,0.0,0.0,0.0,0.0,0.0,0.0,0.0,0.0,0.0,0.0,0.0,0.0,0.0,0.0,0.0,0.0,0.0,0.0,0.0,0.0,0.0,0.0,0.0,0.0,0.0,0.0,0.0,0.0,0.0,0.0,0.0,0.0,0.0,0.0,0.0,0.0,0.0,0.0,0.0,0.0,0.0,0.0,0.0,0.0,0.0,0.0,0.0,0.0,0.0,0.0,0.0,0.0,0.0,0.0,0.0,0.0,0.0,0.0,0.0,0.0,0.0,0.0,0.0,0.0,0.0,0.0,0.0,0.0,0.0,0.0,0.0,0.0,0.0,0.0,0.0,0.0,0.0,0.0,0.0,0.0,0.0,0.0,0.0,0.0,0.0,0.0,0.0,0.0,0.0,0.0,0.0,0.0,0.0,0.0,0.0,0.0,0.0,0.0,0.0,0.0,0.0,0.0,0.0,0.0,0.0,0.0,0.0,0.0,0.0,0.0,0.0,0.0,0.0,0.0,0.0,0.0,0.0,0.0,0.0,0.0,0.0,0.0,0.0,0.0,0.0,0.0,0.0,0.0,0.0,0.0,0.0,0.0,0.0,0.0,0.0,0.0,0.0,0.0,0.0,0.0,0.0,0.0,0.0,0.0,0.0,0.0,0.0,0.0,0.0,0.0,0.0,0.0,0.0,0.0,0.0,0.0,0.0,0.0,0.0,0.0,0.0,0.0,0.0,0.0,0.0,0.0,0.0,0.0,0.0,0.0,0.0,0.0,0.0,0.0,0.0,0.0,0.0,0.0,0.0,0.0,0.0,0.0,0.0,0.0,0.0,0.0,0.0,0.0,0.0,0.0,0.0,0.0,0.0,0.0,0.0,0.0,0.0,0.0,0.0,0.0,0.0,0.0,0.0,0.0,0.0,0.0,0.0,0.0,0.0,0.0,0.0,0.0,0.0,0.0,0.0,0.0,0.0,0.0,0.0,0.0,0.0,0.0,0.0,0.0,0.0,0.0,0.0,0.0,0.0,0.0,0.0,0.0,0.0,0.0,0.0,0.0,0.0,0.0,0.0,0.0,0.0,0.0,0.0,0.0,0.0,0.0,0.0,0.0,0.0,0.0,0.0,0.0,0.0,0.0,0.0,0.0,0.0,0.0,0.0,0.0,0.0,0.0,0.0,0.0,0.0,0.0,0.0,0.0,0.0,0.0,0.0,0.0,0.0,0.0,0.0,0.0,0.0,0.0,0.0,0.0,0.0,0.0,0.0,0.0,0.0,0.0,0.0,0.0,0.0,0.0,0.0,0.0,0.0,0.0,0.0,0.0,0.0,0.0,0.0,0.0,0.0,0.0,0.0,0.0,0.0,0.0,0.0,0.0,0.0,0.0,0.0,0.0,0.0,0.0,0.0,0.0,0.0,0.0,0.0,0.0,0.0,0.0,0.0,0.0,0.0,0.0,0.0,0.0,0.0,0.0,0.0,0.0,0.0,0.0,0.0,0.0,0.0,0.0,0.0,0.0,0.0,0.0,0.0,0.0,0.0,0.0,0.0,0.0,0.0,0.0,0.0,0.0,0.0,0.0,0.0,0.0,0.0,0.0,0.0,0.0,0.0,0.0,0.0,0.0,0.0,0.0,0.0,0.0,0.0,0.0,0.0,0.0,0.0,0.0,0.0,0.0,0.0,0.0,0.0,0.0,0.0,0.0,0.0,0.0,0.0,0.0,0.0,0.0,0.0,0.0,0.0,0.0,0.0,0.0,0.0,0.0,0.0,0.0,0.0,0.0,0.0,0.0,0.0,0.0,0.0,0.0,0.0,0.0,0.0,0.0,0.0,0.0,0.0,0.0,0.0,0.0,0.0,0.0,0.0,0.0,0.0,0.0,0.0,0.0,0.0,0.0,0.0,0.0,0.0,0.0,0.0,0.0,0.0,0.0,0.0,0.0,0.0,0.0,0.0,0.0,0.0,0.0,0.0,0.0,0.0,0.0,0.0,0.0,0.0,0.0,0.0,0.278,0.0,0.0,0.0,0.0,0.0,0.0,0.0,0.0,0.0,0.0,0.0,0.0,0.0,0.0,0.0,0.0,0.0,0.0,0.0,0.0,0.0,0.0,0.0,0.0,0.0,0.0,0.0,0.0,0.0,0.0,0.0,0.0,0.0,0.0,0.0,0.0,0.0,0.0,0.0,0.0,0.0,0.0,0.0,0.0,0.0,0.0,0.0,0.0,0.0,0.0,0.0,0.0,0.0,0.0,0.0,0.0,0.0,0.0,0.0,0.0,0.0,0.0,0.0,0.0,0.0,0.0,0.0,0.0,0.0,0.0,0.0,0.0,0.0,0.0,0.0,0.0,0.0,0.0,0.0,0.0,0.0,0.0,0.0,0.0,0.0,0.0,0.0,0.0,0.0,0.0,0.0,0.0,0.0,0.0,0.0,0.0,0.0,0.0,0.0,0.0,0.0,0.0,0.0,0.0,0.0,0.0,0.0,0.0,0.0,0.0,0.3997,0.3827,0.3521,0.3239,0.2986,0.0,0.0,0.0,0.0,0.0,0.0,0.0,0.0,0.0,0.0,0.0,0.0,0.0,0.0,0.0,0.0,0.0,0.0,0.0,0.0,0.0,0.0,0.0,0.0,0.0,0.0,0.0,0.0,0.0,0.0,0.0,0.0,0.0,0.0,0.0,0.0,0.0,0.0,0.0,0.0,0.0,0.0,0.0,0.0,0.0,0.0,0.0,0.0,0.0,0.0,0.0,0.0,0.0,0.0,0.0,0.0,0.0,0.0,0.0,0.0,0.0,0.0,0.0,0.0,0.0,0.0,0.0,0.0,0.0,0.0,0.0,0.0,0.0,0.0,0.0,0.0,0.0,0.0,0.0,0.0,0.0,0.0,0.0,0.0,0.0,0.0,0.0,0.0,0.0,0.0,0.0,0.0,0.0,0.0,0.0,0.0,0.0,0.0,0.0,0.0,0.0,0.0,0.0,0.0,0.0,0.0,0.0,0.0,0.0,0.0,0.0,0.0,0.3862,0.3618,0.3466,0.0,0.0,0.0,0.0,0.0,0.0,0.0,0.0,0.0,0.0,0.0,0.0,0.0,0.0,0.0,0.0,0.0,0.0,0.0,0.0,0.0,0.0,0.0,0.0,0.0,0.0,0.0,0.0,0.0,0.0,0.0,0.0,0.0,0.0,0.0,0.0,0.0,0.0,0.0,0.0,0.0,0.0,0.0,0.0,0.0,0.0,0.0,0.0,0.0,0.0,0.0,0.0,0.0,0.0,0.0,0.0,0.0,0.0,0.0,0.0,0.0,0.0,0.0,0.0,0.0,0.0,0.0,0.0,0.0,0.0,0.0,0.0,0.0,0.0,0.0,0.0,0.0,0.0,0.0,0.0,0.0,0.0,0.0,0.0,0.0,0.0,0.0,0.0,0.0,0.0,0.0,0.0,0.0,0.0,0.0,0.0,0.0,0.0,0.0,0.0,0.0,0.0,0.0,0.0,0.0,0.0,0.0,0.0,0.0,0.0,0.4035,0.503,0.4536,0.0,0.4188,0.0,0.0,0.0,0.0,0.0,0.0,0.0,0.0,0.0,0.0,0.0,0.0,0.0,0.0,0.0,0.0,0.0,0.0,0.0,0.0,0.0,0.0,0.0,0.0,0.0,0.0,0.0,0.0,0.0,0.0,0.0,0.0,0.0,0.0,0.0,0.0,0.0,0.0,0.0,0.0,0.0,0.0,0.0,0.0,0.0,0.0,0.0,0.0,0.0,0.0,0.0,0.0,0.0,0.0,0.0,0.0,0.0,0.0,0.0,0.0,0.0,0.0,0.0,0.0,0.0,0.0,0.0,0.0,0.0,0.0,0.0,0.0,0.0,0.0,0.0,0.0,0.0,0.0,0.0,0.0,0.0,0.0,0.0,0.0,0.0,0.0,0.0,0.0,0.0,0.0,0.0,0.0,0.0,0.0,0.0,0.0,0.0,0.0,0.0,0.0,0.0,0.0,0.0,0.0,0.0,0.0,0.0,0.0,0.0,0.0,0.4593,0.5143,0.4791,0.4587,0.0,0.0,0.0,0.0,0.0,0.0,0.0,0.0,0.0,0.0,0.0,0.0,0.0,0.0,0.0,0.0,0.0,0.0,0.0,0.0,0.0,0.0,0.0,0.0,0.0,0.0,0.0,0.0,0.0,0.0,0.0,0.0,0.0,0.0,0.0,0.0,0.0,0.0,0.0,0.0,0.0,0.0,0.0,0.0,0.0,0.0,0.0,0.0,0.0,0.0,0.0,0.0,0.0,0.0,0.0,0.0,0.0,0.0,0.0,0.0,0.0,0.0,0.0,0.0,0.0,0.0,0.0,0.0,0.0,0.0,0.0,0.0,0.0,0.0,0.0,0.0,0.0,0.0,0.0,0.0,0.0,0.0,0.0,0.0,0.0,0.0,0.0,0.0,0.0,0.0,0.0,0.0,0.0,0.0,0.0,0.0,0.0,0.0,0.0,0.0,0.0,0.0,0.0,0.0,0.0,0.0,0.0,0.0,0.0,0.0,0.463,0.4947,0.528,0.5035,0.4817,0.4597,0.0,0.0,0.0,0.0,0.0,0.0,0.0,0.0,0.0,0.0,0.0,0.0,0.0,0.0,0.0,0.0,0.0,0.0,0.0,0.0,0.0,0.0,0.0,0.0,0.0,0.0,0.0,0.0,0.0,0.0,0.0,0.0,0.0,0.0,0.0,0.0,0.0,0.0,0.0,0.0,0.0,0.0,0.0,0.0,0.0,0.0,0.0,0.0,0.0,0.0,0.0,0.0,0.0,0.0,0.0,0.0,0.0,0.0,0.0,0.0,0.0,0.0,0.0,0.0,0.0,0.0,0.0,0.0,0.0,0.0,0.0,0.0,0.0,0.0,0.0,0.0,0.0,0.0,0.0,0.0,0.0,0.0,0.0,0.0,0.0,0.0,0.0,0.0,0.0,0.0,0.0,0.0,0.0,0.0,0.0,0.0,0.0,0.0,0.0,0.0,0.0,0.0,0.0,0.0,0.0,0.0,0.0,0.0,0.0,0.4852,0.4973,0.5847,0.5369,0.4883,0.0,0.0,0.0,0.0,0.0,0.0,0.0,0.0,0.0,0.0,0.0,0.0,0.0,0.0,0.0,0.0,0.0,0.0,0.0,0.0,0.0,0.0,0.0,0.0,0.0,0.0,0.0,0.0,0.0,0.0,0.0,0.0,0.0,0.0,0.0,0.0,0.0,0.0,0.0,0.0,0.0,0.0,0.0,0.0,0.0,0.0,0.0,0.0,0.0,0.0,0.0,0.0,0.0,0.0,0.0,0.0,0.0,0.0,0.0,0.0,0.0,0.0,0.0,0.0,0.0,0.0,0.0,0.0,0.0,0.0,0.0,0.0,0.0,0.0,0.0,0.0,0.0,0.0,0.0,0.0,0.0,0.0,0.0,0.0,0.0,0.0,0.0,0.0,0.0,0.0,0.0,0.0,0.0,0.0,0.0,0.0,0.0,0.0,0.0,0.0,0.0,0.0,0.0,0.0,0.0,0.0,0.0,0.0,0.0,0.4302,0.478,0.5568,0.6619,0.5772,0.5253,0.0,0.0,0.0,0.0,0.0,0.0,0.0,0.0,0.0,0.0,0.0,0.0,0.0,0.0,0.0,0.0,0.0,0.0,0.0,0.0,0.0,0.0,0.0,0.0,0.0,0.0,0.0,0.0,0.0,0.0,0.0,0.0,0.0,0.0,0.0,0.0,0.0,0.0,0.0,0.0,0.0,0.0,0.0,0.0,0.0,0.0,0.0,0.0,0.0,0.0,0.0,0.0,0.0,0.0,0.0,0.0,0.0,0.0,0.0,0.0,0.0,0.0,0.0,0.0,0.0,0.0,0.0,0.0,0.0,0.0,0.0,0.0,0.0,0.0,0.0,0.0,0.0,0.0,0.0,0.0,0.0,0.0,0.0,0.0,0.0,0.0,0.0,0.0,0.0,0.0,0.0,0.0,0.0,0.0,0.0,0.0,0.0,0.0,0.0,0.0,0.0,0.0,0.0,0.0,0.0,0.0,0.0,0.0,0.0,0.4373,0.0,0.6038,0.0,0.5899,0.5305,0.0,0.0,0.0,0.0,0.0,0.0,0.0,0.0,0.0,0.0,0.0,0.0,0.0,0.0,0.0,0.0,0.0,0.0,0.0,0.0,0.0,0.0,0.0,0.0,0.0,0.0,0.0,0.0,0.0,0.0,0.0,0.0,0.0,0.0,0.0,0.0,0.0,0.0,0.0,0.0,0.0,0.0,0.0,0.0,0.0,0.0,0.0,0.0,0.0,0.0,0.0,0.0,0.0,0.0,0.0,0.0,0.0,0.0,0.0,0.0,0.0,0.0,0.0,0.0,0.0,0.0,0.0,0.0,0.0,0.0,0.0,0.0,0.0,0.0,0.0,0.0,0.0,0.0,0.0,0.0,0.0,0.0,0.0,0.0,0.0,0.0,0.0,0.0,0.0,0.0,0.0,0.0,0.0,0.0,0.0,0.0,0.0,0.0,0.0,0.0,0.0,0.0,0.0,0.0,0.0,0.0,0.0,0.0,0.421,0.5893,0.6145,0.6297,0.6307,0.5787,0.504,0.0,0.0,0.0,0.0,0.0,0.0,0.0,0.0,0.0,0.0,0.0,0.0,0.0,0.0,0.0,0.0,0.0,0.0,0.0,0.0,0.0,0.0,0.0,0.0,0.0,0.0,0.0,0.0,0.0,0.0,0.0,0.0,0.0,0.0,0.0,0.0,0.0,0.0,0.0,0.0,0.0,0.0,0.0,0.0,0.0,0.0,0.0,0.0,0.0,0.0,0.0,0.0,0.0,0.0,0.0,0.0,0.0,0.0,0.0,0.0,0.0,0.0,0.0,0.0,0.0,0.0,0.0,0.0,0.0,0.0,0.0,0.0,0.0,0.0,0.0,0.0,0.0,0.0,0.0,0.0,0.0,0.0,0.0,0.0,0.0,0.0,0.0,0.0,0.0,0.0,0.0,0.0,0.0,0.0,0.0,0.0,0.0,0.0,0.0,0.0,0.0,0.0,0.0,0.0,0.0,0.0,0.0,0.0,0.0,0.5506,0.6024,0.6499,0.684,0.5899,0.5436,0.0,0.0,0.0,0.0,0.0,0.0,0.0,0.0,0.0,0.0,0.0,0.0,0.0,0.0,0.0,0.0,0.0,0.0,0.0,0.0,0.0,0.0,0.0,0.0,0.0,0.0,0.0,0.0,0.0,0.0,0.0,0.0,0.0,0.0,0.0,0.0,0.0,0.0,0.0,0.0,0.0,0.0,0.0,0.0,0.0,0.0,0.0,0.0,0.0,0.0,0.0,0.0,0.0,0.0,0.0,0.0,0.0,0.0,0.0,0.0,0.0,0.0,0.0,0.0,0.0,0.0,0.0,0.0,0.0,0.0,0.0,0.0,0.0,0.0,0.0,0.0,0.0,0.0,0.0,0.0,0.0,0.0,0.0,0.0,0.0,0.0,0.0,0.0,0.0,0.0,0.0,0.0,0.0,0.0,0.0,0.0,0.0,0.0,0.0,0.0,0.0,0.0,0.0,0.0,0.0,0.0,0.0,0.0,0.0,0.6502,0.7047,0.7378,0.7462,0.639,0.5909,0.6128,0.0,0.0,0.0,0.0,0.0,0.0,0.0,0.0,0.0,0.0,0.0,0.0,0.0,0.0,0.0,0.0,0.0,0.0,0.0,0.0,0.0,0.0,0.0,0.0,0.0,0.0,0.0,0.0,0.0,0.0,0.0,0.0,0.0,0.0,0.0,0.0,0.0,0.0,0.0,0.0,0.0,0.0,0.0,0.0,0.0,0.0,0.0,0.0,0.0,0.0,0.0,0.0,0.0,0.0,0.0,0.0,0.0,0.0,0.0,0.0,0.0,0.0,0.0,0.0,0.0,0.0,0.0,0.0,0.0,0.0,0.0,0.0,0.0,0.0,0.0,0.0,0.0,0.0,0.0,0.0,0.0,0.0,0.0,0.0,0.0,0.0,0.0,0.0,0.0,0.0,0.0,0.0,0.0,0.0,0.0,0.0,0.0,0.0,0.0,0.0,0.0,0.0,0.0,0.0,0.0,0.0,0.0,0.0,0.8471,0.8978,0.8852,0.8055,0.7213,0.6522,0.0,0.0,0.0,0.0,0.0,0.0,0.0,0.0,0.0,0.0,0.0,0.0,0.0,0.0,0.0,0.0,0.0,0.0,0.0,0.0,0.0,0.0,0.0,0.0,0.0,0.0,0.0,0.0,0.0,0.0,0.0,0.0,0.0,0.0,0.0,0.0,0.0,0.0,0.0,0.0,0.0,0.0,0.0,0.0,0.0,0.0,0.0,0.0,0.0,0.0,0.0,0.0,0.0,0.0,0.0,0.0,0.0,0.0,0.0,0.0,0.0,0.0,0.0,0.0,0.0,0.0,0.0,0.0,0.0,0.0,0.0,0.0,0.0,0.0,0.0,0.0,0.0,0.0,0.0,0.0,0.0,0.0,0.0,0.0,0.0,0.0,0.0,0.0,0.0,0.0,0.0,0.0,0.0,0.0,0.0,0.0,0.0,0.0,0.0,0.0,0.0,0.0,0.0,0.0,0.0,0.0,0.0,0.0,0.0,0.9553,1.0437,1.0414,0.949,0.8338,0.7563,0.0,0.0,0.0,0.0,0.0,0.0,0.0,0.0,0.0,0.0,0.0,0.0,0.0,0.0,0.0,0.0,0.0,0.0,0.0,0.0,0.0,0.0,0.0,0.0,0.0,0.0,0.0,0.0,0.0,0.0,0.0,0.0,0.0,0.0,0.0,0.0,0.0,0.0,0.0,0.0,0.0,0.0,0.0,0.0,0.0,0.0,0.0,0.0,0.0,0.0,0.0,0.0,0.0,0.0,0.0,0.0,0.0,0.0,0.0,0.0,0.0,0.0,0.0,0.0,0.0,0.0,0.0,0.0,0.0,0.0,0.0,0.0,0.0,0.0,0.0,0.0,0.0,0.0,0.0,0.0,0.0,0.0,0.0,0.0,0.0,0.0,0.0,0.0,0.0,0.0,0.0,0.0,0.0,0.0,0.0,0.0,0.0,0.0,0.0,0.0,0.0,0.0,0.0,0.0,0.0,0.0,0.0,0.0,0.9307,1.0267,1.1042,1.1123,1.0557,0.9669,0.889,0.0,0.0,0.0,0.0,0.0,0.0,0.0,0.0,0.0,0.0,0.0,0.0,0.0,0.0,0.0,0.0,0.0,0.0,0.0,0.0,0.0,0.0,0.0,0.0,0.0,0.0,0.0,0.0,0.0,0.0,0.0,0.0,0.0,0.0,0.0,0.0,0.0,0.0,0.0,0.0,0.0,0.0,0.0,0.0,0.0,0.0,0.0,0.0,0.0,0.0,0.0,0.0,0.0,0.0,0.0,0.0,0.0,0.0,0.0,0.0,0.0,0.0,0.0,0.0,0.0,0.0,0.0,0.0,0.0,0.0,0.0,0.0,0.0,0.0,0.0,0.0,0.0,0.0,0.0,0.0,0.0,0.0,0.0,0.0,0.0,0.0,0.0,0.0,0.0,0.0,0.0,0.0,0.0,0.0,0.0,0.0,0.0,0.0,0.0,0.0,0.0,0.0,0.0,0.0,0.0,0.0,0.0,0.0,1.009,1.0893,1.1277,1.1528,1.1493,1.1018,1.0182,0.0,0.0,0.0,0.0,0.0,0.0,0.0,0.0,0.0,0.0,0.0,0.0,0.0,0.0,0.0,0.0,0.0,0.0,0.0,0.0,0.0,0.0,0.0,0.0,0.0,0.0,0.0,0.0,0.0,0.0,0.0,0.0,0.0,0.0,0.0,0.0,0.0,0.0,0.0,0.0,0.0,0.0,0.0,0.0,0.0,0.0,0.0,0.0,0.0,0.0,0.0,0.0,0.0,0.0,0.0,0.0,0.0,0.0,0.0,0.0,0.0,0.0,0.0,0.0,0.0,0.0,0.0,0.0,0.0,0.0,0.0,0.0,0.0,0.0,0.0,0.0,0.0,0.0,0.0,0.0,0.0,0.0,0.0,0.0,0.0,0.0,0.0,0.0,0.0,0.0,0.0,0.0,0.0,0.0,0.0,0.0,0.0,0.0,0.0,0.0,0.0,0.0,0.0,0.0,0.0,0.0,0.0,0.0,1.1101,1.2417,1.256,1.2774,1.3074,1.1667,1.0325,0.0,0.0,0.0,0.0,0.0,0.0,0.0,0.0,0.0,0.0,0.0,0.0,0.0,0.0,0.0,0.0,0.0,0.0,0.0,0.0,0.0,0.0,0.0,0.0,0.0,0.0,0.0,0.0,0.0,0.0,0.0,0.0,0.0,0.0,0.0,0.0,0.0,0.0,0.0,0.0,0.0,0.0,0.0,0.0,0.0,0.0,0.0,0.0,0.3773,0.0,0.0,0.0,0.0,0.0,0.0,0.0,0.0,0.0,0.0,0.0,0.0,0.0,0.0,0.0,0.0,0.0,0.0,0.0,0.0,0.0,0.0,0.0,0.0,0.0,0.0,0.0,0.0,0.0,0.0,0.0,0.0,0.0,0.0,0.0,0.0,0.0,0.0,0.0,0.0,0.0,0.0,0.0,0.0,0.0,0.0,0.0,0.0,0.0,0.0,0.0,0.0,0.0,0.0,0.0,0.0,0.0,0.0,0.0,1.1657,1.2386,1.2628,1.2852,1.3035,1.233,1.1205,0.0,0.0,0.0,0.0,0.0,0.0,0.0,0.0,0.0,0.0,0.0,0.0,0.0,0.0,0.0,0.0,0.0,0.0,0.0,0.0,0.0,0.0,0.0,0.0,0.0,0.0,0.0,0.0,0.0,0.0,0.0,0.0,0.0,0.0,0.0,0.0,0.0,0.0,0.0,0.0,0.0,0.0,0.0,0.0,0.0,0.0,0.0,0.0,0.0,0.0,0.0,0.0,0.0,0.0,0.0,0.0,0.0,0.0,0.0,0.0,0.0,0.0,0.0,0.0,0.0,0.0,0.0,0.0,0.0,0.0,0.0,0.0,0.0,0.0,0.0,0.0,0.0,0.0,0.0,0.0,0.0,0.0,0.0,0.0,0.0,0.0,0.0,0.0,0.0,0.0,0.0,0.0,0.0,0.0,0.0,0.0,0.0,0.0,0.0,0.0,0.0,0.0,0.0,0.0,0.0,0.0,0.0,1.0848,1.1931,1.2147,1.2471,1.2666,1.2676,1.2929,1.2246,1.0422,0.0,0.0,0.0,0.0,0.0,0.0,0.0,0.0,0.0,0.0,0.0,0.0,0.0,0.0,0.0,0.0,0.0,0.0,0.0,0.0,0.0,0.0,0.0,0.0,0.0,0.0,0.0,0.0,0.0,0.0,0.0,0.0,0.0,0.0,0.0,0.0,0.0,0.0,0.4367,0.4826,0.0,0.0,0.0,0.0,0.0,0.0,0.0,0.0,0.458,0.0,0.0,0.0,0.0,0.0,0.0,0.0,0.0,0.0,0.0,0.0,0.0,0.0,0.0,0.0,0.0,0.0,0.0,0.0,0.0,0.0,0.0,0.0,0.0,0.0,0.0,0.0,0.0,0.0,0.0,0.0,0.0,0.0,0.0,0.0,0.0,0.0,0.0,0.0,0.0,0.0,0.0,0.0,0.0,0.0,0.0,0.0,0.0,0.0,0.0,0.0,0.0,0.0,0.0,0.0,0.0,1.0794,1.1227,1.2005,1.3304,1.3372,1.342,1.343,1.3467,1.2765,1.1185,0.0,0.0,0.0,0.0,0.0,0.0,0.0,0.0,0.0,0.0,0.0,0.0,0.0,0.0,0.0,0.0,0.0,0.0,0.0,0.0,0.0,0.0,0.0,0.0,0.0,0.0,0.0,0.0,0.0,0.0,0.0,0.0,0.0,0.0,0.0,0.0,0.0,0.0,0.0,0.66,0.6881,0.0,0.0,0.0,0.0,0.0,0.0,0.0,0.0,0.4883,0.0,0.0,0.0,0.0,0.0,0.0,0.0,0.0,0.0,0.0,0.0,0.0,0.0,0.0,0.0,0.0,0.0,0.0,0.0,0.0,0.0,0.0,0.0,0.0,0.0,0.0,0.0,0.0,0.0,0.0,0.0,0.0,0.0,0.0,0.0,0.0,0.0,0.0,0.0,0.0,0.0,0.0,0.0,0.0,0.0,0.0,0.0,0.0,0.0,0.0,0.0,0.0,0.0,0.0,0.0,1.0405,1.1777,1.2749,1.3304,1.3515,1.361,1.36,1.3155,1.2321,0.0,0.0,0.0,0.0,0.0,0.0,0.0,0.0,0.0,0.0,0.0,0.0,0.0,0.0,0.0,0.0,0.0,0.0,0.0,0.0,0.0,0.0,0.0,0.0,0.0,0.0,0.0,0.0,0.0,0.0,0.0,0.0,0.0,0.0,0.0,0.0,0.0,0.0,0.0,0.0,0.6926,0.7222,0.7379,0.0,0.0,0.0,0.0,0.0,0.0,0.5851,0.5476,0.0,0.0,0.0,0.0,0.0,0.0,0.0,0.0,0.0,0.0,0.0,0.0,0.0,0.0,0.0,0.0,0.0,0.0,0.0,0.0,0.0,0.0,0.0,0.0,0.0,0.0,0.0,0.0,0.0,0.0,0.0,0.0,0.0,0.0,0.0,0.0,0.0,0.0,0.0,0.0,0.0,0.0,0.0,0.0,0.0,0.0,0.0,0.0,0.0,0.0,0.0,0.0,0.0,0.0,0.0,0.9783,1.2063,1.3236,1.315,1.342,1.361,1.36,1.2917,1.2009,0.0,0.0,0.0,0.0,0.0,0.0,0.0,0.0,0.0,0.0,0.0,0.0,0.0,0.0,0.0,0.0,0.0,0.0,0.0,0.0,0.0,0.0,0.0,0.0,0.0,0.0,0.0,0.0,0.0,0.0,0.0,0.0,0.0,0.0,0.0,0.0,0.0,0.0,0.0,0.0,0.0,0.7425,0.7661,0.7283,0.0,0.0,0.0,0.0,0.6359,0.6372,0.0,0.0,0.0,0.0,0.0,0.0,0.0,0.0,0.0,0.0,0.0,0.0,0.0,0.0,0.0,0.0,0.0,0.0,0.0,0.0,0.0,0.0,0.0,0.0,0.0,0.0,0.0,0.0,0.0,0.0,0.0,0.0,0.0,0.0,0.0,0.0,0.0,0.0,0.0,0.0,0.0,0.0,0.0,0.0,0.0,0.0,0.0,0.0,0.0,0.0,0.0,0.0,0.0,0.0,0.0,0.0,1.0118,1.1422,1.2558,1.3464,1.3573,1.361,1.361,1.3517,1.273,0.0,0.0,0.0,0.0,0.0,0.0,0.0,0.0,0.0,0.0,0.0,0.0,0.0,0.0,0.0,0.0,0.0,0.0,0.0,0.0,0.0,0.0,0.0,0.0,0.0,0.0,0.0,0.0,0.0,0.0,0.0,0.0,0.0,0.0,0.0,0.0,0.0,0.0,0.0,0.0,0.0,0.838,0.7784,0.7785,0.7732,0.0,0.0,0.7158,0.7362,0.7139,0.0,0.0,0.0,0.0,0.0,0.0,0.0,0.0,0.0,0.0,0.0,0.0,0.0,0.0,0.0,0.0,0.0,0.0,0.0,0.0,0.0,0.0,0.0,0.0,0.0,0.0,0.0,0.0,0.0,0.0,0.0,0.0,0.0,0.0,0.0,0.0,0.0,0.0,0.0,0.0,0.0,0.0,0.0,0.0,0.0,0.0,0.0,0.0,0.0,0.0,0.0,0.0,0.0,0.0,0.0,0.9023,1.0215,1.195,1.3124,1.36,1.361,1.361,1.361,1.3124,1.2284,0.0,0.0,0.0,0.0,0.0,0.0,0.0,0.0,0.0,0.0,0.0,0.0,0.0,0.0,0.0,0.0,0.0,0.0,0.0,0.0,0.0,0.0,0.0,0.0,0.0,0.0,0.0,0.0,0.0,0.0,0.0,0.0,0.0,0.0,0.0,0.0,0.0,0.0,0.0,0.0,0.0,0.0,0.8303,0.8132,0.0,0.0,0.0,0.7466,0.7622,0.0,0.0,0.0,0.0,0.0,0.0,0.0,0.0,0.0,0.0,0.0,0.0,0.0,0.0,0.0,0.0,0.0,0.0,0.0,0.0,0.0,0.0,0.0,0.0,0.0,0.0,0.0,0.0,0.0,0.0,0.0,0.0,0.0,0.0,0.0,0.0,0.0,0.0,0.0,0.0,0.0,0.0,0.0,0.0,0.0,0.0,0.0,0.0,0.0,0.0,0.0,0.0,0.0,0.0,0.0,0.0,0.0,1.0273,1.2467,1.361,1.361,1.361,1.361,1.36,1.2948,0.0,0.0,0.0,0.0,0.0,0.0,0.0,0.0,0.0,0.0,0.0,0.0,0.0,0.0,0.0,0.0,0.0,0.0,0.0,0.0,0.0,0.0,0.0,0.0,0.0,0.0,0.0,0.375,0.0,0.0,0.0,0.0,0.0,0.0,0.0,0.0,0.0,0.0,0.0,0.0,0.0,0.0,0.8313,0.8664,0.8423,0.8268,0.0,0.0,0.7713,0.7753,0.757,0.7285,0.0,0.0,0.0,0.0,0.0,0.0,0.0,0.0,0.0,0.0,0.0,0.0,0.0,0.0,0.0,0.0,0.0,0.0,0.0,0.0,0.0,0.0,0.0,0.0,0.0,0.0,0.0,0.0,0.0,0.0,0.0,0.0,0.0,0.0,0.0,0.0,0.0,0.0,0.0,0.0,0.0,0.0,0.0,0.0,0.0,0.0,0.0,0.0,0.0,0.0,0.0,0.0,0.0,0.0,0.9511,1.04,1.2501,1.361,1.361,1.361,1.361,1.361,1.3558,1.2655,0.0,0.0,0.0,0.0,0.0,0.0,0.0,0.0,0.0,0.0,0.0,0.0,0.0,0.0,0.0,0.0,0.0,0.0,0.0,0.0,0.0,0.0,0.0,0.0,0.0,0.0,0.0,0.0,0.0,0.0,0.0,0.0,0.0,0.0,0.0,0.0,0.0,0.0,0.0,0.0,0.0,0.8911,0.8521,0.8625,0.8642,0.0,0.8096,0.7883,0.7895,0.7771,0.7471,0.689,0.0,0.0,0.0,0.0,0.0,0.0,0.0,0.0,0.0,0.0,0.0,0.0,0.0,0.0,0.0,0.0,0.0,0.0,0.0,0.0,0.0,0.0,0.0,0.0,0.0,0.0,0.0,0.0,0.0,0.0,0.0,0.0,0.0,0.0,0.0,0.0,0.0,0.0,0.0,0.0,0.0,0.0,0.0,0.0,0.0,0.0,0.0,0.0,0.0,0.0,0.0,0.0,0.0,0.9732,1.0544,1.2556,1.361,1.361,1.361,1.361,1.361,1.361,1.2841,0.0,0.0,0.0,0.0,0.0,0.0,0.0,0.0,0.0,0.0,0.0,0.0,0.0,0.0,0.0,0.0,0.0,0.0,0.0,0.0,0.0,0.0,0.0,0.0,0.0,0.0,0.0,0.0,0.4712,0.4914,0.5161,0.0,0.0,0.0,0.0,0.0,0.0,0.0,0.0,0.0,0.0,0.8951,0.8911,0.8968,0.0,0.0,0.8601,0.8327,0.806,0.7976,0.7692,0.7025,0.6845,0.0,0.0,0.0,0.0,0.0,0.0,0.0,0.0,0.0,0.0,0.0,0.0,0.0,0.0,0.0,0.0,0.0,0.0,0.0,0.0,0.0,0.0,0.0,0.0,0.0,0.0,0.0,0.0,0.0,0.0,0.0,0.0,0.0,0.0,0.0,0.0,0.0,0.0,0.0,0.0,0.0,0.0,0.0,0.0,0.0,0.0,0.0,0.0,0.0,0.0,0.0,0.0,1.0052,1.0862,1.2672,1.361,1.361,1.361,1.361,1.361,1.361,1.3006,0.0,0.0,0.0,0.0,0.0,0.0,0.0,0.0,0.0,0.0,0.0,0.0,0.0,0.0,0.0,0.0,0.0,0.0,0.0,0.0,0.0,0.0,0.0,0.0,0.0,0.0,0.0,0.0,0.4975,0.5117,0.5289,0.0,0.0,0.0,0.0,0.0,0.0,0.0,0.0,0.0,0.0,0.9084,0.9233,0.933,0.9303,0.9155,0.8841,0.8501,0.8158,0.8072,0.7842,0.7178,0.0,0.0,0.0,0.0,0.0,0.0,0.0,0.0,0.0,0.0,0.0,0.0,0.0,0.0,0.0,0.0,0.0,0.0,0.0,0.0,0.0,0.0,0.0,0.0,0.0,0.0,0.0,0.8143,0.0,0.0,0.6852,0.0,0.0,0.0,0.0,0.0,0.0,0.0,0.0,0.0,0.0,0.0,0.0,0.0,0.0,0.0,0.0,0.0,0.0,0.0,0.0,0.0,0.0,1.0474,1.1501,1.2903,1.3631,1.3641,1.3621,1.3621,1.3631,1.3621,1.3186,1.2307,0.0,0.0,0.0,0.0,0.0,0.0,0.0,0.0,0.0,0.0,0.0,0.0,0.0,0.0,0.0,0.0,0.0,0.0,0.0,0.0,0.0,0.0,0.0,0.0,0.0,0.0,0.4954,0.5226,0.534,0.0,0.0,0.0,0.0,0.0,0.0,0.0,0.0,0.0,0.8587,0.923,0.9608,0.944,0.9575,0.9538,0.9082,0.8655,0.8259,0.8152,0.8084,0.7897,0.0,0.0,0.0,0.0,0.0,0.0,0.0,0.0,0.0,0.0,0.0,0.0,0.0,0.0,0.0,0.0,0.0,0.0,0.0,0.0,0.0,0.0,0.0,0.0,0.0,0.0,0.0,1.0577,1.0313,0.0,0.0,0.0,0.0,0.0,0.0,0.0,0.0,0.0,0.0,0.0,1.273,1.3031,0.0,0.0,0.0,0.0,0.0,0.0,0.0,0.0,0.0,0.0,0.0,0.0,1.0846,1.2397,1.349,1.4221,1.4511,1.4242,1.4076,1.4076,1.3728,1.3186,1.2328,0.0,0.0,0.0,0.0,0.0,0.0,0.0,0.0,0.0,0.0,0.0,0.0,0.0,0.0,0.0,0.0,0.0,0.0,0.0,0.0,0.0,0.0,0.0,0.0,0.0,0.512,0.0,0.0,0.0,0.0,0.0,0.0,0.0,0.0,0.0,0.0,0.0,0.8844,0.9263,0.9719,0.9907,0.9734,0.9858,0.9819,0.0,0.0,0.0,0.0,0.0,0.0,0.0,0.0,0.0,0.0,0.0,0.0,0.0,0.0,0.7516,0.6113,0.5653,0.5417,0.5105,0.0,0.0,0.0,0.0,0.0,0.0,0.0,0.0,0.0,0.0,0.0,0.0,0.0,0.0,1.215,1.1914,1.1754,0.0,0.0,0.0,0.0,0.0,0.0,0.0,0.0,1.3527,1.3962,1.4107,1.4407,1.4386,1.4076,1.3652,1.2679,0.0,0.0,0.0,0.0,0.0,0.0,0.0,0.0,1.1778,1.3088,1.4076,1.4687,1.4976,1.4707,1.4469,1.4304,1.3859,1.3269,1.2557,1.184,1.1143,0.0,0.0,0.0,0.0,0.0,0.0,0.0,0.0,0.0,0.0,0.0,0.0,0.0,0.0,0.0,0.0,0.0,0.0,0.0,0.0,0.0,0.0,0.0,0.5609,0.0,0.0,0.0,0.0,0.0,0.0,0.0,0.0,0.0,0.851,0.8864,0.9292,0.9773,0.9993,1.0093,1.0076,0.0,0.0,0.0,0.0,0.0,0.0,0.0,0.861,0.8398,0.8457,0.8486,0.8502,0.8795,0.8947,0.8736,0.0,0.0,0.7145,0.6729,0.6466,0.6303,0.6681,0.6885,0.6282,0.6665,0.6937,0.0,0.0,0.0,0.0,1.4127,0.0,0.0,0.0,1.3407,1.3051,0.0,1.2619,0.0,0.0,0.0,0.0,1.1788,1.3,0.0,0.0,1.5028,1.5452,1.5059,1.5049,1.5038,1.507,1.5432,1.5173,1.42,1.1644,0.0,0.0,0.0,0.0,0.0,0.0,1.3176,1.3703,1.4573,1.5028,1.5059,1.5028,1.479,1.4324,1.3879,1.3434,1.2934,1.2847,1.2208,1.0917,1.0042,0.0,0.0,0.0,0.0,0.0,0.0,0.0,0.0,0.0,0.0,0.0,0.0,0.0,0.0,0.0,0.0,0.0,0.0,0.0,0.0,0.5998,0.0,0.0,0.0,0.0,0.0,0.0,0.0,0.0,0.0,0.0,0.8951,0.9365,0.9806,1.0094,0.0,0.0,0.0,0.0,0.9919,0.9804,0.9444,0.9088,0.891,0.9015,0.898,0.8581,0.0,0.0,0.9013,0.9241,0.9336,0.8838,0.886,0.891,0.8719,0.8317,0.8024,0.8036,0.7865,0.7801,0.7806,0.7741,0.7779,1.6291,0.0,0.0,0.0,0.0,1.5423,1.5813,1.6967,1.6104,1.5511,1.5162,1.4697,0.0,0.0,0.0,0.0,0.0,0.0,1.4469,1.5101,1.5515,1.5784,1.598,1.598,1.598,1.598,1.5784,1.5556,1.5256,1.4179,1.2861,1.1399,0.0,0.0,0.0,0.0,1.3556,1.5018,1.5359,1.5649,1.598,1.5659,1.5121,1.4335,1.4179,1.39,1.3445,1.3377,1.3001,1.2249,1.1399,0.0,0.0,0.0,0.0,0.0,0.0,0.0,0.0,0.0,0.0,0.0,0.0,0.0,0.0,0.0,0.0,0.0,0.0,0.0,0.6442,0.6414,0.6597,0.0,0.0,0.0,0.0,0.0,0.0,0.0,0.0,0.0,1.0321,1.014,1.01,0.0,0.0,1.0468,1.0504,1.0187,0.9926,0.9804,0.9539,0.0,0.9301,0.9196,0.9112,0.9232,0.9388,0.9454,0.9319,0.9436,0.946,0.9319,0.9307,0.936,0.9438,0.886,0.8249,0.8156,0.8177,0.8171,0.812,0.8183,0.8307,1.8485,1.7905,1.6912,1.6867,1.7384,1.6794,1.7151,1.8139,1.7438,1.6979,1.6696,1.6423,1.5666,1.4512,1.4666,0.0,0.0,0.0,1.5784,1.6498,1.6312,1.6374,1.6622,1.6456,1.6374,1.6374,1.6094,1.597,1.596,1.568,1.4904,1.3604,0.0,1.3078,1.359,1.3844,1.4522,1.5639,1.5866,1.6105,1.6363,1.5929,1.5421,1.4883,1.4676,1.4366,1.391,1.389,1.3635,1.3135,1.2436,1.1338,0.0,0.0,0.0,0.0,0.0,0.0,0.0,0.0,0.0,0.0,0.0,0.4041,0.4422,0.0,0.0,0.0,0.646,0.7163,0.7389,0.7493,0.0,0.0,0.0,0.0,0.0,0.0,0.0,1.0094,1.0454,1.0762,1.1109,1.0862,1.0701,1.0875,1.0766,1.0672,1.0735,0.0,1.0053,0.9926,0.9734,0.9612,0.9542,0.934,0.9292,0.9454,0.9478,0.9478,0.9484,0.9562,0.9598,0.9532,0.9652,0.9874,0.9928,0.9415,0.9052,0.8937,0.8865,0.8842,0.8706,0.8491,0.8297,2.041,2.0286,1.864,1.8082,1.8321,1.7937,1.7989,1.8268,1.7947,1.7781,1.7719,1.7688,1.7502,1.7007,1.6674,0.0,1.7038,1.7038,1.7245,1.7719,1.7224,1.7038,1.7028,1.6684,1.6467,1.6436,1.6425,1.6415,1.6374,1.6363,1.6167,1.5742,1.5318,1.5027,1.4911,1.5419,1.5711,1.5753,1.6156,1.6374,1.6374,1.597,1.5732,1.5691,1.5245,1.478,1.4335,1.4262,1.4055,1.3583,1.3124,1.2259,1.0968,0.0,0.0,0.0,0.0,0.0,0.0,0.0,0.0,0.0,0.0,0.0,0.0,0.0,0.0,0.0,0.7641,0.0,0.8699,0.898,0.0,0.0,0.0,0.9143,0.9952,1.016,1.0408,1.0995,0.0,0.0,1.1496,1.1476,1.1401,1.149,1.0995,1.0728,1.0989,1.0679,1.0302,1.0046,0.9899,0.9765,0.9554,0.9466,0.9466,0.9478,0.9478,0.9478,0.949,0.9658,0.9718,0.9709,0.9977,1.0248,1.0031,1.0107,1.0293,1.0154,0.9852,0.9486,0.9313,0.8674,0.806,2.041,2.0379,1.9955,1.9789,1.9796,1.911,1.9017,1.9343,1.8591,1.8226,1.8206,1.7874,1.7667,1.7503,1.746,1.7471,1.7564,1.7513,1.7564,1.7729,1.7564,1.7513,1.7503,1.7399,1.7222,1.6842,1.6822,1.6715,1.6384,1.6374,1.6332,1.6218,1.6105,1.5877,1.5481,1.5628,1.5866,1.6208,1.6322,1.6374,1.6374,1.627,1.6053,1.5691,1.5235,1.478,1.4324,1.3962,1.3734,1.3621,1.347,1.2989,1.1985,1.0555,0.0,0.0,0.0,0.0,0.0,0.0,0.0,0.0,0.0,0.4399,0.5581,0.0,0.8182,0.0,0.8143,0.8707,0.9036,0.9555,0.0,0.0,1.071,1.0909,1.1465,1.12,1.1213,1.1666,1.1724,1.1844,1.2064,1.1904,1.1844,1.2044,1.159,1.1243,1.1316,1.1134,1.0875,1.0482,1.024,0.9968,0.9602,0.9478,0.9496,0.9478,0.9484,0.9478,0.9484,0.9532,0.9758,1.018,1.0159,1.0152,1.0459,1.0586,1.0695,1.0773,1.0402,0.9712,0.9006,0.8584,0.8282,2.1041,2.1031,2.1041,2.1041,2.0969,2.0058,1.982,2.0006,1.951,1.9292,1.9261,1.8827,1.864,1.862,1.8413,1.8319,1.833,1.833,1.833,1.8319,1.8112,1.8019,1.8019,1.7823,1.7533,1.7286,1.7296,1.7222,1.6984,1.6777,1.6674,1.6663,1.6477,1.6249,1.6011,1.5991,1.6125,1.6363,1.6374,1.6374,1.6374,1.6374,1.6213,1.5701,1.5442,1.4987,1.4324,1.4066,1.3828,1.3621,1.3563,1.3196,1.2586,1.1522,1.0522,0.0,0.0,0.0,0.0,0.0,0.0,0.0,0.0,0.0,0.0,0.0,0.9644,0.8643,0.9285,0.9938,1.0269,1.0806,1.1326,1.1684,1.1754,1.1926,1.2275,1.2032,1.1909,1.2148,1.2209,1.227,1.2278,1.2158,1.2118,1.2285,1.2017,1.177,1.1783,1.153,1.1171,1.075,1.0583,1.0337,0.991,0.9826,0.9832,0.9886,0.973,0.9652,0.9509,0.9587,0.9849,1.0286,1.0282,1.0369,1.0665,1.0828,1.0948,1.0947,1.0528,0.9841,0.9155,0.8427,0.7681,2.1807,2.1807,2.1807,2.1807,2.1745,2.0948,2.0576,2.0514,2.0452,2.041,2.04,2.0017,1.9841,1.982,1.9427,1.921,1.9158,1.9235,1.9127,1.911,1.8716,1.8464,1.8454,1.8081,1.7874,1.7812,1.7812,1.7781,1.7657,1.7265,1.7069,1.7049,1.6746,1.655,1.655,1.6498,1.6436,1.6374,1.6374,1.6374,1.6374,1.6374,1.6187,1.5794,1.5659,1.5225,1.4438,1.4335,1.4128,1.3686,1.36,1.3437,1.3068,1.2528,1.1671,0.0,0.9571,0.0,0.0,0.0,0.0,0.0,0.0,0.0,0.0,0.9678,1.0498,0.9909,1.0719,1.1355,1.1597,1.2204,1.2584,1.2584,1.2492,1.2553,1.2671,1.2643,1.2606,1.2572,1.2599,1.2526,1.2372,1.2298,1.2305,1.2305,1.2278,1.2244,1.2206,1.1877,1.1424,1.1019,1.0899,1.056,1.0353,1.0303,1.0303,1.029,1.0134,0.9849,0.9629,0.9775,1.0013,1.0233,1.0487,1.0707,1.0761,1.0887,1.0875,1.0887,1.0115,0.9502,0.9266,0.8201,0.6965,2.1807,2.1807,2.1807,2.1807,2.1787,2.1621,2.1331,2.0959,2.0586,2.041,2.041,2.0338,2.0296,2.0286,2.0213,1.9975,1.9624,1.9702,1.9495,1.9131,1.8982,1.894,1.9007,1.8858,1.862,1.8268,1.8257,1.8071,1.7678,1.7575,1.7544,1.7544,1.7522,1.7481,1.745,0.0,0.0,0.0,1.6374,1.6374,1.6374,1.6374,1.6332,1.6229,1.5525,0.0,1.4863,1.4511,1.4262,1.419,1.4542,0.0,0.0,0.0,0.0,0.0,0.0,0.0,0.0,0.0,0.0,0.0,0.9099,0.8871,0.9256,1.0561,1.1338,1.1269,1.1838,1.216,1.197,1.2533,1.2914,1.2921,1.3148,1.3194,1.2882,1.2954,1.299,1.2659,1.2599,1.2599,1.2526,1.2378,1.2298,1.2305,1.2305,1.2285,1.2304,1.2151,1.1893,1.1326,1.0841,1.042,1.0333,1.0351,1.0381,1.0321,1.0303,1.0185,1.003,1.0093,1.0414,1.0744,1.0808,1.0719,1.0985,1.0565,1.0143,1.0143,0.9003,0.8169,0.8699,0.8089,0.7165,2.1807,2.1807,2.1807,2.1807,0.0,2.1807,2.1673,2.1435,2.1207,2.1104,2.1083,2.0866,2.0762,2.0752,2.0524,2.0307,2.0089,2.0089,1.9841,1.9484,1.9474,1.9292,1.9131,1.9131,1.8951,1.8723,1.8733,1.8609,1.8392,1.8164,1.805,1.804,1.7843,1.7678,1.7657,1.7214,1.6829,1.6384,1.6374,1.6374,1.6374,1.6374,1.627,1.6032,1.5587,0.0,0.0,0.0,0.0,0.0,0.0,0.0,0.0,0.0,0.0,1.3122,1.2512,1.1819,1.1082,1.0951,1.0879,1.0828,1.0981,1.1045,1.1048,1.1712,1.2161,1.2101,1.2482,1.2701,1.2555,1.2958,1.325,1.3258,1.3397,1.3419,1.3273,1.3266,1.3193,1.2826,1.2826,1.2826,1.2452,1.2452,1.2372,1.2305,1.2305,1.2305,1.2305,1.2305,1.2084,1.1734,1.1316,1.0935,1.0857,1.0863,1.0779,1.0713,1.061,1.0461,1.0443,1.0335,1.0417,1.0742,1.0509,1.0216,1.0375,0.9841,0.9311,0.9236,0.8318,0.7638,0.8016,0.748,0.6799,2.1807,2.1807,2.1807,2.1807,2.1807,2.1807,2.1807,2.1807,2.1807,0.0,0.0,2.1404,2.1238,2.1217,2.0834,2.0627,2.0545,2.0545,2.0307,1.9882,1.9872,1.9675,1.9313,1.922,1.9199,1.9189,1.9183,1.9131,1.9121,1.8682,1.8495,1.8464,1.8143,1.7936,1.7823,1.746,1.7057,1.6632,1.6456,1.6374,1.6374,1.6374,1.6254,1.5815,1.5732,1.5515,1.5142,1.5121,1.5111,1.5121,1.5088,1.5088,1.5121,1.4899,1.4753,1.4672,1.4306,1.3624,1.2762,1.253,1.2212,1.1792,1.2292,1.2586,1.2689,1.2755,1.281,1.2672,1.2943,1.3097,1.3097,1.3331,1.3492,1.3492,1.3492,1.3499,1.3499,1.3492,1.3346,1.3046,1.3046,1.2973,1.2526,1.2445,1.2526,1.2378,1.2305,1.2305,1.2305,1.2231,1.2144,1.1977,1.171,1.1601,1.1471,1.1452,1.1409,1.1205,1.0985,1.0797,1.0755,1.061,1.0503,1.0484,0.9986,0.9707,0.9643,0.9079,0.8551,0.8475,0.7863,0.7334,0.7257,0.6795,0.6338,2.1807,2.1807,2.1807,2.1807,2.1807,2.1807,2.1807,2.1807,2.1807,2.1807,2.1807,2.1745,2.1704,2.1714,2.1642,2.1393,2.1031,2.1021,2.0772,2.0338,2.0327,2.0307,2.0224,1.9841,1.9734,1.9702,1.9261,1.9131,1.9121,1.9069,1.9038,1.8951,1.8909,1.8682,1.8319,1.8226,1.7978,1.7543,1.6777,1.6374,1.6374,1.6374,1.6353,1.628,1.5898,1.5659,1.5597,1.5597,1.5587,1.5608,1.597,1.6011,1.5618,1.5553,1.5357,1.4996,1.4982,1.4678,1.3998,1.4396,1.3996,1.2579,1.2735,1.3075,1.3361,1.3115,1.3086,1.3316,1.3382,1.3426,1.3433,1.3462,1.3492,1.3492,1.3492,1.3426,1.3294,1.3441,1.3448,1.3221,1.3046,1.2973,1.2826,1.2526,1.2445,1.2526,1.2452,1.2305,1.2305,1.215,1.2003,1.2003,1.1855,1.1706,1.1706,1.1632,1.1632,1.1632,1.1446,1.1243,1.1243,1.1052,1.0666,1.0151,0.9836,0.9487,0.9003,0.8241,0.7787,0.7633,0.7026,0.6567,0.6567,0.6412,0.6261,2.1807,2.1807,2.1807,2.1807,2.1807,2.1807,2.1807,2.1807,2.1807,2.1807,2.1807,2.1807,2.1807,2.1807,2.1807,2.1694,2.1487,2.1487,2.1248,2.0814,2.0793,2.0659,2.042,2.0213,1.9996,1.9827,1.9619,1.9391,1.9162,1.9131,1.9131,1.9131,1.9131,1.8961,1.8754,1.8506,1.8288,1.8071,1.7202,1.6736,1.6736,1.6498,1.6374,1.6374,1.6167,1.6063,1.6063,1.6063,1.6063,1.6063,1.627,1.6394,1.6425,1.6368,1.6321,1.6362,1.6323,1.595,1.5191,1.4789,1.3981,1.2662,1.2997,1.3351,1.3445,1.3359,1.3338,1.3477,1.3492,1.3492,1.3492,1.3492,1.3492,1.3492,1.3645,1.3755,1.3681,1.3681,1.3681,1.351,1.33,1.3119,1.29,1.2753,1.2673,1.2753,1.268,1.2606,1.2459,1.2385,1.2305,1.2157,1.2083,1.2003,1.1929,1.1855,1.1781,1.1706,1.1632,1.1558,1.1484,1.1117,1.0513,1.0067,0.9311,0.8551,0.8089,0.7407,0.6949,0.6795,0.6644,0.6338,0.6261,0.6261,0.6261,2.1807,2.1807,2.1807,2.1807,2.1807,2.1807,2.1807,2.1807,2.1807,2.1807,2.1807,2.1807,2.1807,2.1807,2.1807,2.1807,2.1807,2.1807,2.1611,2.13,2.1269,2.1073,2.0752,2.0638,2.0348,1.9934,1.9889,1.953,1.9106,1.9131,1.9131,1.9131,1.9131,1.9131,1.9131,1.8713,1.8537,1.8485,1.775,1.7245,1.7131,1.685,1.6684,1.6684,1.6684,1.6684,1.6694,1.6684,1.6626,1.6567,1.6626,1.6781,1.698,1.7011,1.7175,1.744,1.7232,1.6831,1.6215,1.4875,1.3854,1.3323,1.3401,1.3492,1.3492,1.3492,1.3492,1.3492,1.3492,1.3492,1.3506,1.3579,1.3601,1.3623,1.3901,1.4084,1.4092,1.4092,1.4015,1.391,1.379,1.3577,1.3259,1.3184,1.3131,1.3063,1.3103,1.3014,1.2797,1.2743,1.2696,1.2479,1.2298,1.2224,1.2077,1.2083,1.2003,1.1855,1.1781,1.1781,1.1639,1.0968,1.0218,0.9916,0.8699,0.7787,0.7407,0.6949,0.6563,0.6567,0.649,0.6409,0.6412,0.6338,0.6261,2.1807,2.1807,2.1807,2.1807,2.1807,2.1807,2.1807,2.1807,2.1807,2.1807,2.1807,2.1807,2.1807,2.1807,2.1807,2.1807,2.1807,2.1807,2.1776,2.1735,2.1735,2.1714,2.16,2.1238,2.0814,2.0369,1.9975,1.9561,1.9193,1.9075,1.9131,1.9131,1.9131,1.9131,1.9121,1.909,1.9058,1.8992,1.8516,1.8071,1.7688,1.7626,1.7605,1.7616,1.7605,1.7605,1.7492,1.7605,1.7349,1.6957,1.7256,1.7359,1.7016,1.7338,1.7554,1.7491,1.7063,1.6703,1.66,1.5027,1.4429,1.5205,1.4155,1.3492,1.3492,1.3499,1.3492,1.3506,1.3499,1.3521,1.3514,1.377,1.3938,1.3953,1.4231,1.4421,1.4428,1.4428,1.4421,1.4428,1.4193,1.4129,1.3987,1.3903,1.3691,1.348,1.3614,1.3544,1.3141,1.3258,1.316,1.2702,1.2466,1.2325,1.2238,1.2231,1.2231,1.2231,1.2077,1.1929,1.1706,1.1037,1.0288,0.9377,0.8618,0.7706,0.7249,0.6865,0.6865,0.6791,0.6791,0.6788,0.6637,0.649,0.6335,2.1807,2.1807,2.1807,2.1807,2.1807,2.1807,2.1807,2.1807,2.1807,2.1807,2.1807,2.1807,2.1807,2.1807,2.1807,2.1807,2.1807,2.1807,2.1807,2.1807,2.1807,2.1807,2.1776,2.1631,2.129,2.0824,2.0369,1.9924,1.951,1.921,1.9131,1.9131,1.9131,1.9131,1.9131,1.9131,1.9131,1.9131,1.8889,1.8702,1.8485,1.8009,1.7678,1.7678,1.7678,1.7678,1.7678,1.7678,1.7471,1.6951,1.7149,1.7269,1.7328,1.7219,1.7347,1.7563,1.6997,1.6594,1.6478,1.5384,1.4993,1.5635,1.4305,1.3492,1.3506,1.3675,1.3866,1.3784,1.3784,1.385,1.404,1.4194,1.4275,1.4318,1.456,1.475,1.4743,1.475,1.475,1.4743,1.4496,1.4394,1.4387,1.4308,1.4145,1.3981,1.4066,1.4024,1.374,1.3825,1.3705,1.3285,1.3049,1.281,1.2412,1.2305,1.2311,1.2305,1.2231,1.2083,1.1484,1.0657,0.9674,0.8912,0.808,0.7399,0.7019,0.6942,0.6865,0.6942,0.6865,0.6865,0.6788,0.6641,0.649,2.1807,2.1807,2.1807,2.1807,2.1807,2.1807,2.1807,2.1807,2.1807,2.1807,2.1807,2.1807,2.1807,2.1807,2.1807,2.1807,2.1807,2.1807,2.1807,2.1807,2.1807,2.1807,2.1807,2.1807,2.1559,2.1135,2.0783,2.0317,1.9799,1.9448,1.9199,1.9096,1.9131,1.9131,1.9131,1.9131,1.9131,1.9131,1.9131,1.9131,1.8971,1.8304,1.7838,1.7849,1.8039,1.8039,1.7838,1.7976,1.7765,1.7061,1.7179,1.7327,1.7292,1.7064,1.7062,1.7111,1.6446,1.6026,1.5956,1.5188,1.5039,1.5496,1.4333,1.355,1.377,1.4021,1.4234,1.4253,1.4245,1.4348,1.4421,1.4545,1.4596,1.4618,1.4889,1.5072,1.5079,1.5079,1.5079,1.5057,1.4911,1.4728,1.4743,1.4678,1.4612,1.4532,1.4591,1.459,1.4396,1.4345,1.4287,1.3794,1.3715,1.3365,1.2634,1.2452,1.2412,1.2311,1.2305,1.2003,1.1254,1.0276,0.9448,0.8841,0.7702,0.7173,0.7176,0.7099,0.7096,0.7019,0.7019,0.7022,0.6945,0.6795,0.6641,2.1807,2.1807,2.1807,2.1807,2.1807,2.1807,2.1807,2.1807,2.1807,2.1807,2.1807,2.1807,2.1807,2.1807,2.1807,2.1807,2.1807,2.1807,2.1807,2.1807,2.1807,2.1807,2.1807,2.1797,2.1569,2.1197,2.1073,2.0586,1.9869,1.9796,1.951,1.9162,1.9131,1.9131,1.9131,1.9131,1.9131,1.9131,1.9131,1.9131,1.9065,1.8546,1.8218,1.8208,1.8726,1.8675,1.8362,1.8726,1.8516,1.7375,1.7803,1.7707,1.6835,1.712,1.6922,1.6184,1.5251,1.4903,1.5125,1.4353,1.4183,1.5153,1.4281,1.3773,1.4336,1.452,1.4631,1.4845,1.4838,1.4779,1.4604,1.4787,1.4918,1.494,1.5196,1.5365,1.5394,1.5357,1.5409,1.5387,1.5328,1.5277,1.5335,1.522,1.5065,1.5065,1.5094,1.4993,1.477,1.4832,1.4732,1.4351,1.4135,1.3888,1.3033,1.2583,1.2477,1.214,1.1764,1.1855,1.118,1.0432,0.9604,0.8775,0.794,0.7484,0.7484,0.7484,0.7403,0.7326,0.7257,0.718,0.718,0.6868,0.6714,2.1807,2.1807,2.1807,2.1807,2.1807,2.1807,2.1807,2.1807,2.1807,2.1807,2.1807,2.1807,2.1807,2.1807,2.1807,2.1807,2.1807,2.1807,2.1807,2.1807,2.1807,2.1807,2.1807,2.1807,2.1735,2.1549,2.1248,2.0648,1.992,1.9827,1.952,1.9204,1.9131,1.9131,1.9131,1.9131,1.9131,1.9131,1.9131,1.9131,1.9096,1.8607,1.8124,1.7794,1.8259,1.8462,1.8347,1.8472,1.8192,1.7442,1.7295,1.7019,1.6673,1.6542,1.6333,1.585,1.507,1.4776,1.5062,1.4346,1.3996,1.4162,1.3843,1.4001,1.4834,1.5042,1.502,1.4955,1.5071,1.5174,1.5145,1.5189,1.5255,1.527,1.5357,1.5431,1.5431,1.5431,1.5431,1.5431,1.5431,1.5431,1.5431,1.5347,1.5264,1.5264,1.5264,1.5199,1.5141,1.5199,1.5148,1.4921,1.4743,1.444,1.3246,1.2557,1.1999,1.1276,1.0737,1.0338,0.9776,0.9661,0.8913,0.8317,0.7691,0.7577,0.7504,0.7484,0.748,0.7407,0.7257,0.7338,0.7411,0.7038,0.688,2.1807,2.1807,2.1807,2.1807,2.1807,2.1807,2.1807,2.1807,2.1807,2.1807,2.1807,2.1807,2.1807,2.1807,2.1807,2.1807,2.1807,2.1807,2.1807,2.1807,2.1807,2.1807,2.1807,2.1807,2.1807,2.1766,2.1507,2.0928,2.0286,2.0193,1.9965,1.9541,1.951,1.951,1.9499,1.9499,1.951,1.951,1.951,1.9442,1.9226,1.8676,1.812,1.7628,1.791,1.8045,1.8018,1.8202,1.7998,1.7442,1.6881,1.6542,1.6333,1.5982,1.57,1.5568,1.4999,1.4705,1.4944,1.4656,1.4197,1.359,1.3758,1.4285,1.526,1.5395,1.5272,1.516,1.5277,1.5431,1.5431,1.5423,1.5431,1.5431,1.5431,1.5431,1.5431,1.5431,1.5431,1.5431,1.5431,1.5431,1.5431,1.5431,1.5431,1.5431,1.5431,1.5431,1.5431,1.5431,1.5347,1.518,1.497,1.4296,1.3226,1.2314,1.1781,1.1021,1.0361,0.9611,0.9082,0.8864,0.8554,0.7939,0.7602,0.7553,0.7516,0.7492,0.7415,0.7269,0.7338,0.7423,0.7354,0.7215,0.7087,2.1859,2.1859,2.1818,2.189,2.188,2.1921,2.1869,2.1921,2.1859,2.188,2.1901,2.1828,2.1807,2.1807,2.1807,2.1807,2.1807,2.1807,2.1807,2.1807,2.1807,2.1807,2.1807,2.1807,2.1807,2.1807,2.1787,2.1538,2.1021,2.0885,2.0679,2.037,2.0154,2.0042,2.0308,2.0154,2.0277,2.0236,2.0205,1.9971,1.9528,1.887,1.8266,1.7777,1.7703,1.7669,1.7546,1.7988,1.792,1.742,1.6848,1.6351,1.6024,1.5669,1.5325,1.5375,1.4912,1.4681,1.4792,1.5064,1.468,1.417,1.4187,1.47,1.5491,1.5576,1.547,1.5462,1.5401,1.5431,1.5431,1.5431,1.5431,1.5431,1.5431,1.5431,1.5431,1.5431,1.5431,1.5431,1.5431,1.5431,1.5431,1.5431,1.5431,1.5431,1.5431,1.5431,1.5431,1.5431,1.5431,1.5166,1.4824,1.4092,1.3071,1.2032,1.1546,1.1017,1.0418,0.9752,0.9157,0.8912,0.8569,0.8006,0.7789,0.774,0.7356,0.7336,0.723,0.7148,0.7266,0.7364,0.7419,0.7307,0.7213,2.2863,2.2346,2.2625,2.2563,2.2346,2.2615,2.276,2.2708,2.2439,2.2283,2.2232,2.1942,2.1807,2.1807,2.1807,2.1807,2.1807,2.1807,2.1807,2.1807,2.1807,2.1807,2.1807,2.1807,2.1807,2.1807,2.1807,2.1569,2.1049,2.066,2.028,1.9773,1.936,1.9413,1.9805,1.9755,1.9981,2.0288,1.9991,1.9683,1.9393,1.8535,1.7933,1.771,1.771,1.7871,1.8241,1.7825,1.7463,1.725,1.6741,1.6422,1.6499,1.6419,1.6328,1.6336,1.5947,1.5955,1.6121,1.5837,1.5779,1.5817,1.5212,1.5285,1.6343,1.6409,1.6125,1.5929,1.5846,1.5756,1.5514,1.5431,1.5431,1.5431,1.5431,1.5431,1.5431,1.5431,1.5431,1.5431,1.5431,1.5431,1.5431,1.5431,1.5431,1.5431,1.5431,1.5431,1.5431,1.5347,1.5173,1.4817,1.4391,1.3886,1.2802,1.1997,1.1466,1.0872,1.0181,0.9703,0.9183,0.8761,0.8491,0.8193,0.8053,0.7748,0.7362,0.6998,0.6809,0.676,0.6704,0.6975,0.7415,0.7473,0.7331,2.3546,2.3018,2.2946,2.2713,2.242,2.2744,2.2868,2.2788,2.2793,2.276,2.2656,2.2263,2.2066,2.2025,2.189,2.1807,2.1807,2.1807,2.1807,2.1807,2.1807,2.1807,2.1807,2.1807,2.1645,2.1492,2.1492,2.1187,2.0677,2.0269,1.9924,1.9626,1.9522,1.9691,2.0034,2.0256,2.0477,2.0561,2.0192,1.9811,1.9297,1.8607,1.8082,1.7861,1.7852,1.8002,1.817,1.7626,1.7439,1.7542,1.6984,1.6687,1.6901,1.691,1.6918,1.6843,1.6683,1.6674,1.686,1.6571,1.6599,1.683,1.6301,1.604,1.6902,1.6892,1.6719,1.6425,1.617,1.6012,1.5673,1.5514,1.5431,1.5431,1.5431,1.5431,1.5431,1.5431,1.5431,1.5431,1.5431,1.5431,1.5431,1.5431,1.5431,1.5431,1.5431,1.5431,1.5347,1.5166,1.4741,1.4307,1.3802,1.3209,1.2528,1.1929,1.1419,1.0701,0.9994,0.9521,0.907,0.873,0.8381,0.8279,0.8126,0.7714,0.7323,0.6548,0.6201,0.6179,0.6309,0.6629,0.7105,0.7496,0.7442,2.3971,2.3805,2.2907,2.2513,2.2247,2.2483,2.2443,2.2254,2.2727,2.3012,2.2898,2.2388,2.2251,2.2247,2.1788,2.1655,2.1721,2.1807,2.1731,2.1731,2.1731,2.1807,2.1807,2.1731,2.1415,2.1021,2.0867,2.0605,2.0227,1.9993,1.9894,2.0042,2.041,2.0827,2.0814,2.1461,2.1303,2.1034,2.0854,2.0149,1.9149,1.8859,1.8612,1.8043,1.7946,1.7959,1.7857,1.7761,1.7902,1.8341,1.7508,1.7047,1.7021,1.6987,1.7064,1.7081,1.7004,1.697,1.709,1.726,1.7361,1.7113,1.7476,1.7711,1.7082,1.7196,1.713,1.6746,1.6492,1.6252,1.6087,1.5839,1.5597,1.5431,1.5431,1.5431,1.5431,1.5431,1.5431,1.5431,1.5431,1.5431,1.5431,1.5431,1.5431,1.5431,1.5431,1.5347,1.5173,1.4824,1.4475,1.3886,1.3209,1.2705,1.2112,1.1768,1.1343,1.0966,1.0282,0.9747,0.9221,0.8884,0.8541,0.8361,0.8195,0.7858,0.7315,0.6716,0.6195,0.6223,0.632,0.6473,0.687,0.7401,0.7533,2.4964,2.4268,2.3503,2.2944,2.2636,2.25,2.238,2.2284,2.2148,2.2369,2.2237,2.1396,2.1293,2.1278,2.1255,2.1108,2.1175,2.1568,2.1492,2.1252,2.1645,2.1807,2.1645,2.1328,2.1021,2.0779,2.0391,2.0294,2.0547,2.0138,2.0148,2.0615,2.0304,2.0459,2.0867,2.1098,2.1328,2.1339,2.0537,2.007,1.952,1.8665,1.8201,1.8031,1.8031,1.8221,1.8532,1.8602,1.8267,1.7846,1.7761,1.7661,1.7697,1.7697,1.7672,1.7672,1.7706,1.7723,1.774,1.7809,1.7797,1.7734,1.7861,1.7874,1.7716,1.7694,1.7621,1.7327,1.7074,1.691,1.6656,1.6409,1.6162,1.5922,1.5597,1.5431,1.5431,1.5431,1.5431,1.5431,1.5431,1.5431,1.5431,1.5431,1.5431,1.5431,1.5347,1.518,1.4824,1.4398,1.3971,1.3209,1.2534,1.2112,1.1774,1.1521,1.1262,1.117,1.0707,1.0255,0.9648,0.9131,0.879,0.8499,0.845,0.8115,0.7714,0.7208,0.684,0.6433,0.6461,0.673,0.7375,0.7876,0.7662,2.5575,2.4959,2.3714,2.3004,2.2553,2.2112,2.2072,2.2358,2.2303,2.2438,2.2559,2.165,2.1221,2.1144,2.0713,2.0469,2.0537,2.0857,2.0769,2.0615,2.0769,2.1098,2.1175,2.0779,2.0391,2.0167,1.9982,1.9991,2.0079,1.9913,2.0138,2.0382,2.0382,2.0547,2.0857,2.1185,2.1088,2.0924,2.0216,1.9668,1.9045,1.8425,1.8273,1.8273,1.8201,1.8201,1.8523,1.8514,1.824,1.7871,1.7912,1.8031,1.8031,1.8031,1.8031,1.8031,1.8031,1.8023,1.8031,1.8031,1.8031,1.7959,1.8002,1.8002,1.7968,1.8002,1.784,1.7725,1.7554,1.731,1.7066,1.682,1.6492,1.617,1.5839,1.5597,1.5431,1.5431,1.5431,1.5431,1.5431,1.5431,1.5431,1.5431,1.5431,1.5347,1.509,1.4831,1.4482,1.3977,1.3379,1.2619,1.2112,1.1693,1.1607,1.1348,1.1262,1.117,1.0906,1.0463,0.9864,0.9262,0.8911,0.8648,0.8652,0.848,0.7937,0.7489,0.7105,0.6815,0.6864,0.7037,0.7647,0.7964,0.7781,2.5885,2.5771,2.3597,2.2601,2.233,2.1485,2.1568,2.2242,2.2476,2.2879,2.3046,2.2426,2.1442,2.1232,2.0163,1.9816,1.9825,1.9982,1.9972,1.9904,1.9904,1.9991,2.0479,2.0079,1.9687,1.9381,1.9678,1.9599,1.9608,1.9835,2.006,2.0382,2.0857,2.0867,2.1021,2.1339,2.1011,2.0216,1.9835,1.9292,1.8585,1.8193,1.8282,1.8763,1.8442,1.8121,1.8121,1.8031,1.8014,1.8023,1.8031,1.8031,1.8031,1.8031,1.8031,1.8031,1.8031,1.8031,1.8031,1.8031,1.8031,1.804,1.804,1.8031,1.804,1.7968,1.7968,1.7959,1.7716,1.7554,1.7392,1.7066,1.6738,1.6417,1.6162,1.6012,1.5597,1.5431,1.5431,1.534,1.5347,1.5264,1.5173,1.5257,1.5257,1.4671,1.458,1.4398,1.3893,1.33,1.279,1.2283,1.1774,1.1354,1.1354,1.1267,1.1176,1.1084,1.0814,1.0376,0.9689,0.9174,0.9003,0.8828,0.8656,0.8388,0.8025,0.7577,0.7309,0.726,0.7403,0.7498,0.7676,0.788,0.7767,2.5885,2.5702,2.3448,2.2494,2.2189,2.1078,2.0918,2.1596,2.1701,2.2044,2.1912,2.109,2.043,1.9951,1.9494,1.9222,1.9222,1.9599,1.9894,1.9737,1.8816,1.8825,1.9301,1.9222,1.9371,1.9371,1.8736,1.9134,2.0001,2.0148,2.045,2.1328,2.1339,2.1328,2.1021,2.1021,2.0702,1.9982,1.945,1.9073,1.8763,1.8282,1.8362,1.8922,1.8843,1.8514,1.8112,1.8031,1.8031,1.8031,1.8031,1.8112,1.8031,1.8031,1.8031,1.8031,1.8031,1.8031,1.8031,1.8031,1.8031,1.8031,1.8031,1.8031,1.8031,1.8031,1.8031,1.8031,1.787,1.7797,1.7797,1.7797,1.731,1.682,1.682,1.6746,1.6087,1.5597,1.534,1.5159,1.4824,1.4405,1.399,1.4489,1.4405,1.3984,1.3899,1.3802,1.3294,1.2619,1.2198,1.1774,1.1607,1.1267,1.1267,1.1267,1.1176,1.1084,1.0814,1.0376,0.9777,0.9262,0.9087,0.8828,0.8656,0.8388,0.8116,0.8197,0.8017,0.8012,0.7916,0.7885,0.7862,0.792,0.7862,2.5571,2.4946,2.3192,2.2217,2.1845,2.0989,2.0837,2.1373,2.159,2.1649,2.1465,2.0668,1.9931,1.9461,1.886,1.8523,1.8594,1.8816,1.8966,1.8886,1.8273,1.8201,1.8442,1.8514,1.8745,1.8975,1.9054,1.9599,2.0226,2.0702,2.1175,2.1721,2.1807,2.1405,2.0944,2.0867,2.0391,1.9608,1.9222,1.8843,1.8523,1.8523,1.8523,1.8993,1.9222,1.8975,1.8112,1.8031,1.8031,1.804,1.8282,1.8282,1.8031,1.8031,1.8031,1.8031,1.8031,1.8031,1.8031,1.8031,1.8031,1.8031,1.8031,1.8031,1.8031,1.8031,1.8031,1.8031,1.8031,1.8031,1.8031,1.8031,1.7627,1.731,1.7229,1.7147,1.6656,1.5831,1.5242,1.4977,1.4482,1.3984,1.373,1.3815,1.3815,1.3568,1.313,1.3039,1.279,1.2198,1.1768,1.1516,1.1435,1.1267,1.1267,1.1267,1.1262,1.1084,1.0819,1.0467,0.9864,0.9428,0.9082,0.8836,0.8593,0.8572,0.8476,0.8556,0.8499,0.8299,0.8106,0.8094,0.803,0.7859,0.7762,2.5147,2.4078,2.2928,2.205,2.1391,2.1031,2.1076,2.1453,2.1714,2.1671,2.1437,2.0583,1.9847,1.9215,1.8438,1.8049,1.8031,1.8031,1.8184,1.8193,1.8112,1.8112,1.8282,1.8193,1.8353,1.8353,1.9134,1.9756,2.0459,2.1088,2.1492,2.1731,2.1655,2.1252,2.0867,2.0557,1.9923,1.8993,1.9002,1.8834,1.8514,1.8834,1.9063,1.9073,1.9301,1.9054,1.8273,1.8031,1.8031,1.8193,1.8683,1.8683,1.8434,1.8193,1.804,1.8031,1.8031,1.8031,1.8031,1.8031,1.8031,1.8031,1.8031,1.8031,1.8031,1.8031,1.8031,1.8031,1.8031,1.8031,1.8031,1.8031,1.7797,1.7473,1.7392,1.7473,1.7147,1.6057,1.522,1.4887,1.4139,1.3385,1.3222,1.3137,1.3143,1.3143,1.2619,1.2277,1.2112,1.186,1.1516,1.1348,1.1354,1.1267,1.1267,1.1267,1.1176,1.0992,1.0814,1.0386,0.9946,0.9515,0.9178,0.887,0.8617,0.8597,0.8556,0.8515,0.8438,0.8316,0.8154,0.8004,0.7877,0.78,0.7646,2.4696,2.4078,2.2928,2.205,2.1436,2.1364,2.1364,2.1427,2.1444,2.1244,2.0907,2.0431,1.964,1.8846,1.8293,1.8057,1.81,1.8066,1.8031,1.8031,1.804,1.8201,1.8594,1.8353,1.8585,1.9283,1.952,1.9923,2.0867,2.1262,2.1252,2.1568,2.1262,2.0702,2.0157,1.9618,1.9143,1.8674,1.8763,1.8834,1.8993,1.9292,1.945,1.9152,1.9231,1.8834,1.8273,1.8031,1.8273,1.8754,1.8922,1.9222,1.9292,1.9063,1.8594,1.8193,1.8031,1.8031,1.8031,1.8031,1.8031,1.8031,1.8031,1.8031,1.8031,1.8031,1.8031,1.8031,1.8031,1.8031,1.8031,1.8031,1.7797,1.7635,1.7635,1.7708,1.7221,1.6131,1.5047,1.4796,1.388,1.2881,1.2711,1.2546,1.2546,1.246,1.2198,1.1854,1.1688,1.1521,1.1348,1.1267,1.1267,1.1267,1.1267,1.1267,1.1176,1.0814,1.0554,1.0125,0.9777,0.9519,0.9196,0.8835,0.8658,0.8617,0.8568,0.8503,0.8341,0.8191,0.8004,0.7821,0.7801,0.7733,0.7589,2.3988,2.3221,2.2656,2.205,2.1535,2.1793,2.1436,2.0907,2.1168,2.0962,2.0386,2.0043,1.9582,1.9015,1.8733,1.8537,1.8323,1.81,1.8049,1.8031,1.804,1.8362,1.8913,1.8594,1.9134,1.9599,1.9678,1.9766,2.0702,2.0537,2.0779,2.1021,2.0702,2.0216,1.9835,1.9381,1.8834,1.8603,1.8834,1.9222,1.946,1.9835,1.9678,1.9529,1.9152,1.8834,1.8603,1.8523,1.8834,1.9371,1.9766,1.9913,1.9825,1.959,1.9134,1.8594,1.8201,1.8031,1.8031,1.8031,1.8031,1.8031,1.8031,1.8031,1.8031,1.8031,1.8031,1.8031,1.8031,1.8031,1.8031,1.8031,1.7878,1.7797,1.7878,1.787,1.7375,1.6124,1.5379,1.4706,1.3542,1.2619,1.2037,1.1866,1.1866,1.178,1.1693,1.1521,1.1267,1.1267,1.1267,1.1267,1.1267,1.1267,1.1267,1.1267,1.1084,1.0727,1.0463,1.0033,0.9607,0.9262,0.9093,0.8845,0.8723,0.8625,0.8593,0.8528,0.83,0.8093,0.7996,0.7882,0.772,0.7604,0.7568,2.3595,2.258,2.2677,2.2138,2.1624,2.2129,2.1606,2.0645,2.0907,2.0615,1.9778,1.971,1.9504,1.9213,1.9033,1.8845,1.8562,1.8263,1.8143,1.8057,1.8305,1.8709,1.9002,1.9152,1.9381,2.007,1.9362,1.9747,2.0226,2.006,2.0294,2.0547,2.0148,1.9756,1.9529,1.9231,1.9082,1.9073,1.9301,1.9687,2.0148,2.0148,1.9982,1.9816,1.9301,1.9002,1.8922,1.8922,1.939,2.0001,2.0459,2.0702,2.0294,2.0051,1.9668,1.9134,1.8434,1.8112,1.8031,1.8031,1.8031,1.8031,1.8031,1.8031,1.8031,1.8031,1.8031,1.8031,1.8031,1.8031,1.8031,1.8031,1.7959,1.7959,1.7959,1.787,1.7294,1.6378,1.5213,1.4378,1.3203,1.2448,1.1866,1.178,1.1866,1.1607,1.1521,1.1521,1.1267,1.1267,1.1267,1.1267,1.1267,1.1267,1.1267,1.1267,1.1084,1.0727,1.0463,1.012,0.9602,0.9087,0.8928,0.882,0.8674,0.8589,0.8572,0.8532,0.8329,0.8166,0.8069,0.7963,0.7845,0.776,0.7648,2.387,2.3406,2.3319,2.2608,2.1624,2.2138,2.1606,2.0382,2.0473,2.0176,1.9744,1.9744,1.9573,1.9247,1.8853,1.8674,1.8596,1.8594,1.8404,1.8331,1.8903,1.9353,1.9664,1.9231,1.9618,2.007,1.9054,1.9371,2.0001,1.9982,2.0148,2.0391,1.9618,1.9152,1.9222,1.9073,1.9002,1.9231,2.0089,2.0944,2.1252,2.1011,2.0459,1.9913,1.945,1.9161,1.9231,1.9311,1.9696,2.0624,2.0857,2.1175,2.1252,2.045,1.9982,1.9432,1.8816,1.8031,1.8112,1.8112,1.8112,1.8112,1.8031,1.8031,1.8031,1.8031,1.8031,1.8031,1.8031,1.8031,1.8031,1.8031,1.8031,1.8031,1.8031,1.7538,1.6952,1.6296,1.522,1.4294,1.3203,1.2454,1.1866,1.1866,1.1866,1.1527,1.1267,1.1267,1.1267,1.1267,1.1267,1.1267,1.1267,1.1267,1.1267,1.1267,1.0997,1.0641,1.0381,1.012,0.9432,0.8911,0.8911,0.8777,0.8656,0.8597,0.8625,0.8544,0.8361,0.8239,0.8146,0.8073,0.8,0.7845,0.7749,2.4262,2.3503,2.3038,2.2501,2.1961,2.1872,2.1266,2.0464,2.0283,2.0086,1.9838,1.9975,1.9949,1.9684,1.9204,1.893,1.8963,1.9134,1.9106,1.8965,1.9407,1.9887,2.0094,1.9729,1.9835,1.9539,1.945,1.9213,1.9687,1.9292,1.9134,1.9618,1.8993,1.8674,1.9002,1.9002,1.9222,1.9766,2.0702,2.1492,2.1568,2.1252,2.0779,2.0459,1.9835,1.9766,1.9932,2.0089,2.0479,2.1262,2.1415,2.1492,2.1568,2.1011,2.0459,2.0382,1.959,1.8975,1.8674,1.8603,1.8523,1.8442,1.8273,1.8031,1.8031,1.8031,1.8031,1.8031,1.8031,1.8031,1.8031,1.8031,1.8031,1.8031,1.8031,1.7367,1.6706,1.5884,1.5054,1.4132,1.3294,1.254,1.1952,1.1952,1.178,1.144,1.1267,1.1267,1.1267,1.1267,1.1267,1.1267,1.1267,1.1267,1.1267,1.1267,1.0829,1.0472,1.0207,0.9864,0.9174,0.8828,0.874,0.874,0.8656,0.8609,0.867,0.8593,0.8442,0.8329,0.8227,0.8195,0.815,0.7927,0.7797,2.4861,2.4013,2.3115,2.258,2.2306,2.1704,2.0997,2.0382,2.0292,2.0138,2.0009,2.0155,2.0275,2.0155,1.9624,1.9256,1.9221,1.9556,1.9511,1.9513,1.9834,2.0162,2.0093,1.9893,1.9608,1.9002,1.9063,1.9054,1.8665,1.8434,1.8434,1.8922,1.8442,1.8442,1.8922,1.9311,1.9687,2.0682,2.1482,2.1959,2.1873,2.1558,2.1175,2.0857,2.0537,2.0382,2.0789,2.0867,2.1098,2.1655,2.1731,2.1731,2.1655,2.1175,2.0867,2.0702,2.0216,1.9913,1.9539,1.9231,1.9082,1.8843,1.8434,1.8031,1.8031,1.8031,1.8031,1.8031,1.8031,1.8031,1.8031,1.8031,1.8031,1.8031,1.7951,1.7286,1.6624,1.5801,1.4803,1.3626,1.2954,1.2625,1.2123,1.2037,1.1785,1.144,1.1267,1.1267,1.1267,1.1267,1.1267,1.1267,1.1267,1.1267,1.1267,1.1181,1.0743,1.0477,1.0212,0.9777,0.9174,0.8828,0.8656,0.8656,0.8572,0.8584,0.8621,0.8576,0.8532,0.845,0.8385,0.8369,0.828,0.8052,0.7841,2.5812,2.5559,2.41,2.3038,2.2394,2.1704,2.0997,2.0382,2.0292,2.0266,2.0206,2.0283,2.0292,2.018,1.9864,1.9478,1.9213,1.9521,1.947,1.9623,2.0061,2.0283,2.0088,1.9737,1.952,1.8913,1.8754,1.8434,1.8112,1.8112,1.8442,1.8843,1.8362,1.8523,1.8993,1.9687,2.0547,2.1471,2.2101,2.2176,2.2252,2.2014,2.1787,2.1098,2.0867,2.0867,2.0944,2.1021,2.1175,2.1807,2.1807,2.1807,2.1655,2.1339,2.1098,2.1021,2.0934,2.0702,2.0479,1.9696,1.9082,1.8843,1.8434,1.8031,1.8031,1.8031,1.8031,1.8031,1.8031,1.8031,1.8031,1.8031,1.8031,1.8031,1.7789,1.7041,1.6378,1.5801,1.472,1.3288,1.2619,1.2454,1.2209,1.2037,1.1785,1.1354,1.1267,1.1267,1.1267,1.1267,1.1267,1.1267,1.1267,1.1267,1.1267,1.1089,1.0911,1.0646,1.0294,0.9864,0.9345,0.9003,0.8744,0.8572,0.8572,0.8572,0.8572,0.856,0.8556,0.856,0.8532,0.8467,0.8446,0.8321,0.807,2.6135,2.5812,2.4744,2.379,2.2911,2.2129,2.1266,2.0555,2.0382,2.0292,2.0292,2.0292,2.0292,2.0189,1.9932,1.9675,1.9634,2.0166,2.0095,2.0098,2.0313,2.0252,1.9898,1.9408,1.8984,1.8594,1.8442,1.8362,1.804,1.8112,1.8121,1.8282,1.8594,1.9063,1.9529,2.0148,2.1088,2.1721,2.2111,2.2025,2.2025,2.2025,2.1873,2.1568,2.1415,2.1492,2.1492,2.1492,2.1568,2.1721,2.1807,2.1807,2.1807,2.1492,2.1415,2.1415,2.1415,2.1415,2.1175,2.0235,1.9292,1.8442,1.8112,1.8031,1.8031,1.8031,1.8031,1.8031,1.8031,1.8031,1.8031,1.8031,1.8031,1.8031,1.7619,1.696,1.6214,1.5636,1.4636,1.3203,1.2705,1.2454,1.2203,1.2043,1.1699,1.144,1.1354,1.1267,1.1267,1.1267,1.1267,1.1267,1.1267,1.1267,1.1267,1.1176,1.1084,1.0819,1.0467,1.0033,0.9602,0.9349,0.9091,0.8832,0.8572,0.8572,0.8572,0.8572,0.8568,0.8568,0.8544,0.8499,0.8499,0.8503,0.8455,2.655,2.6229,2.5757,2.4713,2.3347,2.2385,2.1507,2.0744,2.0382,2.0292,2.0292,2.0292,2.0292,2.0206,2.0052,1.9989,2.0219,2.0615,2.0674,2.0621,2.0519,2.0186,1.9713,1.9245,1.8754,1.8273,1.8603,1.8683,1.804,1.8353,1.8656,1.8895,1.9213,1.9766,1.9913,2.0769,2.1558,2.2176,2.2187,2.2176,2.2176,2.2176,2.1959,2.1883,2.1731,2.1731,2.1731,2.1731,2.1731,2.1807,2.1807,2.1807,2.1807,2.1807,2.1807,2.1807,2.1807,2.1807,2.1492,2.0615,1.9353,1.8273,1.8031,1.8031,1.8031,1.8031,1.8031,1.8031,1.8031,1.8031,1.8031,1.8031,1.8031,1.8031,1.8031,1.7375,1.6378,1.5553,1.4378,1.3124,1.3124,1.3379,1.2283,1.1946,1.1607,1.1348,1.1354,1.1267,1.1267,1.1267,1.1267,1.1267,1.1267,1.1267,1.1267,1.1262,1.117,1.1084,1.0733,1.0207,0.9864,0.9607,0.9174,0.8744,0.8572,0.8572,0.8568,0.8656,0.8656,0.8572,0.8632,0.8607,0.8442,0.8521,0.8767,2.7149,2.7149,2.7056,2.5673,2.3511,2.2385,2.1606,2.0916,2.0564,2.0382,2.0464,2.0464,2.0473,2.0456,2.0477,2.0588,2.0774,2.1094,2.1116,2.0683,2.0736,2.0089,1.935,1.8841,1.8683,1.8362,1.8523,1.8514,1.8112,1.8895,1.9432,1.9825,2.0148,2.0537,2.0138,2.1175,2.2402,2.3298,2.3001,2.2927,2.2852,2.2777,2.2338,2.2035,2.1807,2.1807,2.1807,2.1807,2.1807,2.1883,2.1807,2.1807,2.1883,2.1807,2.1807,2.1807,2.1807,2.1807,2.1645,2.0537,1.9362,1.8273,1.8031,1.8031,1.8031,1.8031,1.8031,1.8031,1.8031,1.8031,1.8031,1.8031,1.8031,1.8031,1.8031,1.7619,1.6542,1.5959,1.4873,1.3957,1.4468,1.4636,1.3033,1.1935,1.1596,1.1343,1.1348,1.1267,1.1267,1.1267,1.1267,1.1267,1.1267,1.1267,1.1267,1.1267,1.1267,1.1176,1.0911,1.0559,1.012,0.9864,0.9432,0.8828,0.8915,0.9174,0.8915,0.8652,0.8911,0.9165,0.8915,0.8794,0.8525,0.8734,0.9275,2.7231,2.7231,2.7231,2.6362,2.4893,2.3846,2.2902,2.2031,2.1516,2.1177,2.1177,2.1436,2.1436,2.1257,2.1418,2.1496,2.1246,2.1469,2.1332,2.1183,2.0967,2.0163,1.9462,1.9039,1.8683,1.8282,1.8282,1.8754,1.8683,1.945,1.9678,1.9982,2.0914,2.1385,2.17,2.2327,2.2927,2.315,2.3075,2.3001,2.299,2.2777,2.2478,2.2176,2.1949,2.1883,2.1883,2.1883,2.2035,2.2101,2.2025,2.1949,2.2035,2.2025,2.1807,2.1807,2.1807,2.1339,2.0857,1.9982,1.9362,1.8505,1.8031,1.8031,1.8031,1.8031,1.8031,1.8031,1.8031,1.8031,1.8031,1.8031,1.8031,1.8031,1.787,1.7448,1.6788,1.6617,1.6034,1.5213,1.5228,1.4803,1.362,1.2693,1.2186,1.1596,1.1521,1.1348,1.1348,1.1267,1.1267,1.1267,1.1267,1.1267,1.1267,1.1267,1.1267,1.1267,1.1176,1.0911,1.0559,1.0294,1.0115,0.9946,0.9859,0.9864,0.9607,0.9432,0.9671,0.9753,0.9767,0.9864,0.9885,1.0115,1.057,2.7231,2.7231,2.7231,2.688,2.6174,2.5073,2.3953,2.2911,2.2394,2.205,2.1872,2.2227,2.2129,2.1924,2.1989,2.2282,2.1895,2.1855,2.1642,2.1649,2.1168,2.041,1.9774,1.9448,1.924,1.8745,1.8895,1.9292,1.9599,1.9844,2.0382,2.0991,2.1538,2.2231,2.2703,2.2927,2.315,2.3298,2.3446,2.3224,2.315,2.3001,2.2703,2.2478,2.2252,2.2176,2.2101,2.2176,2.2327,2.2478,2.2402,2.2252,2.2327,2.2176,2.1959,2.1883,2.1873,2.1328,2.0605,2.0294,1.958,1.8221,1.8103,1.8121,1.804,1.8121,1.8121,1.8121,1.8031,1.8112,1.8112,1.8112,1.8031,1.8031,1.787,1.7448,1.7115,1.6862,1.6698,1.5966,1.5966,1.5296,1.4455,1.362,1.2942,1.2277,1.1688,1.1516,1.1348,1.1348,1.1354,1.144,1.1354,1.1354,1.1354,1.1267,1.1267,1.1267,1.1348,1.1343,1.1251,1.0987,1.0977,1.0971,1.089,1.0727,1.0391,1.0304,1.0594,1.0829,1.1047,1.1144,1.1322,1.1408,1.158,2.7231,2.7231,2.7231,2.7149,2.6974,2.6008,2.4638,2.3173,2.3153,2.2872,2.2444,2.2503,2.2436,2.2301,2.2016,2.2149,2.2467,2.2188,2.2006,2.1689,2.1471,2.08,2.0301,2.001,1.9904,2.006,2.0294,2.0362,2.0585,2.1078,2.1711,2.2166,2.2467,2.3001,2.3224,2.3372,2.353,2.3751,2.3751,2.3677,2.3604,2.3446,2.3075,2.2777,2.2628,2.2542,2.2553,2.2628,2.2852,2.3001,2.2938,2.2777,2.2553,2.2402,2.2187,2.2111,2.2262,2.17,2.0914,2.0682,1.9806,1.8461,1.8336,1.8264,1.829,1.8379,1.8371,1.8362,1.8282,1.8282,1.8282,1.8201,1.8031,1.8031,1.8031,1.7619,1.7204,1.6952,1.6878,1.6878,1.7294,1.687,1.5861,1.4942,1.386,1.2863,1.2277,1.194,1.1774,1.1348,1.1435,1.1607,1.1607,1.1521,1.1521,1.178,1.1866,1.2118,1.1952,1.186,1.1768,1.1849,1.2009,1.2009,1.1843,1.1785,1.1777,1.1647,1.1581,1.1886,1.233,1.226,1.2357,1.21,1.2186,2.7231,2.7231,2.7231,2.7231,2.7149,2.688,2.5589,2.3932,2.3649,2.3402,2.3158,2.3358,2.2964,2.231,2.2908,2.2778,2.2551,2.2372,2.2369,2.2104,2.1781,2.1248,2.0974,2.0847,2.075,2.0663,2.0884,2.1354,2.1669,2.2166,2.2262,2.2402,2.2852,2.3224,2.3519,2.3751,2.397,2.4055,2.4043,2.397,2.3824,2.3593,2.3298,2.315,2.2852,2.2852,2.2927,2.3001,2.315,2.3372,2.315,2.299,2.3298,2.3001,2.2703,2.2703,2.2628,2.2306,2.1155,2.0837,2.0129,1.8957,1.8674,1.8887,1.8825,1.8727,1.8612,1.8531,1.8451,1.8531,1.8442,1.8362,1.8201,1.8121,1.8121,1.787,1.7538,1.7456,1.7375,1.7456,1.787,1.7538,1.6609,1.6108,1.5025,1.3776,1.2948,1.2613,1.2198,1.1774,1.1774,1.1946,1.2118,1.2118,1.2546,1.2802,1.2802,1.2887,1.2631,1.2546,1.2796,1.296,1.3039,1.3174,1.3083,1.3349,1.3616,1.338,1.2786,1.3306,1.3741,1.3553,1.33,1.3045,1.2954,2.7231,2.7231,2.7231,2.7231,2.7196,2.7013,2.6155,2.5078,2.4759,2.4331,2.3659,2.3752,2.3361,2.2747,2.3023,2.2889,2.2302,2.2124,2.2113,2.2041,2.1952,2.1783,2.1645,2.1711,2.1766,2.1593,2.1735,2.2209,2.2521,2.2756,2.2927,2.2927,2.315,2.3446,2.3813,2.4043,2.4116,2.42,2.4189,2.4189,2.397,2.3677,2.3677,2.353,2.3161,2.3224,2.3224,2.3298,2.3593,2.3813,2.3519,2.3446,2.3593,2.3224,2.315,2.315,2.315,2.2531,2.1527,2.1221,2.0304,1.9469,1.9002,1.9109,1.9118,1.894,1.8851,1.8772,1.8692,1.8692,1.8603,1.8523,1.8442,1.829,1.8201,1.8121,1.804,1.804,1.7959,1.7951,1.787,1.77,1.7286,1.6862,1.6281,1.5115,1.4203,1.3535,1.2954,1.2363,1.2454,1.2711,1.2796,1.2881,1.3307,1.3568,1.3483,1.3313,1.3143,1.3228,1.3646,1.3808,1.3893,1.413,1.4502,1.4583,1.4643,1.4353,1.4096,1.4509,1.46,1.4325,1.3984,1.3822,1.3815,2.7231,2.7231,2.7231,2.7185,2.7093,2.668,2.6427,2.6335,2.57,2.5043,2.3966,2.3753,2.3471,2.2853,2.277,2.2604,2.223,2.1989,2.1932,2.1828,2.2001,2.1959,2.2176,2.2478,2.2617,2.2927,2.3075,2.3054,2.3361,2.3446,2.3372,2.3593,2.3519,2.374,2.4043,2.4116,2.4189,2.4189,2.4189,2.42,2.42,2.4127,2.4043,2.3751,2.3824,2.3897,2.3824,2.3897,2.4189,2.4189,2.4116,2.397,2.3666,2.3446,2.3446,2.3372,2.3446,2.2681,2.1907,2.1451,2.0615,1.9766,1.9292,1.9311,1.9161,1.9161,1.9082,1.9002,1.8922,1.8922,1.8843,1.8763,1.8692,1.8531,1.8451,1.8362,1.8282,1.8121,1.8031,1.8031,1.7951,1.7789,1.77,1.7277,1.6862,1.6116,1.5448,1.4622,1.3957,1.3288,1.3209,1.347,1.347,1.3639,1.3899,1.4075,1.3906,1.3737,1.3737,1.3906,1.4405,1.4573,1.4657,1.4845,1.5047,1.5221,1.523,1.5109,1.5014,1.4966,1.5026,1.4846,1.4671,1.4419,1.4328,2.7231,2.7231,2.7231,2.7013,2.6657,2.6519,2.598,2.5302,2.5215,2.4777,2.4216,2.3565,2.3027,2.2706,2.2652,2.2392,2.1994,2.2074,2.1828,2.1959,2.2111,2.2327,2.2553,2.3001,2.3298,2.353,2.3677,2.374,2.3666,2.3666,2.3593,2.3593,2.3666,2.3886,2.4189,2.4189,2.4189,2.4189,2.4189,2.4189,2.42,2.397,2.3751,2.3824,2.397,2.397,2.397,2.4116,2.4189,2.4189,2.4189,2.4116,2.4032,2.3959,2.397,2.3982,2.3519,2.2681,2.1993,2.1308,2.0382,1.9756,1.9292,1.9292,1.9292,1.9222,1.9222,1.9231,1.9152,1.9073,1.9082,1.9011,1.8931,1.8772,1.8692,1.8523,1.8442,1.8201,1.8031,1.8031,1.8031,1.7951,1.7951,1.77,1.7286,1.6862,1.6363,1.5786,1.5296,1.4636,1.43,1.4391,1.423,1.4314,1.4573,1.4748,1.458,1.4587,1.4671,1.4922,1.509,1.509,1.502,1.5283,1.5476,1.5734,1.5846,1.5896,1.5846,1.5616,1.5261,1.5064,1.4936,1.4664,1.4657,2.7231,2.7196,2.6978,2.6726,2.6416,2.598,2.5429,2.4946,2.4694,2.4528,2.4231,2.361,2.3102,2.2713,2.269,2.2503,2.2122,2.2262,2.2252,2.2252,2.2478,2.2767,2.3075,2.3372,2.3666,2.3897,2.4043,2.4043,2.3897,2.3897,2.3897,2.3824,2.3897,2.397,2.4189,2.4189,2.4189,2.4189,2.4189,2.4189,2.4189,2.4043,2.397,2.4055,2.4055,2.4055,2.4055,2.4189,2.4189,2.4189,2.4189,2.4189,2.4189,2.4116,2.4189,2.397,2.3446,2.2606,2.1842,2.0914,2.0148,1.9529,1.9292,1.9292,1.9292,1.9301,1.9301,1.9222,1.9222,1.9222,1.9231,1.9152,1.9152,1.9073,1.8843,1.8683,1.8514,1.8273,1.8112,1.8031,1.8031,1.8031,1.7951,1.7951,1.7619,1.7538,1.7123,1.6788,1.6304,1.5891,1.556,1.5401,1.5228,1.5159,1.5416,1.5506,1.5423,1.5514,1.5431,1.5347,1.5264,1.5347,1.5398,1.5616,1.5893,1.6235,1.6306,1.6357,1.627,1.6132,1.5626,1.5184,1.5014,1.4943,1.5013,2.707,2.6978,2.6542,2.6313,2.614,2.5325,2.4889,2.474,2.4395,2.4212,2.4173,2.3869,2.3457,2.3224,2.3001,2.2767,2.2628,2.2703,2.2628,2.2692,2.2927,2.315,2.3372,2.3666,2.3897,2.4043,2.42,2.42,2.4116,2.4116,2.4116,2.4189,2.4189,2.4189,2.4189,2.4189,2.4189,2.4189,2.4189,2.4189,2.4189,2.4189,2.42,2.42,2.4189,2.4189,2.4189,2.4189,2.4189,2.4189,2.4189,2.4189,2.4189,2.4189,2.397,2.3751,2.315,2.2306,2.1538,2.0682,1.9991,1.945,1.9371,1.9292,1.9292,1.9292,1.9292,1.9292,1.9292,1.9292,1.9301,1.9301,1.9301,1.9222,1.9073,1.8913,1.8674,1.8434,1.8273,1.8112,1.8112,1.8112,1.8031,1.8031,1.804,1.7959,1.7806,1.7563,1.7229,1.6812,1.6476,1.6312,1.6229,1.6245,1.6252,1.6004,1.5839,1.568,1.5597,1.5514,1.5431,1.5431,1.5555,1.584,1.614,1.644,1.666,1.6748,1.6623,1.6573,1.6126,1.5727,1.5503,1.543,1.542,2.637,2.5991,2.5888,2.5624,2.5222,2.4981,2.4694,2.4361,2.4258,2.4189,2.4189,2.4116,2.3897,2.3446,2.315,2.2927,2.2927,2.3075,2.3001,2.3001,2.3298,2.3519,2.3666,2.3897,2.4116,2.4189,2.4189,2.4189,2.4189,2.4189,2.4189,2.4189,2.4189,2.4189,2.4189,2.4189,2.4189,2.4189,2.4189,2.4189,2.4189,2.4189,2.4189,2.4189,2.4189,2.4189,2.4189,2.4189,2.4189,2.4189,2.4189,2.4189,2.4189,2.4116,2.3897,2.3361,2.2692,2.1842,2.1001,2.0226,1.9539,1.9371,1.9292,1.9292,1.9292,1.9292,1.9292,1.9292,1.9292,1.9292,1.9292,1.9292,1.9292,1.9222,1.9073,1.9002,1.8843,1.8594,1.8434,1.8353,1.8362,1.8282,1.8121,1.8121,1.8201,1.8121,1.7959,1.7716,1.7554,1.7392,1.7229,1.7229,1.7147,1.6894,1.6648,1.6245,1.6079,1.5839,1.5756,1.568,1.5597,1.5431,1.5606,1.6208,1.6381,1.6655,1.6854,1.7318,1.7115,1.6966,1.6766,1.6411,1.6043,1.5738,1.572]},{"header":{"parameterUnit":"m.s-1","parameterCategory":1,"la1":31.0,"la2":29.5877,"lo1":-88.7671,"lo2":-86.6584,"dy":0.0162,"dx":0.0185,"nx":115,"ny":88,"refTime":"2024-07-30T00:00:00:Z","depth":0,"parameterNumber":3,"parameterNumberName":"V-component_of_WINDS"},"data":[0.0,0.0,0.0,0.0,0.0,0.0,0.0,0.0,0.0,0.0,0.0,0.0,0.0,0.0,0.0,0.0,0.0,0.0,0.0,0.0,0.0,0.0,0.0,0.0,0.0,0.0,0.0,0.0,0.0,0.0,0.0,0.0,0.0,0.0,0.0,0.0,0.0,0.0,0.0,0.0,0.0,0.0,0.0,0.0,0.0,0.0,0.0,0.0,0.0,0.0,0.0,0.0,0.0,0.0,0.0,0.0,0.0,0.0,0.0,0.0,0.0,0.0,0.0,0.0,0.0,0.0,0.0,0.0,0.0,0.0,0.0,0.0,0.0,0.0,0.0,0.0,0.0,0.0,0.0,0.0,0.0,0.0,0.0,0.0,0.0,0.0,0.0,0.0,0.0,0.0,0.0,0.0,0.0,0.0,0.0,0.0,0.0,0.0,0.0,0.0,0.0,0.0,0.0,0.0,0.0,0.0,0.0,0.0,0.0,0.0,0.0,0.0,0.0,0.0,0.0,0.0,0.0,0.0,0.0,0.0,0.0,0.0,0.0,0.0,0.0,0.0,0.0,0.0,0.0,0.0,0.0,0.0,0.0,0.0,0.0,0.0,0.0,0.0,0.0,0.0,0.0,0.0,0.0,0.0,0.0,0.0,0.0,0.0,0.0,0.0,0.0,0.0,0.0,0.0,0.0,0.0,0.0,0.0,0.0,0.0,0.0,0.0,0.0,0.0,0.0,0.0,0.0,0.0,0.0,0.0,0.0,0.0,0.0,0.0,0.0,0.0,0.0,0.0,0.0,0.0,0.0,0.0,0.0,0.0,0.0,0.0,0.0,0.0,0.0,0.0,0.0,0.0,0.0,0.0,0.0,0.0,0.0,0.0,0.0,0.0,0.0,0.0,0.0,0.0,0.0,0.0,0.0,0.0,0.0,0.0,0.0,0.0,0.0,0.0,0.0,0.0,0.0,0.0,0.0,0.0,0.0,0.0,0.0,0.0,0.0,0.0,0.0,0.0,0.0,0.0,0.0,0.0,0.0,0.0,0.0,0.0,0.0,0.0,0.0,0.0,0.0,0.0,0.0,0.0,0.0,0.0,0.0,0.0,0.0,0.0,0.0,0.0,0.0,0.0,0.0,0.0,0.0,0.0,0.0,0.0,0.0,0.0,0.0,0.0,0.0,0.0,0.0,0.0,0.0,0.0,0.0,0.0,0.0,0.0,0.0,0.0,0.0,0.0,0.0,0.0,0.0,0.0,0.0,0.0,0.0,0.0,0.0,0.0,0.0,0.0,0.0,0.0,0.0,0.0,0.0,0.0,0.0,0.0,0.0,0.0,0.0,0.0,0.0,0.0,0.0,0.0,0.0,0.0,0.0,0.0,0.0,0.0,0.0,0.0,0.0,0.0,0.0,0.0,0.0,0.0,0.0,0.0,0.0,0.0,0.0,0.0,0.0,0.0,0.0,0.0,0.0,0.0,0.0,0.0,0.0,0.0,0.0,0.0,0.0,0.0,0.0,0.0,0.0,0.0,0.0,0.0,0.0,0.0,0.0,0.0,0.0,0.0,0.0,0.0,0.0,0.0,0.0,0.0,0.0,0.0,0.0,0.0,0.0,0.0,0.0,0.0,0.0,0.0,0.0,0.0,0.0,0.0,0.0,0.0,0.0,0.0,0.0,0.0,0.0,0.0,0.0,0.0,0.0,0.0,0.0,0.0,0.0,0.0,0.0,0.0,0.0,0.0,0.0,0.0,0.0,0.0,0.0,0.0,0.0,0.0,0.0,0.0,0.0,0.0,0.0,0.0,0.0,0.0,0.0,0.0,0.0,0.0,0.0,0.0,0.0,0.0,0.0,0.0,0.0,0.0,0.0,0.0,0.0,0.0,0.0,0.0,0.0,0.0,0.0,0.0,0.0,0.0,0.0,0.0,0.0,0.0,0.0,0.0,0.0,0.0,0.0,0.0,0.0,0.0,0.0,0.0,0.0,0.0,0.0,0.0,0.0,0.0,0.0,0.0,0.0,0.0,0.0,0.0,0.0,0.0,0.0,0.0,0.0,0.0,0.0,0.0,0.0,0.0,0.0,0.0,0.0,0.0,0.0,0.0,0.0,0.0,0.0,0.0,0.0,0.0,0.0,0.0,0.0,0.0,0.0,0.0,0.0,0.0,0.0,0.0,0.0,0.0,0.0,0.0,0.0,0.0,0.0,0.0,0.0,0.0,0.0,0.0,0.0,0.0,0.0,0.0,0.0,0.0,0.0,0.0,0.0,0.0,0.0,0.0,0.0,0.0,0.0,0.0,0.0,0.0,0.0,0.0,0.0,0.0,0.0,0.0,0.0,0.0,0.0,0.0,0.0,0.0,0.0,0.0,0.0,0.0,0.0,0.0,0.0,0.0,0.0,0.0,0.0,0.0,0.0,0.0,0.0,0.0,0.0,0.0,0.0,0.0,0.0,0.0,0.0,0.0,0.0,0.0,0.0,0.0,0.0,0.0,0.0,0.0,0.0,0.0,0.0,0.0,0.0,0.0,0.0,0.0,0.0,0.0,0.0,0.0,0.0,0.0,0.0,0.0,0.0,0.0,0.0,0.0,0.0,0.0,0.0,0.0,0.0,0.0,0.0,0.0,0.0,0.0,0.0,0.0,0.0,0.0,0.0,0.0,0.0,0.0,0.0,0.0,0.0,0.0,0.0,0.0,0.0,0.0,0.0,0.0,0.0,0.0,0.0,0.0,0.0,0.0,0.0,0.0,0.0,0.0,0.0,0.0,0.0,0.0,0.0,0.0,0.0,0.0,0.0,0.0,0.0,0.0,0.0,0.0,0.0,0.0,0.0,0.0,0.0,0.0,0.0,0.0,0.0,0.0,0.0,0.0,0.0,0.0,0.0,0.0,0.0,0.0,0.0,0.0,0.0,0.0,0.0,0.0,0.0,0.0,0.0,0.0,0.0,0.0,0.0,0.0,0.0,0.0,0.0,0.0,0.0,0.0,0.0,0.0,0.0,0.0,0.0,0.0,0.0,0.0,0.0,0.0,0.0,0.0,0.0,0.0,0.0,0.0,0.0,0.0,0.0,0.0,0.0,0.0,0.0,0.0,0.0,0.0,0.0,0.0,0.0,0.0,0.0,0.0,0.0,0.0,0.0,0.0,0.0,0.0,0.0,0.0,0.0,0.0,0.0,0.0,0.0,0.0,0.0,0.0,0.0,0.0,0.0,0.0,0.0,0.0,0.0,0.0,0.0,0.0,0.0,0.0,0.0,0.0,0.0,0.0,0.0,0.0,0.0,0.0,0.0,0.0,0.0,0.0,0.0,0.0,0.0,0.0,0.0,0.0,0.0,0.0,0.0,0.0,0.0,0.0,0.0,0.0,0.0,0.0,0.0,0.0,0.0,0.0,0.0,0.0,0.0,0.0,0.0,0.0,0.0,0.0,0.0,0.0,0.0,0.0,0.0,0.0,0.0,0.0,0.0,0.0,0.0,0.0,0.0,0.0,0.0,0.0,0.0,0.0,0.0,0.0,0.0,0.0,0.0,0.0,0.0,0.0,0.0,0.0,0.0,0.0,0.0,0.0,0.0,0.0,0.0,0.0,0.0,0.0,0.0,0.0,0.0,0.0,0.0,0.0,0.0,0.0,0.0,0.0,0.0,0.0,0.0,0.0,0.0,0.0,0.0,0.0,0.0,0.0,0.0,0.0,0.0,0.0,0.0,0.0,0.0,0.0,0.0,0.0,0.0,0.0,0.0,0.0,0.0,0.0,0.0,0.0,0.0,0.0,0.0,0.0,0.0,0.0,0.0,0.0,0.0,0.0,0.0,0.0,0.0,0.0,0.0,0.0,0.0,0.0,0.0,0.0,0.0,0.0,0.0,0.0,0.0,0.0,0.0,0.0,0.0,0.0,0.0,0.0,0.0,0.0,0.0,0.0,0.0,0.0,0.0,0.0,0.0,0.0,0.0,0.0,0.0,0.0,0.0,0.0,0.0,0.0,0.0,0.0,0.0,0.0,0.0,0.0,0.0,0.0,0.0,0.0,0.0,0.0,0.0,0.0,0.0,0.0,0.0,0.0,0.0,0.0,0.0,0.0,0.0,0.0,0.0,0.0,0.0,0.0,0.0,0.0,0.0,0.0,0.0,0.0,0.0,0.0,0.0,0.0,0.0,0.0,0.0,0.0,0.0,0.0,0.0,0.0,0.0,0.0,0.0,0.0,0.0,0.0,0.0,0.0,0.0,0.0,0.0,0.0,0.0,0.0,0.0,0.0,0.0,0.0,0.0,0.0,-1.2287,0.0,0.0,0.0,0.0,0.0,0.0,0.0,0.0,0.0,0.0,0.0,0.0,0.0,0.0,0.0,0.0,0.0,0.0,0.0,0.0,0.0,0.0,0.0,0.0,0.0,0.0,0.0,0.0,0.0,0.0,0.0,0.0,0.0,0.0,0.0,0.0,0.0,0.0,0.0,0.0,0.0,0.0,0.0,0.0,0.0,0.0,0.0,0.0,0.0,0.0,0.0,0.0,0.0,0.0,0.0,0.0,0.0,0.0,0.0,0.0,0.0,0.0,0.0,0.0,0.0,0.0,0.0,0.0,0.0,0.0,0.0,0.0,0.0,0.0,0.0,0.0,0.0,0.0,0.0,0.0,0.0,0.0,0.0,0.0,0.0,0.0,0.0,0.0,0.0,0.0,0.0,0.0,0.0,0.0,0.0,0.0,0.0,0.0,0.0,0.0,0.0,0.0,0.0,0.0,0.0,0.0,0.0,0.0,0.0,0.0,-1.4174,-1.416,-1.3029,-1.2194,-1.1756,0.0,0.0,0.0,0.0,0.0,0.0,0.0,0.0,0.0,0.0,0.0,0.0,0.0,0.0,0.0,0.0,0.0,0.0,0.0,0.0,0.0,0.0,0.0,0.0,0.0,0.0,0.0,0.0,0.0,0.0,0.0,0.0,0.0,0.0,0.0,0.0,0.0,0.0,0.0,0.0,0.0,0.0,0.0,0.0,0.0,0.0,0.0,0.0,0.0,0.0,0.0,0.0,0.0,0.0,0.0,0.0,0.0,0.0,0.0,0.0,0.0,0.0,0.0,0.0,0.0,0.0,0.0,0.0,0.0,0.0,0.0,0.0,0.0,0.0,0.0,0.0,0.0,0.0,0.0,0.0,0.0,0.0,0.0,0.0,0.0,0.0,0.0,0.0,0.0,0.0,0.0,0.0,0.0,0.0,0.0,0.0,0.0,0.0,0.0,0.0,0.0,0.0,0.0,0.0,0.0,0.0,0.0,0.0,0.0,0.0,0.0,0.0,-1.3359,-1.2617,-1.1989,0.0,0.0,0.0,0.0,0.0,0.0,0.0,0.0,0.0,0.0,0.0,0.0,0.0,0.0,0.0,0.0,0.0,0.0,0.0,0.0,0.0,0.0,0.0,0.0,0.0,0.0,0.0,0.0,0.0,0.0,0.0,0.0,0.0,0.0,0.0,0.0,0.0,0.0,0.0,0.0,0.0,0.0,0.0,0.0,0.0,0.0,0.0,0.0,0.0,0.0,0.0,0.0,0.0,0.0,0.0,0.0,0.0,0.0,0.0,0.0,0.0,0.0,0.0,0.0,0.0,0.0,0.0,0.0,0.0,0.0,0.0,0.0,0.0,0.0,0.0,0.0,0.0,0.0,0.0,0.0,0.0,0.0,0.0,0.0,0.0,0.0,0.0,0.0,0.0,0.0,0.0,0.0,0.0,0.0,0.0,0.0,0.0,0.0,0.0,0.0,0.0,0.0,0.0,0.0,0.0,0.0,0.0,0.0,0.0,0.0,-1.3512,-1.5596,-1.4952,0.0,-1.4485,0.0,0.0,0.0,0.0,0.0,0.0,0.0,0.0,0.0,0.0,0.0,0.0,0.0,0.0,0.0,0.0,0.0,0.0,0.0,0.0,0.0,0.0,0.0,0.0,0.0,0.0,0.0,0.0,0.0,0.0,0.0,0.0,0.0,0.0,0.0,0.0,0.0,0.0,0.0,0.0,0.0,0.0,0.0,0.0,0.0,0.0,0.0,0.0,0.0,0.0,0.0,0.0,0.0,0.0,0.0,0.0,0.0,0.0,0.0,0.0,0.0,0.0,0.0,0.0,0.0,0.0,0.0,0.0,0.0,0.0,0.0,0.0,0.0,0.0,0.0,0.0,0.0,0.0,0.0,0.0,0.0,0.0,0.0,0.0,0.0,0.0,0.0,0.0,0.0,0.0,0.0,0.0,0.0,0.0,0.0,0.0,0.0,0.0,0.0,0.0,0.0,0.0,0.0,0.0,0.0,0.0,0.0,0.0,0.0,0.0,-1.4136,-1.5043,-1.4317,-1.3912,0.0,0.0,0.0,0.0,0.0,0.0,0.0,0.0,0.0,0.0,0.0,0.0,0.0,0.0,0.0,0.0,0.0,0.0,0.0,0.0,0.0,0.0,0.0,0.0,0.0,0.0,0.0,0.0,0.0,0.0,0.0,0.0,0.0,0.0,0.0,0.0,0.0,0.0,0.0,0.0,0.0,0.0,0.0,0.0,0.0,0.0,0.0,0.0,0.0,0.0,0.0,0.0,0.0,0.0,0.0,0.0,0.0,0.0,0.0,0.0,0.0,0.0,0.0,0.0,0.0,0.0,0.0,0.0,0.0,0.0,0.0,0.0,0.0,0.0,0.0,0.0,0.0,0.0,0.0,0.0,0.0,0.0,0.0,0.0,0.0,0.0,0.0,0.0,0.0,0.0,0.0,0.0,0.0,0.0,0.0,0.0,0.0,0.0,0.0,0.0,0.0,0.0,0.0,0.0,0.0,0.0,0.0,0.0,0.0,0.0,-1.4041,-1.4574,-1.512,-1.4419,-1.3793,-1.3352,0.0,0.0,0.0,0.0,0.0,0.0,0.0,0.0,0.0,0.0,0.0,0.0,0.0,0.0,0.0,0.0,0.0,0.0,0.0,0.0,0.0,0.0,0.0,0.0,0.0,0.0,0.0,0.0,0.0,0.0,0.0,0.0,0.0,0.0,0.0,0.0,0.0,0.0,0.0,0.0,0.0,0.0,0.0,0.0,0.0,0.0,0.0,0.0,0.0,0.0,0.0,0.0,0.0,0.0,0.0,0.0,0.0,0.0,0.0,0.0,0.0,0.0,0.0,0.0,0.0,0.0,0.0,0.0,0.0,0.0,0.0,0.0,0.0,0.0,0.0,0.0,0.0,0.0,0.0,0.0,0.0,0.0,0.0,0.0,0.0,0.0,0.0,0.0,0.0,0.0,0.0,0.0,0.0,0.0,0.0,0.0,0.0,0.0,0.0,0.0,0.0,0.0,0.0,0.0,0.0,0.0,0.0,0.0,0.0,-1.4606,-1.4545,-1.6743,-1.6163,-1.5027,0.0,0.0,0.0,0.0,0.0,0.0,0.0,0.0,0.0,0.0,0.0,0.0,0.0,0.0,0.0,0.0,0.0,0.0,0.0,0.0,0.0,0.0,0.0,0.0,0.0,0.0,0.0,0.0,0.0,0.0,0.0,0.0,0.0,0.0,0.0,0.0,0.0,0.0,0.0,0.0,0.0,0.0,0.0,0.0,0.0,0.0,0.0,0.0,0.0,0.0,0.0,0.0,0.0,0.0,0.0,0.0,0.0,0.0,0.0,0.0,0.0,0.0,0.0,0.0,0.0,0.0,0.0,0.0,0.0,0.0,0.0,0.0,0.0,0.0,0.0,0.0,0.0,0.0,0.0,0.0,0.0,0.0,0.0,0.0,0.0,0.0,0.0,0.0,0.0,0.0,0.0,0.0,0.0,0.0,0.0,0.0,0.0,0.0,0.0,0.0,0.0,0.0,0.0,0.0,0.0,0.0,0.0,0.0,0.0,-1.2234,-1.2871,-1.4599,-1.7355,-1.5336,-1.405,0.0,0.0,0.0,0.0,0.0,0.0,0.0,0.0,0.0,0.0,0.0,0.0,0.0,0.0,0.0,0.0,0.0,0.0,0.0,0.0,0.0,0.0,0.0,0.0,0.0,0.0,0.0,0.0,0.0,0.0,0.0,0.0,0.0,0.0,0.0,0.0,0.0,0.0,0.0,0.0,0.0,0.0,0.0,0.0,0.0,0.0,0.0,0.0,0.0,0.0,0.0,0.0,0.0,0.0,0.0,0.0,0.0,0.0,0.0,0.0,0.0,0.0,0.0,0.0,0.0,0.0,0.0,0.0,0.0,0.0,0.0,0.0,0.0,0.0,0.0,0.0,0.0,0.0,0.0,0.0,0.0,0.0,0.0,0.0,0.0,0.0,0.0,0.0,0.0,0.0,0.0,0.0,0.0,0.0,0.0,0.0,0.0,0.0,0.0,0.0,0.0,0.0,0.0,0.0,0.0,0.0,0.0,0.0,0.0,-1.1543,0.0,-1.5527,0.0,-1.4785,-1.3297,0.0,0.0,0.0,0.0,0.0,0.0,0.0,0.0,0.0,0.0,0.0,0.0,0.0,0.0,0.0,0.0,0.0,0.0,0.0,0.0,0.0,0.0,0.0,0.0,0.0,0.0,0.0,0.0,0.0,0.0,0.0,0.0,0.0,0.0,0.0,0.0,0.0,0.0,0.0,0.0,0.0,0.0,0.0,0.0,0.0,0.0,0.0,0.0,0.0,0.0,0.0,0.0,0.0,0.0,0.0,0.0,0.0,0.0,0.0,0.0,0.0,0.0,0.0,0.0,0.0,0.0,0.0,0.0,0.0,0.0,0.0,0.0,0.0,0.0,0.0,0.0,0.0,0.0,0.0,0.0,0.0,0.0,0.0,0.0,0.0,0.0,0.0,0.0,0.0,0.0,0.0,0.0,0.0,0.0,0.0,0.0,0.0,0.0,0.0,0.0,0.0,0.0,0.0,0.0,0.0,0.0,0.0,0.0,-1.1645,-1.5353,-1.7114,-1.7183,-1.561,-1.4787,-1.2877,0.0,0.0,0.0,0.0,0.0,0.0,0.0,0.0,0.0,0.0,0.0,0.0,0.0,0.0,0.0,0.0,0.0,0.0,0.0,0.0,0.0,0.0,0.0,0.0,0.0,0.0,0.0,0.0,0.0,0.0,0.0,0.0,0.0,0.0,0.0,0.0,0.0,0.0,0.0,0.0,0.0,0.0,0.0,0.0,0.0,0.0,0.0,0.0,0.0,0.0,0.0,0.0,0.0,0.0,0.0,0.0,0.0,0.0,0.0,0.0,0.0,0.0,0.0,0.0,0.0,0.0,0.0,0.0,0.0,0.0,0.0,0.0,0.0,0.0,0.0,0.0,0.0,0.0,0.0,0.0,0.0,0.0,0.0,0.0,0.0,0.0,0.0,0.0,0.0,0.0,0.0,0.0,0.0,0.0,0.0,0.0,0.0,0.0,0.0,0.0,0.0,0.0,0.0,0.0,0.0,0.0,0.0,0.0,0.0,-1.389,-1.5491,-1.6605,-1.7037,-1.4785,-1.3539,0.0,0.0,0.0,0.0,0.0,0.0,0.0,0.0,0.0,0.0,0.0,0.0,0.0,0.0,0.0,0.0,0.0,0.0,0.0,0.0,0.0,0.0,0.0,0.0,0.0,0.0,0.0,0.0,0.0,0.0,0.0,0.0,0.0,0.0,0.0,0.0,0.0,0.0,0.0,0.0,0.0,0.0,0.0,0.0,0.0,0.0,0.0,0.0,0.0,0.0,0.0,0.0,0.0,0.0,0.0,0.0,0.0,0.0,0.0,0.0,0.0,0.0,0.0,0.0,0.0,0.0,0.0,0.0,0.0,0.0,0.0,0.0,0.0,0.0,0.0,0.0,0.0,0.0,0.0,0.0,0.0,0.0,0.0,0.0,0.0,0.0,0.0,0.0,0.0,0.0,0.0,0.0,0.0,0.0,0.0,0.0,0.0,0.0,0.0,0.0,0.0,0.0,0.0,0.0,0.0,0.0,0.0,0.0,0.0,-1.5318,-1.6805,-1.7704,-1.7796,-1.5618,-1.4443,-1.4437,0.0,0.0,0.0,0.0,0.0,0.0,0.0,0.0,0.0,0.0,0.0,0.0,0.0,0.0,0.0,0.0,0.0,0.0,0.0,0.0,0.0,0.0,0.0,0.0,0.0,0.0,0.0,0.0,0.0,0.0,0.0,0.0,0.0,0.0,0.0,0.0,0.0,0.0,0.0,0.0,0.0,0.0,0.0,0.0,0.0,0.0,0.0,0.0,0.0,0.0,0.0,0.0,0.0,0.0,0.0,0.0,0.0,0.0,0.0,0.0,0.0,0.0,0.0,0.0,0.0,0.0,0.0,0.0,0.0,0.0,0.0,0.0,0.0,0.0,0.0,0.0,0.0,0.0,0.0,0.0,0.0,0.0,0.0,0.0,0.0,0.0,0.0,0.0,0.0,0.0,0.0,0.0,0.0,0.0,0.0,0.0,0.0,0.0,0.0,0.0,0.0,0.0,0.0,0.0,0.0,0.0,0.0,0.0,-1.8805,-2.0525,-2.0238,-1.7986,-1.7201,-1.5648,0.0,0.0,0.0,0.0,0.0,0.0,0.0,0.0,0.0,0.0,0.0,0.0,0.0,0.0,0.0,0.0,0.0,0.0,0.0,0.0,0.0,0.0,0.0,0.0,0.0,0.0,0.0,0.0,0.0,0.0,0.0,0.0,0.0,0.0,0.0,0.0,0.0,0.0,0.0,0.0,0.0,0.0,0.0,0.0,0.0,0.0,0.0,0.0,0.0,0.0,0.0,0.0,0.0,0.0,0.0,0.0,0.0,0.0,0.0,0.0,0.0,0.0,0.0,0.0,0.0,0.0,0.0,0.0,0.0,0.0,0.0,0.0,0.0,0.0,0.0,0.0,0.0,0.0,0.0,0.0,0.0,0.0,0.0,0.0,0.0,0.0,0.0,0.0,0.0,0.0,0.0,0.0,0.0,0.0,0.0,0.0,0.0,0.0,0.0,0.0,0.0,0.0,0.0,0.0,0.0,0.0,0.0,0.0,0.0,-1.9265,-2.1399,-2.2081,-2.1067,-1.9291,-1.771,0.0,0.0,0.0,0.0,0.0,0.0,0.0,0.0,0.0,0.0,0.0,0.0,0.0,0.0,0.0,0.0,0.0,0.0,0.0,0.0,0.0,0.0,0.0,0.0,0.0,0.0,0.0,0.0,0.0,0.0,0.0,0.0,0.0,0.0,0.0,0.0,0.0,0.0,0.0,0.0,0.0,0.0,0.0,0.0,0.0,0.0,0.0,0.0,0.0,0.0,0.0,0.0,0.0,0.0,0.0,0.0,0.0,0.0,0.0,0.0,0.0,0.0,0.0,0.0,0.0,0.0,0.0,0.0,0.0,0.0,0.0,0.0,0.0,0.0,0.0,0.0,0.0,0.0,0.0,0.0,0.0,0.0,0.0,0.0,0.0,0.0,0.0,0.0,0.0,0.0,0.0,0.0,0.0,0.0,0.0,0.0,0.0,0.0,0.0,0.0,0.0,0.0,0.0,0.0,0.0,0.0,0.0,0.0,-1.9082,-2.0481,-2.2146,-2.2933,-2.264,-2.0619,-1.8849,0.0,0.0,0.0,0.0,0.0,0.0,0.0,0.0,0.0,0.0,0.0,0.0,0.0,0.0,0.0,0.0,0.0,0.0,0.0,0.0,0.0,0.0,0.0,0.0,0.0,0.0,0.0,0.0,0.0,0.0,0.0,0.0,0.0,0.0,0.0,0.0,0.0,0.0,0.0,0.0,0.0,0.0,0.0,0.0,0.0,0.0,0.0,0.0,0.0,0.0,0.0,0.0,0.0,0.0,0.0,0.0,0.0,0.0,0.0,0.0,0.0,0.0,0.0,0.0,0.0,0.0,0.0,0.0,0.0,0.0,0.0,0.0,0.0,0.0,0.0,0.0,0.0,0.0,0.0,0.0,0.0,0.0,0.0,0.0,0.0,0.0,0.0,0.0,0.0,0.0,0.0,0.0,0.0,0.0,0.0,0.0,0.0,0.0,0.0,0.0,0.0,0.0,0.0,0.0,0.0,0.0,0.0,0.0,-2.046,-2.1849,-2.2618,-2.2995,-2.2925,-2.1392,-1.9559,0.0,0.0,0.0,0.0,0.0,0.0,0.0,0.0,0.0,0.0,0.0,0.0,0.0,0.0,0.0,0.0,0.0,0.0,0.0,0.0,0.0,0.0,0.0,0.0,0.0,0.0,0.0,0.0,0.0,0.0,0.0,0.0,0.0,0.0,0.0,0.0,0.0,0.0,0.0,0.0,0.0,0.0,0.0,0.0,0.0,0.0,0.0,0.0,0.0,0.0,0.0,0.0,0.0,0.0,0.0,0.0,0.0,0.0,0.0,0.0,0.0,0.0,0.0,0.0,0.0,0.0,0.0,0.0,0.0,0.0,0.0,0.0,0.0,0.0,0.0,0.0,0.0,0.0,0.0,0.0,0.0,0.0,0.0,0.0,0.0,0.0,0.0,0.0,0.0,0.0,0.0,0.0,0.0,0.0,0.0,0.0,0.0,0.0,0.0,0.0,0.0,0.0,0.0,0.0,0.0,0.0,0.0,0.0,-2.0553,-2.0975,-2.1864,-2.2237,-2.2084,-2.1713,-2.0823,0.0,0.0,0.0,0.0,0.0,0.0,0.0,0.0,0.0,0.0,0.0,0.0,0.0,0.0,0.0,0.0,0.0,0.0,0.0,0.0,0.0,0.0,0.0,0.0,0.0,0.0,0.0,0.0,0.0,0.0,0.0,0.0,0.0,0.0,0.0,0.0,0.0,0.0,0.0,0.0,0.0,0.0,0.0,0.0,0.0,0.0,0.0,0.0,-1.5866,0.0,0.0,0.0,0.0,0.0,0.0,0.0,0.0,0.0,0.0,0.0,0.0,0.0,0.0,0.0,0.0,0.0,0.0,0.0,0.0,0.0,0.0,0.0,0.0,0.0,0.0,0.0,0.0,0.0,0.0,0.0,0.0,0.0,0.0,0.0,0.0,0.0,0.0,0.0,0.0,0.0,0.0,0.0,0.0,0.0,0.0,0.0,0.0,0.0,0.0,0.0,0.0,0.0,0.0,0.0,0.0,0.0,0.0,0.0,-2.1139,-2.1671,-2.2095,-2.226,-2.213,-2.2017,-2.1184,0.0,0.0,0.0,0.0,0.0,0.0,0.0,0.0,0.0,0.0,0.0,0.0,0.0,0.0,0.0,0.0,0.0,0.0,0.0,0.0,0.0,0.0,0.0,0.0,0.0,0.0,0.0,0.0,0.0,0.0,0.0,0.0,0.0,0.0,0.0,0.0,0.0,0.0,0.0,0.0,0.0,0.0,0.0,0.0,0.0,0.0,0.0,0.0,0.0,0.0,0.0,0.0,0.0,0.0,0.0,0.0,0.0,0.0,0.0,0.0,0.0,0.0,0.0,0.0,0.0,0.0,0.0,0.0,0.0,0.0,0.0,0.0,0.0,0.0,0.0,0.0,0.0,0.0,0.0,0.0,0.0,0.0,0.0,0.0,0.0,0.0,0.0,0.0,0.0,0.0,0.0,0.0,0.0,0.0,0.0,0.0,0.0,0.0,0.0,0.0,0.0,0.0,0.0,0.0,0.0,0.0,0.0,-1.9979,-2.1635,-2.2607,-2.2497,-2.2388,-2.2405,-2.2169,-2.1211,-1.9499,0.0,0.0,0.0,0.0,0.0,0.0,0.0,0.0,0.0,0.0,0.0,0.0,0.0,0.0,0.0,0.0,0.0,0.0,0.0,0.0,0.0,0.0,0.0,0.0,0.0,0.0,0.0,0.0,0.0,0.0,0.0,0.0,0.0,0.0,0.0,0.0,0.0,0.0,-1.4064,-1.6292,0.0,0.0,0.0,0.0,0.0,0.0,0.0,0.0,-1.7092,0.0,0.0,0.0,0.0,0.0,0.0,0.0,0.0,0.0,0.0,0.0,0.0,0.0,0.0,0.0,0.0,0.0,0.0,0.0,0.0,0.0,0.0,0.0,0.0,0.0,0.0,0.0,0.0,0.0,0.0,0.0,0.0,0.0,0.0,0.0,0.0,0.0,0.0,0.0,0.0,0.0,0.0,0.0,0.0,0.0,0.0,0.0,0.0,0.0,0.0,0.0,0.0,0.0,0.0,0.0,0.0,-1.9675,-2.015,-2.0899,-2.1924,-2.1928,-2.1899,-2.1915,-2.1869,-2.1245,-1.9972,0.0,0.0,0.0,0.0,0.0,0.0,0.0,0.0,0.0,0.0,0.0,0.0,0.0,0.0,0.0,0.0,0.0,0.0,0.0,0.0,0.0,0.0,0.0,0.0,0.0,0.0,0.0,0.0,0.0,0.0,0.0,0.0,0.0,0.0,0.0,0.0,0.0,0.0,0.0,-1.89,-2.0126,0.0,0.0,0.0,0.0,0.0,0.0,0.0,0.0,-1.7759,0.0,0.0,0.0,0.0,0.0,0.0,0.0,0.0,0.0,0.0,0.0,0.0,0.0,0.0,0.0,0.0,0.0,0.0,0.0,0.0,0.0,0.0,0.0,0.0,0.0,0.0,0.0,0.0,0.0,0.0,0.0,0.0,0.0,0.0,0.0,0.0,0.0,0.0,0.0,0.0,0.0,0.0,0.0,0.0,0.0,0.0,0.0,0.0,0.0,0.0,0.0,0.0,0.0,0.0,0.0,-1.9064,-2.0399,-2.1323,-2.1924,-2.184,-2.1781,-2.1764,-2.1052,-2.0304,0.0,0.0,0.0,0.0,0.0,0.0,0.0,0.0,0.0,0.0,0.0,0.0,0.0,0.0,0.0,0.0,0.0,0.0,0.0,0.0,0.0,0.0,0.0,0.0,0.0,0.0,0.0,0.0,0.0,0.0,0.0,0.0,0.0,0.0,0.0,0.0,0.0,0.0,0.0,0.0,-1.9158,-2.0255,-2.1131,0.0,0.0,0.0,0.0,0.0,0.0,-1.9288,-1.8788,0.0,0.0,0.0,0.0,0.0,0.0,0.0,0.0,0.0,0.0,0.0,0.0,0.0,0.0,0.0,0.0,0.0,0.0,0.0,0.0,0.0,0.0,0.0,0.0,0.0,0.0,0.0,0.0,0.0,0.0,0.0,0.0,0.0,0.0,0.0,0.0,0.0,0.0,0.0,0.0,0.0,0.0,0.0,0.0,0.0,0.0,0.0,0.0,0.0,0.0,0.0,0.0,0.0,0.0,0.0,-1.8113,-2.0277,-2.1599,-2.1994,-2.1899,-2.1781,-2.1764,-2.0671,-1.9694,0.0,0.0,0.0,0.0,0.0,0.0,0.0,0.0,0.0,0.0,0.0,0.0,0.0,0.0,0.0,0.0,0.0,0.0,0.0,0.0,0.0,0.0,0.0,0.0,0.0,0.0,0.0,0.0,0.0,0.0,0.0,0.0,0.0,0.0,0.0,0.0,0.0,0.0,0.0,0.0,0.0,-2.068,-2.1633,-2.0855,0.0,0.0,0.0,0.0,-2.1297,-2.0681,0.0,0.0,0.0,0.0,0.0,0.0,0.0,0.0,0.0,0.0,0.0,0.0,0.0,0.0,0.0,0.0,0.0,0.0,0.0,0.0,0.0,0.0,0.0,0.0,0.0,0.0,0.0,0.0,0.0,0.0,0.0,0.0,0.0,0.0,0.0,0.0,0.0,0.0,0.0,0.0,0.0,0.0,0.0,0.0,0.0,0.0,0.0,0.0,0.0,0.0,0.0,0.0,0.0,0.0,0.0,0.0,-1.7793,-1.9294,-2.0594,-2.1757,-2.1827,-2.1781,-2.1781,-2.1632,-2.0672,0.0,0.0,0.0,0.0,0.0,0.0,0.0,0.0,0.0,0.0,0.0,0.0,0.0,0.0,0.0,0.0,0.0,0.0,0.0,0.0,0.0,0.0,0.0,0.0,0.0,0.0,0.0,0.0,0.0,0.0,0.0,0.0,0.0,0.0,0.0,0.0,0.0,0.0,0.0,0.0,0.0,-2.318,-2.1983,-2.2293,-2.2456,0.0,0.0,-2.203,-2.2827,-2.2303,0.0,0.0,0.0,0.0,0.0,0.0,0.0,0.0,0.0,0.0,0.0,0.0,0.0,0.0,0.0,0.0,0.0,0.0,0.0,0.0,0.0,0.0,0.0,0.0,0.0,0.0,0.0,0.0,0.0,0.0,0.0,0.0,0.0,0.0,0.0,0.0,0.0,0.0,0.0,0.0,0.0,0.0,0.0,0.0,0.0,0.0,0.0,0.0,0.0,0.0,0.0,0.0,0.0,0.0,0.0,-1.5629,-1.7783,-1.9889,-2.1209,-2.1764,-2.1781,-2.1781,-2.1781,-2.1002,-1.9754,0.0,0.0,0.0,0.0,0.0,0.0,0.0,0.0,0.0,0.0,0.0,0.0,0.0,0.0,0.0,0.0,0.0,0.0,0.0,0.0,0.0,0.0,0.0,0.0,0.0,0.0,0.0,0.0,0.0,0.0,0.0,0.0,0.0,0.0,0.0,0.0,0.0,0.0,0.0,0.0,0.0,0.0,-2.3125,-2.3124,0.0,0.0,0.0,-2.2978,-2.381,0.0,0.0,0.0,0.0,0.0,0.0,0.0,0.0,0.0,0.0,0.0,0.0,0.0,0.0,0.0,0.0,0.0,0.0,0.0,0.0,0.0,0.0,0.0,0.0,0.0,0.0,0.0,0.0,0.0,0.0,0.0,0.0,0.0,0.0,0.0,0.0,0.0,0.0,0.0,0.0,0.0,0.0,0.0,0.0,0.0,0.0,0.0,0.0,0.0,0.0,0.0,0.0,0.0,0.0,0.0,0.0,0.0,-1.7794,-2.0444,-2.1781,-2.1781,-2.1781,-2.1781,-2.1764,-2.0721,0.0,0.0,0.0,0.0,0.0,0.0,0.0,0.0,0.0,0.0,0.0,0.0,0.0,0.0,0.0,0.0,0.0,0.0,0.0,0.0,0.0,0.0,0.0,0.0,0.0,0.0,0.0,-0.9962,0.0,0.0,0.0,0.0,0.0,0.0,0.0,0.0,0.0,0.0,0.0,0.0,0.0,0.0,-2.2997,-2.3804,-2.3787,-2.3842,0.0,0.0,-2.3739,-2.4403,-2.4011,-2.3281,0.0,0.0,0.0,0.0,0.0,0.0,0.0,0.0,0.0,0.0,0.0,0.0,0.0,0.0,0.0,0.0,0.0,0.0,0.0,0.0,0.0,0.0,0.0,0.0,0.0,0.0,0.0,0.0,0.0,0.0,0.0,0.0,0.0,0.0,0.0,0.0,0.0,0.0,0.0,0.0,0.0,0.0,0.0,0.0,0.0,0.0,0.0,0.0,0.0,0.0,0.0,0.0,0.0,0.0,-1.6227,-1.7743,-2.04,-2.1781,-2.1781,-2.1781,-2.1781,-2.1781,-2.1698,-2.0351,0.0,0.0,0.0,0.0,0.0,0.0,0.0,0.0,0.0,0.0,0.0,0.0,0.0,0.0,0.0,0.0,0.0,0.0,0.0,0.0,0.0,0.0,0.0,0.0,0.0,0.0,0.0,0.0,0.0,0.0,0.0,0.0,0.0,0.0,0.0,0.0,0.0,0.0,0.0,0.0,0.0,-2.465,-2.3253,-2.4358,-2.5097,0.0,-2.4374,-2.4444,-2.4481,-2.4459,-2.3878,-2.2361,0.0,0.0,0.0,0.0,0.0,0.0,0.0,0.0,0.0,0.0,0.0,0.0,0.0,0.0,0.0,0.0,0.0,0.0,0.0,0.0,0.0,0.0,0.0,0.0,0.0,0.0,0.0,0.0,0.0,0.0,0.0,0.0,0.0,0.0,0.0,0.0,0.0,0.0,0.0,0.0,0.0,0.0,0.0,0.0,0.0,0.0,0.0,0.0,0.0,0.0,0.0,0.0,0.0,-1.6118,-1.7635,-2.0389,-2.1781,-2.1781,-2.1781,-2.1781,-2.1781,-2.1781,-2.0649,0.0,0.0,0.0,0.0,0.0,0.0,0.0,0.0,0.0,0.0,0.0,0.0,0.0,0.0,0.0,0.0,0.0,0.0,0.0,0.0,0.0,0.0,0.0,0.0,0.0,0.0,0.0,0.0,-1.2355,-1.28,-1.3897,0.0,0.0,0.0,0.0,0.0,0.0,0.0,0.0,0.0,0.0,-2.4593,-2.4483,-2.55,0.0,0.0,-2.5894,-2.5819,-2.5371,-2.5296,-2.4771,-2.3157,-2.2926,0.0,0.0,0.0,0.0,0.0,0.0,0.0,0.0,0.0,0.0,0.0,0.0,0.0,0.0,0.0,0.0,0.0,0.0,0.0,0.0,0.0,0.0,0.0,0.0,0.0,0.0,0.0,0.0,0.0,0.0,0.0,0.0,0.0,0.0,0.0,0.0,0.0,0.0,0.0,0.0,0.0,0.0,0.0,0.0,0.0,0.0,0.0,0.0,0.0,0.0,0.0,0.0,-1.6403,-1.79,-2.0478,-2.1781,-2.1781,-2.1781,-2.1781,-2.1781,-2.1781,-2.0915,0.0,0.0,0.0,0.0,0.0,0.0,0.0,0.0,0.0,0.0,0.0,0.0,0.0,0.0,0.0,0.0,0.0,0.0,0.0,0.0,0.0,0.0,0.0,0.0,0.0,0.0,0.0,0.0,-1.3486,-1.3871,-1.4433,0.0,0.0,0.0,0.0,0.0,0.0,0.0,0.0,0.0,0.0,-2.5127,-2.5717,-2.6532,-2.7017,-2.6779,-2.6617,-2.6358,-2.5873,-2.5798,-2.5256,-2.3662,0.0,0.0,0.0,0.0,0.0,0.0,0.0,0.0,0.0,0.0,0.0,0.0,0.0,0.0,0.0,0.0,0.0,0.0,0.0,0.0,0.0,0.0,0.0,0.0,0.0,0.0,0.0,-1.2968,0.0,0.0,-1.0965,0.0,0.0,0.0,0.0,0.0,0.0,0.0,0.0,0.0,0.0,0.0,0.0,0.0,0.0,0.0,0.0,0.0,0.0,0.0,0.0,0.0,0.0,-1.7176,-1.8585,-2.0749,-2.1814,-2.1831,-2.1797,-2.1797,-2.1814,-2.1797,-2.1102,-1.9601,0.0,0.0,0.0,0.0,0.0,0.0,0.0,0.0,0.0,0.0,0.0,0.0,0.0,0.0,0.0,0.0,0.0,0.0,0.0,0.0,0.0,0.0,0.0,0.0,0.0,0.0,-1.3161,-1.3977,-1.4476,0.0,0.0,0.0,0.0,0.0,0.0,0.0,0.0,0.0,-2.4081,-2.5531,-2.6578,-2.6659,-2.7419,-2.7701,-2.6948,-2.6247,-2.58,-2.5855,-2.5835,-2.5239,0.0,0.0,0.0,0.0,0.0,0.0,0.0,0.0,0.0,0.0,0.0,0.0,0.0,0.0,0.0,0.0,0.0,0.0,0.0,0.0,0.0,0.0,0.0,0.0,0.0,0.0,0.0,-1.621,-1.5729,0.0,0.0,0.0,0.0,0.0,0.0,0.0,0.0,0.0,0.0,0.0,-2.0373,-2.0853,0.0,0.0,0.0,0.0,0.0,0.0,0.0,0.0,0.0,0.0,0.0,0.0,-1.7612,-1.9936,-2.1694,-2.2758,-2.3222,-2.2791,-2.2526,-2.2526,-2.2076,-2.1102,-1.9634,0.0,0.0,0.0,0.0,0.0,0.0,0.0,0.0,0.0,0.0,0.0,0.0,0.0,0.0,0.0,0.0,0.0,0.0,0.0,0.0,0.0,0.0,0.0,0.0,0.0,-1.3787,0.0,0.0,0.0,0.0,0.0,0.0,0.0,0.0,0.0,0.0,0.0,-2.43,-2.5623,-2.6704,-2.7405,-2.7488,-2.823,-2.8719,0.0,0.0,0.0,0.0,0.0,0.0,0.0,0.0,0.0,0.0,0.0,0.0,0.0,0.0,-2.5171,-2.1674,-2.0383,-2.0042,-2.0668,0.0,0.0,0.0,0.0,0.0,0.0,0.0,0.0,0.0,0.0,0.0,0.0,0.0,0.0,-1.8798,-1.8346,-1.81,0.0,0.0,0.0,0.0,0.0,0.0,0.0,0.0,-2.1648,-2.2344,-2.2576,-2.3056,-2.3023,-2.2526,-2.1847,-2.029,0.0,0.0,0.0,0.0,0.0,0.0,0.0,0.0,-1.8941,-2.1048,-2.2526,-2.3503,-2.3967,-2.3537,-2.3156,-2.2891,-2.2178,-2.1234,-1.9998,-1.9133,-1.8094,0.0,0.0,0.0,0.0,0.0,0.0,0.0,0.0,0.0,0.0,0.0,0.0,0.0,0.0,0.0,0.0,0.0,0.0,0.0,0.0,0.0,0.0,0.0,-1.5001,0.0,0.0,0.0,0.0,0.0,0.0,0.0,0.0,0.0,-2.3382,-2.4355,-2.5529,-2.6851,-2.7457,-2.7919,-2.8257,0.0,0.0,0.0,0.0,0.0,0.0,0.0,-2.7308,-2.7046,-2.7028,-2.7121,-2.7382,-2.8109,-2.8594,-2.8353,0.0,0.0,-2.412,-2.2899,-2.2548,-2.3121,-2.4091,-2.4825,-2.4964,-2.5773,-2.6348,0.0,0.0,0.0,0.0,-2.1753,0.0,0.0,0.0,-2.1147,-2.0886,0.0,-2.0097,0.0,0.0,0.0,0.0,-1.8774,-2.0804,0.0,0.0,-2.405,-2.4729,-2.41,-2.4083,-2.4067,-2.4116,-2.4696,-2.4282,-2.2725,-1.8726,0.0,0.0,0.0,0.0,0.0,0.0,-2.1085,-2.193,-2.3321,-2.405,-2.41,-2.405,-2.3669,-2.2924,-2.2212,-2.1499,-2.0799,-2.0761,-1.9824,-1.7728,-1.7047,0.0,0.0,0.0,0.0,0.0,0.0,0.0,0.0,0.0,0.0,0.0,0.0,0.0,0.0,0.0,0.0,0.0,0.0,0.0,0.0,-1.5626,0.0,0.0,0.0,0.0,0.0,0.0,0.0,0.0,0.0,0.0,-2.4593,-2.5731,-2.6943,-2.7732,0.0,0.0,0.0,0.0,-2.9222,-2.9302,-2.8639,-2.818,-2.8258,-2.8163,-2.7845,-2.7214,0.0,0.0,-2.8368,-2.8869,-2.9167,-2.8464,-2.8314,-2.8258,-2.8297,-2.7419,-2.6874,-2.6912,-2.6983,-2.7204,-2.7223,-2.7221,-2.7353,-2.6071,0.0,0.0,0.0,0.0,-2.4563,-2.4941,-2.6126,-2.4917,-2.4114,-2.3572,-2.2849,0.0,0.0,0.0,0.0,0.0,0.0,-2.3156,-2.4166,-2.4829,-2.5259,-2.5574,-2.5574,-2.5574,-2.5574,-2.5259,-2.4895,-2.4414,-2.2692,-2.0683,-1.851,0.0,0.0,0.0,0.0,-2.1906,-2.4033,-2.458,-2.5044,-2.5574,-2.506,-2.4199,-2.294,-2.2692,-2.2245,-2.1516,-2.1512,-2.101,-1.989,-1.8693,0.0,0.0,0.0,0.0,0.0,0.0,0.0,0.0,0.0,0.0,0.0,0.0,0.0,0.0,0.0,0.0,0.0,0.0,0.0,-1.625,-1.6387,-1.6965,0.0,0.0,0.0,0.0,0.0,0.0,0.0,0.0,0.0,-2.8356,-2.786,-2.775,0.0,0.0,-2.876,-2.9058,-2.9171,-2.924,-2.9302,-2.9142,0.0,-2.9055,-2.8515,-2.8254,-2.8626,-2.9109,-2.9314,-2.9111,-2.9258,-2.9332,-2.9111,-2.9074,-2.9241,-2.9709,-2.8314,-2.7194,-2.71,-2.7603,-2.8033,-2.8088,-2.8537,-2.8969,-2.9582,-2.8655,-2.7065,-2.6862,-2.7552,-2.6746,-2.7052,-2.8066,-2.724,-2.6652,-2.6208,-2.5779,-2.471,-2.3336,-2.347,0.0,0.0,0.0,-2.5259,-2.6402,-2.6104,-2.6203,-2.6601,-2.6336,-2.6203,-2.6203,-2.5756,-2.5557,-2.5541,-2.5094,-2.3851,-2.1877,0.0,-2.1238,-2.2069,-2.2372,-2.3353,-2.5027,-2.5392,-2.5773,-2.6187,-2.5491,-2.4679,-2.3818,-2.3487,-2.299,-2.2261,-2.2228,-2.1927,-2.1226,-2.0096,-1.8502,0.0,0.0,0.0,0.0,0.0,0.0,0.0,0.0,0.0,0.0,0.0,-1.2816,-1.1084,0.0,0.0,0.0,-1.599,-1.7729,-1.8522,-1.8901,0.0,0.0,0.0,0.0,0.0,0.0,0.0,-2.7732,-2.8723,-2.9567,-3.0522,-2.9843,-2.9402,-2.9879,-2.9379,-2.9122,-2.9494,0.0,-2.9197,-2.924,-2.9304,-2.9365,-2.9368,-2.8961,-2.8812,-2.9314,-2.9388,-2.9388,-2.9407,-2.9649,-2.976,-2.9556,-2.9927,-3.0389,-3.0556,-2.9634,-2.8929,-2.9006,-2.9456,-2.9851,-2.987,-3.0358,-3.0695,-3.2663,-3.2464,-2.9831,-2.8659,-2.8484,-2.8566,-2.851,-2.8401,-2.8444,-2.8456,-2.8495,-2.8445,-2.8009,-2.735,-2.6684,0.0,-2.74,-2.74,-2.7732,-2.8357,-2.7699,-2.74,-2.7383,-2.67,-2.6352,-2.6303,-2.6286,-2.627,-2.6203,-2.6187,-2.5872,-2.5193,-2.4514,-2.4166,-2.4214,-2.4796,-2.5143,-2.5209,-2.5855,-2.6203,-2.6203,-2.5557,-2.5176,-2.511,-2.4398,-2.3653,-2.294,-2.2824,-2.2493,-2.1844,-2.1209,-1.9907,-1.7812,0.0,0.0,0.0,0.0,0.0,0.0,0.0,0.0,0.0,0.0,0.0,0.0,0.0,0.0,0.0,-1.9031,0.0,-2.1532,-2.2366,0.0,0.0,0.0,-2.4293,-2.6618,-2.7541,-2.8594,-3.021,0.0,0.0,-3.1586,-3.1531,-3.1538,-3.1568,-3.021,-2.9475,-3.0191,-2.9743,-2.9296,-2.9385,-2.9373,-2.9397,-2.9405,-2.9351,-2.9351,-2.9388,-2.9388,-2.9388,-2.9425,-2.9946,-3.0132,-2.9662,-3.0705,-3.1541,-3.0872,-3.134,-3.1916,-3.1961,-3.1974,-3.2023,-3.1952,-3.2091,-3.2029,-3.2663,-3.2613,-3.1934,-3.1669,-3.1527,-3.0435,-3.0286,-3.0658,-2.9608,-2.9168,-2.9135,-2.8605,-2.8274,-2.8146,-2.7942,-2.7959,-2.8108,-2.8163,-2.8246,-2.8373,-2.8246,-2.8163,-2.8146,-2.798,-2.7561,-2.7085,-2.7052,-2.675,-2.622,-2.6203,-2.6137,-2.5955,-2.5773,-2.5408,-2.4895,-2.5011,-2.5392,-2.5938,-2.612,-2.6203,-2.6203,-2.6038,-2.569,-2.511,-2.4381,-2.3653,-2.2924,-2.2344,-2.198,-2.1797,-2.1661,-2.0787,-1.918,-1.7309,0.0,0.0,0.0,0.0,0.0,0.0,0.0,0.0,0.0,-1.7482,-1.4259,0.0,-1.9633,0.0,-2.0155,-2.155,-2.2365,-2.365,0.0,0.0,-2.7017,-2.8051,-2.9867,-2.9759,-3.0192,-3.1836,-3.221,-3.254,-3.3146,-3.2706,-3.254,-3.3091,-3.1843,-3.0889,-3.1091,-3.1011,-3.0709,-3.0226,-3.0165,-3.0009,-2.9553,-2.9388,-2.9444,-2.9388,-2.9407,-2.9388,-2.9407,-2.9556,-2.9811,-3.0206,-3.0583,-3.1244,-3.2191,-3.2581,-3.2915,-3.3403,-3.2743,-3.2016,-3.2202,-3.2317,-3.2315,-3.3673,-3.3657,-3.3673,-3.3673,-3.3557,-3.21,-3.1719,-3.2017,-3.1222,-3.0874,-3.0824,-3.0129,-2.9831,-2.9798,-2.9466,-2.9317,-2.9334,-2.9334,-2.9334,-2.9317,-2.8986,-2.8837,-2.8837,-2.8522,-2.8196,-2.7798,-2.7815,-2.7561,-2.7181,-2.6849,-2.6684,-2.6667,-2.6369,-2.6005,-2.5624,-2.559,-2.5806,-2.6187,-2.6203,-2.6203,-2.6203,-2.6203,-2.582,-2.5127,-2.4713,-2.3984,-2.2924,-2.251,-2.2129,-2.1797,-2.1811,-2.1325,-2.0141,-1.871,-1.7512,0.0,0.0,0.0,0.0,0.0,0.0,0.0,0.0,0.0,0.0,0.0,-2.1789,-2.1259,-2.298,-2.4444,-2.5258,-2.6747,-2.8033,-2.892,-2.9461,-3.0275,-3.1564,-3.1344,-3.1642,-3.2928,-3.3093,-3.3258,-3.3733,-3.3403,-3.3293,-3.3752,-3.3018,-3.2339,-3.1939,-3.1678,-3.133,-3.1001,-3.0956,-3.0895,-3.0501,-3.0466,-3.0485,-3.0426,-3.0169,-2.9927,-2.9932,-2.9948,-3.0089,-3.052,-3.118,-3.1912,-3.2823,-3.3324,-3.3696,-3.3942,-3.3645,-3.3222,-3.3295,-3.3487,-3.3606,-3.4899,-3.4899,-3.4899,-3.4899,-3.48,-3.3524,-3.2928,-3.2829,-3.2729,-3.2663,-3.2646,-3.2034,-3.1752,-3.1719,-3.109,-3.0742,-3.0659,-3.0634,-3.0609,-3.0435,-2.9806,-2.9549,-2.9533,-2.8936,-2.8605,-2.8506,-2.8506,-2.8456,-2.8395,-2.7765,-2.745,-2.7417,-2.68,-2.6485,-2.6485,-2.6402,-2.6303,-2.6203,-2.6203,-2.6203,-2.6203,-2.6203,-2.5905,-2.5276,-2.506,-2.4365,-2.3106,-2.294,-2.2609,-2.201,-2.2086,-2.182,-2.1014,-2.0246,-1.9328,0.0,-1.7628,0.0,0.0,0.0,0.0,0.0,0.0,0.0,0.0,-2.2392,-2.3718,-2.4371,-2.653,-2.8105,-2.8703,-3.0206,-3.1148,-3.1148,-3.1311,-3.1665,-3.2374,-3.2511,-3.2839,-3.3625,-3.3698,-3.3726,-3.3762,-3.3788,-3.3807,-3.3807,-3.3733,-3.3413,-3.2865,-3.2195,-3.182,-3.1776,-3.1653,-3.1561,-3.163,-3.1708,-3.1708,-3.1671,-3.1188,-3.0767,-3.0775,-3.077,-3.0816,-3.1032,-3.2038,-3.2953,-3.312,-3.3757,-3.4232,-3.4269,-3.4423,-3.4557,-3.4581,-3.4829,-3.5017,-3.4899,-3.4899,-3.4899,-3.4899,-3.4866,-3.4601,-3.4137,-3.3541,-3.2945,-3.2663,-3.2663,-3.2547,-3.2481,-3.2464,-3.2348,-3.1967,-3.1404,-3.1378,-3.1047,-3.0468,-3.0377,-3.0311,-3.027,-3.0179,-2.9798,-2.9234,-2.9218,-2.892,-2.8428,-2.8262,-2.8213,-2.8213,-2.8042,-2.7976,-2.7926,0.0,0.0,0.0,-2.6203,-2.6203,-2.6203,-2.6203,-2.6137,-2.5971,-2.4845,0.0,-2.3785,-2.3222,-2.2824,-2.2708,-2.3272,0.0,0.0,0.0,0.0,0.0,0.0,0.0,0.0,0.0,0.0,0.0,-2.4664,-2.4373,-2.3349,-2.5814,-2.7543,-2.7718,-2.93,-3.0097,-2.9626,-3.1021,-3.1962,-3.1981,-3.2542,-3.3071,-3.334,-3.3312,-3.3403,-3.3634,-3.3698,-3.3698,-3.3726,-3.378,-3.3788,-3.3807,-3.3807,-3.3752,-3.3578,-3.3385,-3.3125,-3.2662,-3.2167,-3.1834,-3.1801,-3.1857,-3.1949,-3.1764,-3.1708,-3.1582,-3.157,-3.1529,-3.1815,-3.2344,-3.2776,-3.3236,-3.3807,-3.4288,-3.4517,-3.4517,-3.4812,-3.5037,-3.4889,-3.5035,-3.5216,-3.4899,-3.4899,-3.4899,-3.4899,0.0,-3.4899,-3.4684,-3.4303,-3.3938,-3.3773,-3.374,-3.3392,-3.3226,-3.321,-3.2845,-3.2497,-3.215,-3.215,-3.1752,-3.1031,-3.1014,-3.0874,-3.0468,-3.0468,-3.0328,-2.9963,-2.998,-2.9781,-2.9433,-2.9069,-2.8887,-2.887,-2.8555,-2.8428,-2.8395,-2.7682,-2.6932,-2.622,-2.6203,-2.6203,-2.6203,-2.6203,-2.6038,-2.5657,-2.4944,0.0,0.0,0.0,0.0,0.0,0.0,0.0,0.0,0.0,0.0,-2.2056,-2.1891,-2.2229,-2.3105,-2.362,-2.4724,-2.6633,-2.7876,-2.804,-2.6838,-2.8276,-2.9358,-2.9763,-3.0894,-3.1437,-3.1075,-3.2071,-3.2795,-3.2814,-3.3158,-3.3422,-3.3481,-3.3462,-3.3491,-3.3633,-3.3633,-3.3633,-3.3753,-3.3753,-3.3762,-3.3807,-3.3807,-3.3807,-3.3807,-3.3807,-3.3658,-3.3368,-3.3099,-3.2919,-3.2924,-3.2943,-3.2929,-3.2971,-3.2655,-3.2437,-3.2381,-3.2046,-3.2061,-3.2818,-3.3078,-3.3415,-3.4203,-3.4604,-3.4751,-3.4771,-3.4982,-3.5176,-3.5072,-3.519,-3.5388,-3.4899,-3.4899,-3.4899,-3.4899,-3.4899,-3.4899,-3.4899,-3.4899,-3.4899,0.0,0.0,-3.4253,-3.3988,-3.3955,-3.3342,-3.3011,-3.2878,-3.2878,-3.2497,-3.1818,-3.1802,-3.1487,-3.0907,-3.0758,-3.0725,-3.0709,-3.0551,-3.0468,-3.0452,-2.9897,-2.9599,-2.9549,-2.9036,-2.8704,-2.8522,-2.7942,-2.7296,-2.6617,-2.6336,-2.6203,-2.6203,-2.6203,-2.5886,-2.5309,-2.5176,-2.4829,-2.4232,-2.4199,-2.4183,-2.4199,-2.4381,-2.4381,-2.4199,-2.4314,-2.4312,-2.4178,-2.4532,-2.4962,-2.5457,-2.5833,-2.6952,-2.9003,-3.0423,-3.0957,-3.026,-3.0232,-3.0548,-3.1365,-3.2035,-3.2415,-3.2415,-3.2995,-3.3393,-3.3393,-3.3393,-3.3411,-3.3411,-3.3393,-3.3452,-3.3549,-3.3549,-3.3577,-3.3726,-3.3734,-3.3726,-3.378,-3.3807,-3.3807,-3.3807,-3.3834,-3.3823,-3.3821,-3.3769,-3.3931,-3.4037,-3.3981,-3.4099,-3.3981,-3.356,-3.3231,-3.3101,-3.2655,-3.2567,-3.325,-3.3443,-3.3851,-3.4478,-3.4792,-3.4945,-3.4964,-3.5107,-3.5261,-3.5277,-3.5369,-3.5493,-3.4899,-3.4899,-3.4899,-3.4899,-3.4899,-3.4899,-3.4899,-3.4899,-3.4899,-3.4899,-3.4899,-3.48,-3.4733,-3.475,-3.4634,-3.4237,-3.3657,-3.364,-3.3243,-3.2547,-3.2531,-3.2497,-3.2365,-3.1752,-3.1427,-3.1378,-3.0824,-3.0468,-3.0452,-3.0369,-3.0319,-3.0328,-3.0261,-2.9897,-2.9317,-2.9168,-2.8771,-2.8075,-2.6849,-2.6203,-2.6203,-2.6203,-2.617,-2.6054,-2.5441,-2.506,-2.4961,-2.4961,-2.4944,-2.4978,-2.5557,-2.5624,-2.4994,-2.5012,-2.4696,-2.4116,-2.4812,-2.5423,-2.5781,-2.7075,-2.8855,-3.0939,-3.1719,-3.196,-3.1863,-3.1859,-3.2187,-3.2958,-3.3121,-3.323,-3.3248,-3.3321,-3.3393,-3.3393,-3.3393,-3.3441,-3.3535,-3.3477,-3.3495,-3.3564,-3.3549,-3.3577,-3.3633,-3.3726,-3.3734,-3.3726,-3.3753,-3.3807,-3.3807,-3.3842,-3.3895,-3.3895,-3.3947,-3.3998,-3.3998,-3.4023,-3.4023,-3.4023,-3.3963,-3.3846,-3.3846,-3.3764,-3.3827,-3.427,-3.4301,-3.4501,-3.4812,-3.5,-3.5124,-3.5157,-3.5324,-3.5432,-3.5432,-3.546,-3.5507,-3.4899,-3.4899,-3.4899,-3.4899,-3.4899,-3.4899,-3.4899,-3.4899,-3.4899,-3.4899,-3.4899,-3.4899,-3.4899,-3.4899,-3.4899,-3.4717,-3.4386,-3.4386,-3.4005,-3.3309,-3.3276,-3.3061,-3.268,-3.2348,-3.2,-3.1576,-3.1246,-3.0882,-3.0518,-3.0468,-3.0468,-3.0468,-3.0468,-3.0344,-3.0013,-2.9615,-2.9268,-2.892,-2.7528,-2.6783,-2.6783,-2.6402,-2.6203,-2.6203,-2.5872,-2.5706,-2.5706,-2.5706,-2.5706,-2.5706,-2.6038,-2.6236,-2.6286,-2.6322,-2.6374,-2.6441,-2.69,-2.7349,-2.7689,-2.9181,-3.0503,-3.1537,-3.2371,-3.2839,-3.2864,-3.2857,-3.3013,-3.3357,-3.3393,-3.3393,-3.3393,-3.3393,-3.3393,-3.3393,-3.3773,-3.4045,-3.4075,-3.4075,-3.4075,-3.408,-3.3764,-3.352,-3.3605,-3.3661,-3.3671,-3.3661,-3.3689,-3.3716,-3.3771,-3.3798,-3.3807,-3.386,-3.3887,-3.3895,-3.3921,-3.3947,-3.3972,-3.3998,-3.4023,-3.4049,-3.4074,-3.4216,-3.4386,-3.4539,-3.4751,-3.4945,-3.5035,-3.5226,-3.5339,-3.5369,-3.5417,-3.5493,-3.5507,-3.5507,-3.5507,-3.4899,-3.4899,-3.4899,-3.4899,-3.4899,-3.4899,-3.4899,-3.4899,-3.4899,-3.4899,-3.4899,-3.4899,-3.4899,-3.4899,-3.4899,-3.4899,-3.4899,-3.4899,-3.4584,-3.4087,-3.4038,-3.3723,-3.321,-3.3027,-3.2564,-3.1901,-3.1676,-3.1255,-3.0576,-3.0468,-3.0468,-3.0468,-3.0468,-3.0468,-3.0468,-2.9947,-2.9665,-2.9582,-2.8406,-2.7732,-2.7549,-2.6965,-2.67,-2.67,-2.67,-2.67,-2.6717,-2.67,-2.6737,-2.6773,-2.6737,-2.6985,-2.7574,-2.7624,-2.789,-2.846,-2.8678,-2.9006,-2.9555,-3.0838,-3.1673,-3.1773,-3.2755,-3.3393,-3.3393,-3.3393,-3.3393,-3.3393,-3.3393,-3.3393,-3.3429,-3.361,-3.3665,-3.3719,-3.4407,-3.486,-3.4878,-3.4878,-3.4909,-3.4867,-3.4347,-3.4032,-3.4095,-3.4124,-3.4207,-3.4254,-3.4134,-3.4126,-3.4,-3.4082,-3.4183,-3.3826,-3.3788,-3.3815,-3.3868,-3.3887,-3.3895,-3.3947,-3.3972,-3.3972,-3.4042,-3.4264,-3.4495,-3.4583,-3.4889,-3.5124,-3.5226,-3.5339,-3.5412,-3.5432,-3.5446,-3.5441,-3.546,-3.5493,-3.5507,-3.4899,-3.4899,-3.4899,-3.4899,-3.4899,-3.4899,-3.4899,-3.4899,-3.4899,-3.4899,-3.4899,-3.4899,-3.4899,-3.4899,-3.4899,-3.4899,-3.4899,-3.4899,-3.4849,-3.4783,-3.4783,-3.475,-3.4568,-3.3988,-3.3309,-3.2597,-3.1967,-3.1305,-3.0567,-3.0526,-3.0468,-3.0468,-3.0468,-3.0468,-3.0452,-3.0402,-3.0352,-3.0394,-2.9632,-2.892,-2.8307,-2.8207,-2.8174,-2.8191,-2.8174,-2.8174,-2.813,-2.8174,-2.831,-2.8501,-2.8298,-2.8327,-2.8602,-2.8431,-2.8367,-2.8543,-2.8824,-2.9372,-3.0257,-3.1155,-3.1845,-3.2239,-3.2947,-3.3393,-3.3393,-3.3411,-3.3393,-3.3429,-3.3411,-3.3465,-3.3447,-3.4081,-3.4498,-3.4534,-3.5222,-3.5693,-3.5711,-3.5711,-3.5693,-3.5711,-3.5574,-3.5641,-3.5508,-3.5521,-3.5666,-3.5579,-3.5465,-3.5283,-3.4914,-3.5224,-3.5198,-3.4202,-3.3789,-3.3862,-3.3852,-3.3834,-3.3834,-3.3834,-3.3868,-3.3921,-3.3998,-3.4221,-3.4454,-3.4693,-3.4889,-3.5122,-3.5239,-3.5315,-3.5315,-3.535,-3.535,-3.533,-3.5379,-3.5446,-3.5474,-3.4899,-3.4899,-3.4899,-3.4899,-3.4899,-3.4899,-3.4899,-3.4899,-3.4899,-3.4899,-3.4899,-3.4899,-3.4899,-3.4899,-3.4899,-3.4899,-3.4899,-3.4899,-3.4899,-3.4899,-3.4899,-3.4899,-3.4849,-3.4618,-3.4071,-3.3326,-3.2597,-3.1885,-3.1222,-3.0742,-3.0468,-3.0468,-3.0468,-3.0468,-3.0468,-3.0468,-3.0468,-3.0468,-3.0228,-2.993,-2.9582,-2.882,-2.8428,-2.8428,-2.8428,-2.8428,-2.8428,-2.8428,-2.851,-2.8777,-2.8682,-2.8883,-2.9416,-2.9526,-2.9745,-3.0116,-3.0506,-3.0883,-3.132,-3.1894,-3.2338,-3.2596,-3.3096,-3.3393,-3.3429,-3.3846,-3.4105,-3.4117,-3.4117,-3.428,-3.4751,-3.5131,-3.5331,-3.5439,-3.6037,-3.6508,-3.649,-3.6508,-3.6508,-3.649,-3.6105,-3.5851,-3.5833,-3.5864,-3.5908,-3.5951,-3.5939,-3.583,-3.5563,-3.5781,-3.5702,-3.5297,-3.5135,-3.4724,-3.41,-3.3807,-3.3825,-3.3807,-3.3834,-3.3887,-3.4074,-3.4321,-3.4591,-3.4774,-3.4997,-3.5187,-3.5285,-3.53,-3.5315,-3.53,-3.5315,-3.5315,-3.533,-3.5398,-3.5446,-3.4899,-3.4899,-3.4899,-3.4899,-3.4899,-3.4899,-3.4899,-3.4899,-3.4899,-3.4899,-3.4899,-3.4899,-3.4899,-3.4899,-3.4899,-3.4899,-3.4899,-3.4899,-3.4899,-3.4899,-3.4899,-3.4899,-3.4899,-3.4899,-3.4502,-3.3822,-3.3259,-3.2514,-3.1686,-3.1123,-3.0725,-3.0559,-3.0468,-3.0468,-3.0468,-3.0468,-3.0468,-3.0468,-3.0468,-3.0468,-3.0361,-2.958,-2.911,-2.9126,-2.9009,-2.9009,-2.911,-2.9048,-2.9132,-2.955,-2.9458,-2.9711,-3.0408,-3.0626,-3.0939,-3.1514,-3.1932,-3.2144,-3.2179,-3.257,-3.2811,-3.2857,-3.336,-3.3749,-3.387,-3.4485,-3.501,-3.5276,-3.5258,-3.5512,-3.5693,-3.6001,-3.6127,-3.6182,-3.6852,-3.7305,-3.7323,-3.7323,-3.7323,-3.7268,-3.6906,-3.6453,-3.649,-3.6558,-3.6626,-3.6658,-3.6572,-3.634,-3.6313,-3.6417,-3.6503,-3.617,-3.62,-3.5747,-3.4477,-3.4211,-3.41,-3.3825,-3.3807,-3.3895,-3.413,-3.4416,-3.4653,-3.4813,-3.5102,-3.5254,-3.5273,-3.5289,-3.527,-3.5285,-3.5285,-3.5304,-3.532,-3.5369,-3.5398,-3.4899,-3.4899,-3.4899,-3.4899,-3.4899,-3.4899,-3.4899,-3.4899,-3.4899,-3.4899,-3.4899,-3.4899,-3.4899,-3.4899,-3.4899,-3.4899,-3.4899,-3.4899,-3.4899,-3.4899,-3.4899,-3.4899,-3.4899,-3.4883,-3.4518,-3.3922,-3.3723,-3.2945,-3.1643,-3.1527,-3.1222,-3.0518,-3.0468,-3.0468,-3.0468,-3.0468,-3.0468,-3.0468,-3.0468,-3.0468,-3.051,-3.0714,-3.0774,-3.0757,-3.0558,-3.0475,-3.0711,-3.0558,-3.0664,-3.1346,-3.0992,-3.1138,-3.1662,-3.1531,-3.166,-3.2109,-3.2519,-3.2702,-3.2621,-3.3011,-3.3212,-3.306,-3.3849,-3.4522,-3.4609,-3.5273,-3.5987,-3.6743,-3.6725,-3.658,-3.6146,-3.6598,-3.6924,-3.6979,-3.7612,-3.8029,-3.8101,-3.8011,-3.8138,-3.8083,-3.7938,-3.7812,-3.7957,-3.815,-3.8002,-3.8002,-3.8074,-3.782,-3.7257,-3.7653,-3.7398,-3.6667,-3.6583,-3.6656,-3.5329,-3.4807,-3.4513,-3.4281,-3.4164,-3.3947,-3.4154,-3.439,-3.463,-3.487,-3.5089,-3.5209,-3.5209,-3.5209,-3.5207,-3.5223,-3.5277,-3.5293,-3.5293,-3.5335,-3.5364,-3.4899,-3.4899,-3.4899,-3.4899,-3.4899,-3.4899,-3.4899,-3.4899,-3.4899,-3.4899,-3.4899,-3.4899,-3.4899,-3.4899,-3.4899,-3.4899,-3.4899,-3.4899,-3.4899,-3.4899,-3.4899,-3.4899,-3.4899,-3.4899,-3.4783,-3.4485,-3.4005,-3.3044,-3.1725,-3.1576,-3.1239,-3.0584,-3.0468,-3.0468,-3.0468,-3.0468,-3.0468,-3.0468,-3.0468,-3.0468,-3.0559,-3.0814,-3.1078,-3.1291,-3.0998,-3.0878,-3.0992,-3.0895,-3.1038,-3.1466,-3.1524,-3.1674,-3.1858,-3.1948,-3.2055,-3.2318,-3.269,-3.2802,-3.2672,-3.2993,-3.3376,-3.3772,-3.4262,-3.4872,-3.5375,-3.6092,-3.6714,-3.7015,-3.7537,-3.7558,-3.7486,-3.7594,-3.7757,-3.7794,-3.8011,-3.8192,-3.8192,-3.8192,-3.8192,-3.8192,-3.8192,-3.8192,-3.8192,-3.8225,-3.8259,-3.8259,-3.8259,-3.8096,-3.795,-3.8096,-3.7969,-3.7638,-3.7667,-3.7617,-3.6893,-3.5708,-3.5095,-3.4965,-3.4848,-3.4622,-3.4663,-3.4837,-3.5097,-3.5323,-3.5425,-3.5269,-3.5305,-3.5209,-3.519,-3.5226,-3.5277,-3.528,-3.5245,-3.5381,-3.5392,-3.4899,-3.4899,-3.4899,-3.4899,-3.4899,-3.4899,-3.4899,-3.4899,-3.4899,-3.4899,-3.4899,-3.4899,-3.4899,-3.4899,-3.4899,-3.4899,-3.4899,-3.4899,-3.4899,-3.4899,-3.4899,-3.4899,-3.4899,-3.4899,-3.4899,-3.4833,-3.4419,-3.3491,-3.2464,-3.2315,-3.1951,-3.1272,-3.1222,-3.1222,-3.1205,-3.1205,-3.1222,-3.1222,-3.1222,-3.1264,-3.1374,-3.1705,-3.2026,-3.2299,-3.2144,-3.1732,-3.1207,-3.1055,-3.1173,-3.1466,-3.1748,-3.1948,-3.2055,-3.2232,-3.237,-3.2456,-3.2722,-3.2834,-3.2791,-3.3112,-3.3651,-3.428,-3.4927,-3.5579,-3.617,-3.694,-3.7329,-3.7522,-3.7812,-3.8192,-3.8192,-3.8174,-3.8192,-3.8192,-3.8192,-3.8192,-3.8192,-3.8192,-3.8192,-3.8192,-3.8192,-3.8192,-3.8192,-3.8192,-3.8192,-3.8192,-3.8192,-3.8192,-3.8192,-3.8192,-3.8225,-3.8292,-3.8249,-3.8235,-3.7874,-3.7071,-3.6259,-3.6048,-3.5837,-3.556,-3.5437,-3.5552,-3.5628,-3.581,-3.5763,-3.5534,-3.5362,-3.5248,-3.5264,-3.5334,-3.528,-3.5302,-3.5356,-3.5465,-3.563,-3.4982,-3.4982,-3.4916,-3.5032,-3.5015,-3.5081,-3.4998,-3.5081,-3.4982,-3.5015,-3.5048,-3.4932,-3.4899,-3.4899,-3.4899,-3.4899,-3.4899,-3.4899,-3.4899,-3.4899,-3.4899,-3.4899,-3.4899,-3.4899,-3.4899,-3.4899,-3.4866,-3.4468,-3.364,-3.3587,-3.3255,-3.2757,-3.2569,-3.2546,-3.2658,-3.2569,-3.2608,-3.2542,-3.2492,-3.275,-3.3152,-3.3352,-3.3642,-3.3969,-3.4008,-3.3231,-3.1654,-3.1314,-3.1353,-3.1589,-3.1854,-3.209,-3.2494,-3.2667,-3.2679,-3.2785,-3.2912,-3.2973,-3.303,-3.3636,-3.4167,-3.4635,-3.5786,-3.6612,-3.6942,-3.7605,-3.805,-3.8032,-3.8119,-3.8192,-3.8192,-3.8192,-3.8192,-3.8192,-3.8192,-3.8192,-3.8192,-3.8192,-3.8192,-3.8192,-3.8192,-3.8192,-3.8192,-3.8192,-3.8192,-3.8192,-3.8192,-3.8192,-3.8192,-3.8192,-3.8192,-3.8256,-3.8368,-3.8456,-3.8506,-3.8454,-3.7766,-3.7192,-3.6938,-3.6715,-3.6727,-3.6767,-3.6749,-3.6875,-3.6642,-3.6413,-3.6154,-3.6058,-3.594,-3.5937,-3.5714,-3.5793,-3.6061,-3.6323,-3.6262,-3.6589,-3.576,-3.6208,-3.6108,-3.576,-3.6191,-3.6423,-3.634,-3.5909,-3.5661,-3.5578,-3.5114,-3.4899,-3.4899,-3.4899,-3.4899,-3.4899,-3.4899,-3.4899,-3.4899,-3.4899,-3.4899,-3.4899,-3.4899,-3.4899,-3.4899,-3.4899,-3.4518,-3.4014,-3.4046,-3.3751,-3.3235,-3.3364,-3.3288,-3.3125,-3.3041,-3.2927,-3.2785,-3.2944,-3.3084,-3.3254,-3.3785,-3.4086,-3.4202,-3.4202,-3.3788,-3.3077,-3.2659,-3.25,-3.2614,-3.2856,-3.33,-3.3828,-3.404,-3.404,-3.4058,-3.4199,-3.4217,-3.4182,-3.4551,-3.5028,-3.5525,-3.6276,-3.6901,-3.7363,-3.7739,-3.7989,-3.7987,-3.8021,-3.8038,-3.8158,-3.8192,-3.8192,-3.8192,-3.8192,-3.8192,-3.8192,-3.8192,-3.8192,-3.8192,-3.8192,-3.8192,-3.8192,-3.8192,-3.8192,-3.8192,-3.8192,-3.8192,-3.8192,-3.8225,-3.8274,-3.835,-3.8491,-3.8676,-3.8823,-3.8936,-3.8709,-3.823,-3.7996,-3.7858,-3.7887,-3.7947,-3.7908,-3.7734,-3.7484,-3.725,-3.7009,-3.6861,-3.6738,-3.6925,-3.7074,-3.7183,-3.7277,-3.7146,-3.6856,-3.7682,-3.6837,-3.6721,-3.6705,-3.6587,-3.6754,-3.6954,-3.7186,-3.6655,-3.6423,-3.6257,-3.5628,-3.5313,-3.5247,-3.5032,-3.4899,-3.4899,-3.4899,-3.4899,-3.4899,-3.4899,-3.4899,-3.4899,-3.4899,-3.4977,-3.5071,-3.5071,-3.4914,-3.4583,-3.4756,-3.4684,-3.4338,-3.433,-3.4278,-3.4011,-3.3879,-3.3746,-3.3717,-3.394,-3.4141,-3.4457,-3.4812,-3.5109,-3.5244,-3.5227,-3.4953,-3.4535,-3.4224,-3.3859,-3.3519,-3.3696,-3.4214,-3.4653,-3.467,-3.4688,-3.4725,-3.478,-3.4763,-3.476,-3.5136,-3.5597,-3.6093,-3.6613,-3.7111,-3.7521,-3.7718,-3.7774,-3.7775,-3.7864,-3.7952,-3.8072,-3.8158,-3.8192,-3.8192,-3.8192,-3.8192,-3.8192,-3.8192,-3.8192,-3.8192,-3.8192,-3.8192,-3.8192,-3.8192,-3.8192,-3.8192,-3.8192,-3.8192,-3.8225,-3.8256,-3.8401,-3.8523,-3.8707,-3.8913,-3.9137,-3.9324,-3.9496,-3.9251,-3.8994,-3.8911,-3.8898,-3.8976,-3.9012,-3.8535,-3.8228,-3.7915,-3.7674,-3.7618,-3.7558,-3.7938,-3.8213,-3.808,-3.7874,-3.7261,-3.6993,-3.8361,-3.8096,-3.6837,-3.6919,-3.758,-3.6869,-3.7168,-3.778,-3.7452,-3.7186,-3.7004,-3.6355,-3.5957,-3.5776,-3.521,-3.4994,-3.493,-3.4899,-3.4947,-3.4947,-3.4947,-3.4899,-3.4899,-3.4947,-3.5118,-3.5333,-3.5424,-3.5509,-3.5569,-3.5701,-3.589,-3.5606,-3.5351,-3.5357,-3.516,-3.5021,-3.4935,-3.5006,-3.5227,-3.5613,-3.6205,-3.6422,-3.6528,-3.679,-3.6794,-3.6418,-3.5815,-3.5622,-3.5136,-3.4134,-3.4547,-3.4951,-3.4898,-3.4828,-3.4986,-3.5021,-3.4863,-3.4988,-3.5039,-3.5586,-3.5993,-3.6284,-3.6847,-3.7341,-3.7482,-3.7516,-3.7589,-3.7612,-3.7703,-3.7828,-3.7899,-3.8003,-3.8124,-3.8192,-3.8192,-3.8192,-3.8192,-3.8192,-3.8192,-3.8192,-3.8192,-3.8192,-3.8192,-3.8192,-3.8192,-3.8192,-3.8192,-3.8225,-3.8274,-3.8368,-3.846,-3.8676,-3.8913,-3.9101,-3.9309,-3.9413,-3.9558,-3.9543,-3.9403,-3.9458,-3.9545,-3.9662,-3.9757,-3.9336,-3.8972,-3.8623,-3.853,-3.858,-3.8568,-3.8742,-3.8805,-3.8681,-3.8473,-3.8076,-3.7871,-3.9951,-3.9027,-3.8923,-3.8757,-3.8621,-3.8971,-3.9355,-3.9589,-3.8948,-3.8166,-3.7564,-3.706,-3.6329,-3.5589,-3.5375,-3.5304,-3.5241,-3.5024,-3.5071,-3.5195,-3.4977,-3.4899,-3.4977,-3.5148,-3.5333,-3.5453,-3.5677,-3.5688,-3.5588,-3.5776,-3.5793,-3.5526,-3.5705,-3.5616,-3.5424,-3.5287,-3.5148,-3.5165,-3.5571,-3.5837,-3.6139,-3.6632,-3.6908,-3.697,-3.697,-3.6746,-3.6371,-3.6313,-3.6046,-3.5405,-3.6015,-3.6412,-3.6285,-3.6285,-3.6233,-3.6233,-3.6303,-3.6338,-3.6373,-3.6513,-3.6693,-3.6767,-3.7031,-3.7263,-3.7143,-3.7306,-3.7362,-3.737,-3.7465,-3.7539,-3.7631,-3.7739,-3.7846,-3.7969,-3.8124,-3.8192,-3.8192,-3.8192,-3.8192,-3.8192,-3.8192,-3.8192,-3.8192,-3.8192,-3.8192,-3.8192,-3.8225,-3.8292,-3.8368,-3.851,-3.8646,-3.8913,-3.9156,-3.9309,-3.9432,-3.9527,-3.9602,-3.9607,-3.9614,-3.9652,-3.9804,-3.9946,-4.0063,-3.9986,-3.9756,-3.9447,-3.9687,-3.9861,-3.9807,-3.9499,-3.9673,-3.9687,-3.9791,-3.9595,-3.9418,-4.0928,-4.0138,-3.9662,-3.9446,-3.9459,-3.9484,-3.9819,-4.0129,-3.9421,-3.8668,-3.7918,-3.7499,-3.6755,-3.5896,-3.5695,-3.5633,-3.5571,-3.5407,-3.5436,-3.5526,-3.5436,-3.5287,-3.5241,-3.5453,-3.5677,-3.5827,-3.5864,-3.5881,-3.5854,-3.5924,-3.5776,-3.5661,-3.5661,-3.5588,-3.5407,-3.5258,-3.527,-3.5345,-3.5732,-3.6037,-3.6392,-3.6753,-3.6851,-3.6851,-3.6908,-3.6908,-3.6748,-3.6731,-3.6584,-3.6439,-3.6724,-3.697,-3.697,-3.697,-3.697,-3.697,-3.697,-3.6952,-3.697,-3.697,-3.697,-3.7027,-3.7115,-3.7115,-3.7044,-3.7115,-3.7193,-3.7161,-3.722,-3.7334,-3.7447,-3.7558,-3.7703,-3.7864,-3.8003,-3.8124,-3.8192,-3.8192,-3.8192,-3.8192,-3.8192,-3.8192,-3.8192,-3.8192,-3.8192,-3.8225,-3.8307,-3.8387,-3.8478,-3.8664,-3.8855,-3.9129,-3.9309,-3.9476,-3.9502,-3.9577,-3.9602,-3.9607,-3.9661,-3.9739,-3.9933,-4.0117,-4.0196,-4.0253,-4.0272,-4.0329,-4.036,-4.0406,-4.0296,-4.0188,-4.0477,-4.0427,-4.0277,-4.0036,-4.0032,-4.1425,-4.1243,-3.9664,-3.9544,-4.0078,-3.9162,-3.9517,-4.0127,-3.9525,-3.8841,-3.8355,-3.7883,-3.7326,-3.6591,-3.6188,-3.5933,-3.595,-3.5864,-3.5847,-3.5907,-3.5907,-3.5881,-3.565,-3.5854,-3.6071,-3.6259,-3.6054,-3.6097,-3.6114,-3.5968,-3.582,-3.5661,-3.5407,-3.5424,-3.5333,-3.5165,-3.5316,-3.5732,-3.5968,-3.6284,-3.6673,-3.6891,-3.6869,-3.6626,-3.6788,-3.6948,-3.6948,-3.697,-3.6935,-3.6952,-3.697,-3.697,-3.697,-3.697,-3.697,-3.697,-3.697,-3.697,-3.697,-3.697,-3.697,-3.6987,-3.6987,-3.697,-3.6987,-3.7044,-3.7044,-3.7027,-3.7143,-3.722,-3.7297,-3.7447,-3.7594,-3.7757,-3.7846,-3.7952,-3.8124,-3.8192,-3.8192,-3.8207,-3.8225,-3.8259,-3.8274,-3.8241,-3.8241,-3.8469,-3.8483,-3.851,-3.8695,-3.8902,-3.9073,-3.9256,-3.9432,-3.9596,-3.9596,-3.962,-3.9626,-3.9631,-3.9665,-3.9762,-3.9975,-4.0137,-4.0195,-4.0234,-4.0291,-4.0328,-4.0342,-4.0389,-4.0419,-4.015,-3.9945,-3.9967,-3.9953,-3.9614,-3.9497,-4.1425,-4.1332,-4.0408,-4.0165,-4.0446,-4.0706,-4.0833,-4.0832,-4.0599,-3.9768,-3.9126,-3.8643,-3.8023,-3.7327,-3.6663,-3.6343,-3.6343,-3.6097,-3.589,-3.5977,-3.6533,-3.655,-3.6301,-3.6343,-3.6241,-3.6241,-3.6574,-3.6367,-3.5898,-3.5793,-3.5599,-3.5148,-3.5165,-3.5148,-3.5333,-3.5333,-3.5498,-3.5864,-3.6199,-3.6444,-3.6626,-3.6869,-3.6829,-3.6544,-3.6585,-3.6731,-3.693,-3.697,-3.697,-3.697,-3.697,-3.693,-3.697,-3.697,-3.697,-3.697,-3.697,-3.697,-3.697,-3.697,-3.697,-3.697,-3.697,-3.697,-3.697,-3.697,-3.697,-3.697,-3.7048,-3.7105,-3.7105,-3.7105,-3.7334,-3.7558,-3.7558,-3.7612,-3.7899,-3.8124,-3.8207,-3.8238,-3.8368,-3.8528,-3.8701,-3.8496,-3.8528,-3.8683,-3.8713,-3.8707,-3.8884,-3.9129,-3.9283,-3.9432,-3.9502,-3.962,-3.962,-3.962,-3.9626,-3.9631,-3.9665,-3.9762,-3.9954,-4.0117,-4.0157,-4.0234,-4.0291,-4.0328,-4.0344,-4.0288,-4.0304,-3.9827,-3.9348,-3.9195,-3.908,-3.8929,-3.908,-4.1322,-4.1109,-4.0578,-4.0497,-4.0655,-4.0752,-4.0896,-4.0839,-4.0393,-3.9873,-3.9328,-3.887,-3.8287,-3.7585,-3.7015,-3.6748,-3.669,-3.6533,-3.6433,-3.6474,-3.6851,-3.6908,-3.6788,-3.6731,-3.6591,-3.6451,-3.6409,-3.6097,-3.5749,-3.5498,-3.5241,-3.493,-3.4899,-3.5102,-3.5379,-3.5424,-3.5677,-3.6114,-3.6343,-3.6585,-3.6748,-3.6748,-3.6748,-3.6485,-3.6343,-3.6451,-3.693,-3.697,-3.697,-3.6987,-3.6869,-3.6869,-3.697,-3.697,-3.697,-3.697,-3.697,-3.697,-3.697,-3.697,-3.697,-3.697,-3.697,-3.697,-3.697,-3.697,-3.697,-3.697,-3.697,-3.697,-3.697,-3.697,-3.7164,-3.7334,-3.7372,-3.741,-3.7631,-3.7985,-3.8204,-3.8267,-3.8478,-3.8683,-3.8773,-3.8743,-3.8743,-3.8851,-3.896,-3.897,-3.9073,-3.9283,-3.9413,-3.9508,-3.9552,-3.962,-3.962,-3.962,-3.9602,-3.9631,-3.9684,-3.9758,-3.9933,-4.0038,-4.0138,-4.0272,-4.0425,-4.0329,-4.031,-4.0253,-3.9986,-3.9469,-3.8971,-3.8494,-3.8188,-3.8204,-3.8582,-4.1238,-4.0877,-4.0526,-4.0611,-4.0874,-4.04,-4.0487,-4.0775,-3.9993,-3.9705,-3.9277,-3.8915,-3.833,-3.7711,-3.7184,-3.7005,-3.697,-3.697,-3.6873,-3.6891,-3.693,-3.693,-3.6869,-3.6891,-3.6811,-3.6811,-3.6367,-3.6011,-3.5616,-3.527,-3.5071,-3.4947,-3.4994,-3.5195,-3.5424,-3.5605,-3.5941,-3.6485,-3.6502,-3.6568,-3.6731,-3.6568,-3.6426,-3.6444,-3.6301,-3.6409,-3.6851,-3.697,-3.697,-3.6891,-3.6667,-3.6667,-3.6771,-3.6891,-3.6987,-3.697,-3.697,-3.697,-3.697,-3.697,-3.697,-3.697,-3.697,-3.697,-3.697,-3.697,-3.697,-3.697,-3.697,-3.697,-3.697,-3.697,-3.7105,-3.7259,-3.7297,-3.7259,-3.741,-3.7827,-3.815,-3.8281,-3.8585,-3.8873,-3.895,-3.8979,-3.8997,-3.8997,-3.9129,-3.9237,-3.9309,-3.9406,-3.9508,-3.9577,-3.9596,-3.962,-3.962,-3.962,-3.9626,-3.9637,-3.9665,-3.98,-3.9892,-4.0017,-4.0156,-4.0425,-4.054,-4.0444,-4.0253,-4.0062,-3.9699,-3.9126,-3.8362,-3.7655,-3.7462,-3.7498,-3.8008,-4.151,-4.0877,-4.0526,-4.0611,-4.096,-4.0822,-4.0822,-4.0943,-4.0758,-4.0377,-3.9738,-3.9039,-3.8546,-3.8006,-3.7299,-3.7023,-3.711,-3.704,-3.697,-3.697,-3.6987,-3.6908,-3.669,-3.6811,-3.6673,-3.6266,-3.6139,-3.5941,-3.5424,-3.5211,-3.5195,-3.5024,-3.5211,-3.5498,-3.581,-3.6131,-3.6385,-3.665,-3.6626,-3.6568,-3.6485,-3.6284,-3.6199,-3.6402,-3.636,-3.6568,-3.6851,-3.697,-3.6851,-3.6609,-3.6544,-3.6343,-3.6284,-3.6426,-3.669,-3.6891,-3.697,-3.697,-3.697,-3.697,-3.697,-3.697,-3.697,-3.697,-3.697,-3.697,-3.697,-3.697,-3.697,-3.697,-3.697,-3.697,-3.7105,-3.7182,-3.7182,-3.7126,-3.7354,-3.7774,-3.8198,-3.8296,-3.8658,-3.9064,-3.912,-3.9193,-3.9193,-3.9221,-3.9283,-3.9388,-3.9458,-3.9527,-3.9577,-3.962,-3.962,-3.962,-3.962,-3.962,-3.9626,-3.9665,-3.9735,-3.9867,-3.9954,-4.0036,-4.0232,-4.0692,-4.0731,-4.054,-4.031,-4.0005,-3.924,-3.8534,-3.7655,-3.6795,-3.67,-3.6774,-3.7302,-4.1133,-4.0629,-4.0455,-4.0611,-4.0931,-4.0772,-4.096,-4.1255,-4.11,-4.07,-4.0227,-3.9765,-3.9276,-3.8772,-3.8409,-3.8006,-3.7567,-3.711,-3.7005,-3.697,-3.6987,-3.6829,-3.6527,-3.669,-3.6367,-3.6097,-3.6054,-3.6028,-3.5498,-3.5571,-3.5453,-3.5333,-3.5498,-3.5732,-3.5968,-3.6259,-3.6568,-3.6708,-3.6568,-3.6343,-3.6216,-3.5968,-3.6054,-3.6156,-3.6402,-3.6568,-3.6708,-3.6748,-3.6568,-3.6241,-3.6028,-3.5924,-3.595,-3.6079,-3.6367,-3.669,-3.6908,-3.697,-3.697,-3.697,-3.697,-3.697,-3.697,-3.697,-3.697,-3.697,-3.697,-3.697,-3.697,-3.697,-3.697,-3.697,-3.7066,-3.7105,-3.7066,-3.7048,-3.7261,-3.7756,-3.8065,-3.831,-3.8778,-3.9129,-3.9373,-3.9425,-3.9425,-3.9451,-3.9476,-3.9527,-3.962,-3.962,-3.962,-3.962,-3.962,-3.962,-3.962,-3.962,-3.9631,-3.9689,-3.9739,-3.987,-4.0015,-4.0117,-4.0596,-4.117,-4.1036,-4.0578,-4.0425,-4.0119,-3.9049,-3.8075,-3.7617,-3.7082,-3.6317,-3.6162,-3.6788,-4.0662,-4.0319,-4.0286,-4.0563,-4.0884,-4.0546,-4.0849,-4.1408,-4.1255,-4.0899,-4.0551,-4.0411,-3.9989,-3.9392,-3.9024,-3.8638,-3.8058,-3.7444,-3.7198,-3.7023,-3.7119,-3.6917,-3.6502,-3.6402,-3.6259,-3.5837,-3.6224,-3.5994,-3.5749,-3.582,-3.5688,-3.5588,-3.5793,-3.6011,-3.6156,-3.636,-3.6461,-3.6444,-3.6301,-3.6071,-3.5793,-3.5793,-3.5864,-3.5933,-3.6301,-3.6502,-3.6544,-3.6544,-3.6276,-3.5898,-3.5616,-3.5498,-3.5688,-3.5803,-3.6037,-3.6367,-3.6771,-3.693,-3.697,-3.697,-3.697,-3.697,-3.697,-3.697,-3.697,-3.697,-3.697,-3.697,-3.697,-3.697,-3.697,-3.697,-3.7027,-3.7027,-3.7027,-3.7048,-3.7299,-3.7667,-3.8132,-3.8455,-3.8894,-3.9183,-3.9425,-3.9451,-3.9425,-3.9502,-3.9527,-3.9527,-3.962,-3.962,-3.962,-3.962,-3.962,-3.962,-3.962,-3.962,-3.9631,-3.9689,-3.9739,-3.9848,-3.9996,-4.0157,-4.0692,-4.1055,-4.0807,-4.0406,-4.0329,-4.0138,-3.9183,-3.8419,-3.796,-3.7464,-3.691,-3.6509,-3.6771,-4.0523,-3.9935,-3.9986,-4.037,-4.0884,-4.0563,-4.0849,-4.156,-4.1515,-4.1139,-4.0481,-4.0481,-4.013,-3.9463,-3.8655,-3.8286,-3.8128,-3.7912,-3.7527,-3.7171,-3.73,-3.698,-3.6217,-3.636,-3.6131,-3.5837,-3.6409,-3.6241,-3.5898,-3.5864,-3.5793,-3.5677,-3.6131,-3.6402,-3.6343,-3.6444,-3.6502,-3.636,-3.5871,-3.5379,-3.5195,-3.5316,-3.5616,-3.5924,-3.6199,-3.6419,-3.636,-3.6318,-3.6088,-3.5543,-3.5407,-3.5241,-3.5195,-3.5599,-3.5864,-3.6165,-3.6533,-3.697,-3.693,-3.693,-3.693,-3.693,-3.697,-3.697,-3.697,-3.697,-3.697,-3.697,-3.697,-3.697,-3.697,-3.697,-3.697,-3.697,-3.697,-3.7185,-3.7413,-3.7703,-3.815,-3.8486,-3.8894,-3.9202,-3.9425,-3.9425,-3.9425,-3.9546,-3.962,-3.962,-3.962,-3.962,-3.962,-3.962,-3.962,-3.962,-3.962,-3.962,-3.9656,-3.9712,-3.9781,-3.9848,-4.0057,-4.0196,-4.0196,-4.0425,-4.0291,-4.0444,-4.0578,-4.0196,-3.9336,-3.8763,-3.8323,-3.798,-3.7636,-3.7309,-3.685,-3.9787,-3.9901,-4.0104,-4.0385,-4.0659,-4.0707,-4.1071,-4.1498,-4.1587,-4.1183,-4.0674,-4.0955,-4.0902,-4.0358,-3.9375,-3.8813,-3.8666,-3.8168,-3.7701,-3.7422,-3.748,-3.7206,-3.6627,-3.6337,-3.5968,-3.6174,-3.6199,-3.6326,-3.6071,-3.6284,-3.6367,-3.6131,-3.6485,-3.665,-3.6502,-3.6502,-3.6343,-3.6028,-3.5498,-3.5071,-3.5024,-3.5195,-3.5453,-3.5616,-3.5968,-3.6028,-3.5958,-3.5871,-3.565,-3.5211,-3.5118,-3.5071,-3.5024,-3.5316,-3.5616,-3.5661,-3.6079,-3.6451,-3.665,-3.6708,-3.6748,-3.6788,-3.6851,-3.697,-3.697,-3.697,-3.697,-3.697,-3.697,-3.697,-3.697,-3.697,-3.697,-3.697,-3.697,-3.7243,-3.7523,-3.7879,-3.8216,-3.8566,-3.8884,-3.9175,-3.9399,-3.9399,-3.9451,-3.9571,-3.962,-3.962,-3.962,-3.962,-3.962,-3.962,-3.962,-3.962,-3.962,-3.962,-3.9722,-3.9777,-3.9826,-3.9933,-4.0137,-4.0234,-4.0253,-4.0253,-4.0291,-4.0501,-4.0788,-4.0425,-3.9718,-3.9183,-3.8706,-3.8553,-3.8343,-3.7292,-3.708,-3.9023,-3.9573,-4.0037,-4.0319,-4.0449,-4.0819,-4.1209,-4.156,-4.1604,-4.1288,-4.1025,-4.1323,-4.1569,-4.1323,-4.0235,-3.948,-3.9193,-3.8589,-3.8086,-3.7887,-3.7698,-3.7524,-3.7006,-3.6448,-3.6114,-3.6502,-3.6426,-3.6409,-3.6632,-3.6771,-3.6771,-3.6544,-3.6788,-3.6788,-3.6544,-3.6318,-3.6071,-3.5464,-3.5055,-3.4804,-3.4835,-3.5008,-3.5241,-3.5407,-3.5571,-3.5661,-3.547,-3.5424,-3.5287,-3.4994,-3.4947,-3.4947,-3.4994,-3.5241,-3.5424,-3.5498,-3.5732,-3.5924,-3.6174,-3.636,-3.6461,-3.6585,-3.6771,-3.697,-3.697,-3.697,-3.697,-3.697,-3.697,-3.697,-3.697,-3.697,-3.697,-3.697,-3.7009,-3.7281,-3.7559,-3.7913,-3.8314,-3.8748,-3.8998,-3.9147,-3.9346,-3.9373,-3.9469,-3.9571,-3.962,-3.962,-3.962,-3.962,-3.962,-3.962,-3.962,-3.962,-3.962,-3.9645,-3.9746,-3.9796,-3.9845,-3.9954,-4.0137,-4.0234,-4.0291,-4.0291,-4.0329,-4.0387,-4.0559,-4.0348,-4.0138,-3.9756,-3.9451,-3.9374,-3.8954,-3.7884,-3.729,-3.8448,-3.8616,-3.952,-4.0104,-4.04,-4.0819,-4.1209,-4.156,-4.1604,-4.1552,-4.1429,-4.1587,-4.1604,-4.1376,-4.0727,-3.9937,-3.9392,-4.0024,-3.9266,-3.8512,-3.813,-3.7947,-3.7386,-3.6732,-3.6139,-3.6527,-3.6609,-3.6771,-3.693,-3.693,-3.6788,-3.6585,-3.6829,-3.6748,-3.6485,-3.6071,-3.5588,-3.5038,-3.4691,-3.4643,-3.4594,-3.4723,-3.4866,-3.5287,-3.5424,-3.5424,-3.5379,-3.5333,-3.5241,-3.4899,-3.4899,-3.4899,-3.4994,-3.5165,-3.5287,-3.5333,-3.5362,-3.5498,-3.565,-3.6088,-3.6461,-3.6585,-3.6771,-3.697,-3.697,-3.697,-3.697,-3.697,-3.697,-3.697,-3.697,-3.697,-3.697,-3.697,-3.7087,-3.7394,-3.7667,-3.7913,-3.8346,-3.8865,-3.9129,-3.9202,-3.932,-3.9373,-3.9469,-3.9596,-3.962,-3.962,-3.962,-3.962,-3.962,-3.962,-3.962,-3.962,-3.962,-3.965,-3.9679,-3.9731,-3.9804,-3.9933,-4.0077,-4.0195,-4.0273,-4.0329,-4.0329,-4.0329,-4.0329,-4.0272,-4.0253,-4.0272,-4.0138,-3.9833,-3.9737,-3.9145,-3.8379,-3.8205,-3.8448,-3.9028,-3.9594,-4.0086,-4.0546,-4.1071,-4.1453,-4.156,-4.1604,-4.1604,-4.1604,-4.1604,-4.1394,-4.0867,-4.034,-4.0034,-4.001,-3.9652,-3.9234,-3.8814,-3.8493,-3.7819,-3.7084,-3.6468,-3.669,-3.6788,-3.6829,-3.6987,-3.693,-3.6948,-3.6869,-3.669,-3.6426,-3.6156,-3.5793,-3.527,-3.493,-3.4707,-3.4739,-3.4739,-3.4739,-3.4835,-3.5024,-3.5118,-3.5071,-3.5071,-3.5071,-3.5024,-3.493,-3.4899,-3.4899,-3.4899,-3.5071,-3.5118,-3.5118,-3.5118,-3.5118,-3.5241,-3.5766,-3.6284,-3.6788,-3.693,-3.697,-3.697,-3.697,-3.697,-3.697,-3.697,-3.697,-3.697,-3.697,-3.697,-3.697,-3.7147,-3.7431,-3.7739,-3.7982,-3.8378,-3.8894,-3.9101,-3.9202,-3.9301,-3.9391,-3.9495,-3.9571,-3.9596,-3.962,-3.962,-3.962,-3.962,-3.962,-3.962,-3.962,-3.962,-3.9626,-3.9631,-3.9684,-3.9758,-3.987,-3.9996,-4.0096,-4.0176,-4.0253,-4.0329,-4.0329,-4.0329,-4.0329,-4.031,-4.031,-4.0196,-3.9986,-3.9986,-4.0005,-3.9356,-3.7918,-3.8164,-3.8367,-3.8978,-3.9834,-4.0383,-4.0879,-4.138,-4.156,-4.1604,-4.1604,-4.1604,-4.1604,-4.1429,-4.1113,-4.0534,-4.0333,-4.0242,-3.9926,-3.9403,-3.8794,-3.8572,-3.807,-3.7366,-3.6609,-3.6851,-3.6708,-3.6667,-3.6987,-3.6811,-3.6615,-3.6492,-3.6326,-3.6028,-3.5924,-3.5436,-3.5008,-3.4643,-3.4659,-3.4643,-3.4643,-3.4643,-3.4804,-3.4851,-3.4947,-3.4947,-3.4947,-3.4947,-3.4947,-3.4899,-3.4899,-3.4899,-3.4899,-3.4899,-3.4899,-3.4899,-3.4899,-3.4899,-3.5071,-3.5526,-3.6207,-3.6851,-3.697,-3.697,-3.697,-3.697,-3.697,-3.697,-3.697,-3.697,-3.697,-3.697,-3.697,-3.697,-3.697,-3.7261,-3.7667,-3.8016,-3.8455,-3.8942,-3.8942,-3.8855,-3.9256,-3.938,-3.9502,-3.9577,-3.9596,-3.962,-3.962,-3.962,-3.962,-3.962,-3.962,-3.962,-3.962,-3.9602,-3.9607,-3.9631,-3.9708,-3.9826,-3.9933,-4.0015,-4.0137,-4.0273,-4.0329,-4.0329,-4.031,-4.0291,-4.0291,-4.0329,-4.0177,-4.0062,-3.9718,-3.9661,-3.9548,-3.7539,-3.7539,-3.7583,-3.8423,-3.9715,-4.0383,-4.0849,-4.1272,-4.1471,-4.156,-4.1498,-4.1498,-4.1515,-4.148,-4.1296,-4.0847,-4.0336,-4.0522,-4.0135,-3.9105,-3.8391,-3.8182,-3.7773,-3.7178,-3.6667,-3.6829,-3.6748,-3.6731,-3.693,-3.6492,-3.6165,-3.595,-3.5793,-3.5571,-3.5776,-3.5241,-3.4497,-3.3899,-3.4101,-3.4151,-3.4201,-3.425,-3.4562,-3.4756,-3.4899,-3.4899,-3.4899,-3.4899,-3.4899,-3.4851,-3.4899,-3.4899,-3.4851,-3.4899,-3.4899,-3.4899,-3.4899,-3.4899,-3.4977,-3.5571,-3.6224,-3.6851,-3.697,-3.697,-3.697,-3.697,-3.697,-3.697,-3.697,-3.697,-3.697,-3.697,-3.697,-3.697,-3.697,-3.7147,-3.7596,-3.7826,-3.8245,-3.8609,-3.8442,-3.8378,-3.8952,-3.9343,-3.9464,-3.9558,-3.9577,-3.962,-3.962,-3.962,-3.962,-3.962,-3.962,-3.962,-3.962,-3.962,-3.962,-3.9626,-3.9679,-3.9754,-3.9848,-3.9933,-4.0057,-4.0234,-4.0215,-4.0137,-4.0215,-4.0272,-4.0196,-4.0099,-4.0215,-4.0082,-3.968,-3.9395,-3.9391,-3.748,-3.748,-3.748,-3.8001,-3.8887,-3.9492,-4.0069,-4.0577,-4.0896,-4.1117,-4.1117,-4.096,-4.096,-4.1053,-4.0926,-4.0642,-4.0597,-3.9748,-3.9289,-3.9015,-3.802,-3.7723,-3.7386,-3.6967,-3.6667,-3.6869,-3.6869,-3.6609,-3.6667,-3.6199,-3.6054,-3.5864,-3.5328,-3.5068,-3.4897,-3.4546,-3.4151,-3.4,-3.405,-3.4101,-3.4084,-3.425,-3.4448,-3.4643,-3.4787,-3.4851,-3.4851,-3.4851,-3.4756,-3.4691,-3.4739,-3.4787,-3.4756,-3.4739,-3.4899,-3.4899,-3.4899,-3.5165,-3.5407,-3.5864,-3.6224,-3.6713,-3.697,-3.697,-3.697,-3.697,-3.697,-3.697,-3.697,-3.697,-3.697,-3.697,-3.697,-3.697,-3.7048,-3.7206,-3.7487,-3.7542,-3.7773,-3.8132,-3.8168,-3.8314,-3.873,-3.9064,-3.9245,-3.9464,-3.9527,-3.9577,-3.9577,-3.962,-3.962,-3.962,-3.962,-3.962,-3.962,-3.962,-3.962,-3.962,-3.9626,-3.9679,-3.9754,-3.9804,-3.9829,-3.9892,-3.9914,-3.9933,-4.0015,-4.0057,-3.9899,-3.9859,-3.9916,-3.9933,-3.9646,-3.9467,-3.9448,-3.748,-3.748,-3.748,-3.7685,-3.8084,-3.8794,-3.9473,-4.0086,-4.04,-4.0611,-4.0707,-4.0514,-4.0546,-4.059,-4.0288,-3.9993,-4.0117,-3.9225,-3.8448,-3.8265,-3.7415,-3.7011,-3.6801,-3.6577,-3.6377,-3.6591,-3.6492,-3.6284,-3.6097,-3.5985,-3.5661,-3.5283,-3.4975,-3.4561,-3.43,-3.4151,-3.4,-3.3899,-3.3797,-3.3949,-3.4,-3.4101,-3.43,-3.4448,-3.4594,-3.4643,-3.4691,-3.4643,-3.4546,-3.4448,-3.4497,-3.4594,-3.4546,-3.4643,-3.4804,-3.4851,-3.4835,-3.5148,-3.5509,-3.5688,-3.6062,-3.6746,-3.6913,-3.6948,-3.6987,-3.6948,-3.6948,-3.6948,-3.697,-3.693,-3.693,-3.693,-3.697,-3.697,-3.7048,-3.7206,-3.7339,-3.7432,-3.7505,-3.7844,-3.7844,-3.8099,-3.8405,-3.873,-3.8961,-3.9237,-3.9458,-3.9508,-3.9577,-3.9577,-3.9596,-3.9571,-3.9596,-3.9596,-3.9596,-3.962,-3.962,-3.962,-3.9577,-3.9558,-3.9564,-3.9618,-3.958,-3.9561,-3.9604,-3.9689,-3.9819,-3.9841,-3.9886,-3.9722,-3.95,-3.9513,-3.9483,-3.9458,-3.9408,-3.748,-3.748,-3.748,-3.7539,-3.7642,-3.8197,-3.9049,-3.9935,-3.9902,-4.0018,-4.0283,-4.0182,-4.0063,-4.0027,-3.9515,-3.9149,-3.8719,-3.8046,-3.736,-3.6821,-3.6451,-3.6209,-3.6065,-3.5915,-3.5907,-3.582,-3.5688,-3.5627,-3.5476,-3.5253,-3.4913,-3.4626,-3.4431,-3.4101,-3.3949,-3.3848,-3.3761,-3.3607,-3.3607,-3.3658,-3.371,-3.3797,-3.405,-3.425,-3.4349,-3.4382,-3.4399,-3.4349,-3.4201,-3.4101,-3.4167,-3.425,-3.4399,-3.4497,-3.4659,-3.4707,-3.4611,-3.4897,-3.5328,-3.5464,-3.5916,-3.6626,-3.6776,-3.6834,-3.6886,-3.6864,-3.6846,-3.6829,-3.6869,-3.6869,-3.6869,-3.6908,-3.697,-3.697,-3.697,-3.7147,-3.7319,-3.7413,-3.7468,-3.7468,-3.7299,-3.745,-3.7825,-3.8176,-3.8603,-3.9008,-3.9237,-3.9362,-3.9432,-3.9577,-3.9552,-3.9502,-3.9502,-3.9527,-3.9527,-3.9451,-3.9425,-3.9328,-3.9399,-3.9406,-3.9413,-3.9369,-3.9279,-3.9279,-3.935,-3.9469,-3.9757,-3.9958,-4.0059,-3.9806,-3.9405,-3.9181,-3.9192,-3.9272,-3.9245,-3.748,-3.748,-3.748,-3.748,-3.7539,-3.7685,-3.8479,-3.9439,-3.8972,-3.8756,-3.8925,-3.8874,-3.8791,-3.8449,-3.8505,-3.8287,-3.7718,-3.705,-3.6504,-3.6071,-3.5719,-3.5538,-3.5429,-3.5391,-3.5402,-3.5431,-3.5278,-3.5018,-3.4847,-3.4626,-3.4611,-3.4497,-3.4201,-3.3949,-3.3745,-3.3607,-3.345,-3.3414,-3.3398,-3.345,-3.3555,-3.3694,-3.3899,-3.4,-3.4201,-3.4201,-3.4151,-3.4101,-3.4,-3.3848,-3.4,-3.4084,-3.3899,-3.4101,-3.43,-3.43,-3.4349,-3.4513,-3.5207,-3.5374,-3.5759,-3.6416,-3.665,-3.6672,-3.6748,-3.6754,-3.6725,-3.6766,-3.6806,-3.6766,-3.6788,-3.6829,-3.6908,-3.6948,-3.6948,-3.7048,-3.7185,-3.7223,-3.7261,-3.7223,-3.7048,-3.7185,-3.7524,-3.772,-3.8143,-3.8633,-3.898,-3.911,-3.9283,-3.9432,-3.9432,-3.938,-3.9328,-3.9328,-3.9193,-3.911,-3.911,-3.9082,-3.9166,-3.9193,-3.9092,-3.9017,-3.897,-3.909,-3.9388,-3.9608,-3.9826,-3.9989,-4.0244,-3.9767,-3.9349,-3.9084,-3.8902,-3.8989,-3.8998,-3.748,-3.748,-3.748,-3.748,-3.7433,-3.718,-3.7527,-3.8068,-3.7763,-3.7646,-3.768,-3.7645,-3.7567,-3.7486,-3.7386,-3.717,-3.6933,-3.6104,-3.556,-3.5444,-3.5131,-3.503,-3.4977,-3.4913,-3.4833,-3.4894,-3.4783,-3.4529,-3.435,-3.4218,-3.4151,-3.4151,-3.4,-3.3797,-3.3539,-3.3398,-3.3346,-3.3309,-3.3293,-3.3293,-3.345,-3.3658,-3.3658,-3.3761,-3.4016,-3.3949,-3.3949,-3.3899,-3.3694,-3.3539,-3.3745,-3.3797,-3.3694,-3.3949,-3.4,-3.4,-3.4,-3.4366,-3.4958,-3.5144,-3.5705,-3.6233,-3.6502,-3.6513,-3.653,-3.6579,-3.6602,-3.6643,-3.6684,-3.6684,-3.6708,-3.6748,-3.6788,-3.6886,-3.6908,-3.6948,-3.6987,-3.6987,-3.7027,-3.7009,-3.7048,-3.7108,-3.7281,-3.7432,-3.7667,-3.8129,-3.8499,-3.8759,-3.8998,-3.921,-3.9202,-3.912,-3.9092,-3.9064,-3.8921,-3.8851,-3.8881,-3.8939,-3.8997,-3.8968,-3.8803,-3.8725,-3.8695,-3.9087,-3.9575,-3.9795,-3.996,-4.0252,-4.0363,-3.9863,-3.931,-3.8829,-3.8683,-3.8762,-3.8743,-3.748,-3.748,-3.748,-3.7417,-3.7291,-3.6722,-3.6374,-3.6248,-3.6534,-3.6609,-3.6555,-3.6577,-3.6666,-3.6572,-3.6439,-3.6174,-3.5924,-3.5361,-3.5098,-3.4932,-3.487,-3.4804,-3.4643,-3.4448,-3.4333,-3.4151,-3.405,-3.4018,-3.3832,-3.3797,-3.3848,-3.3694,-3.3745,-3.3591,-3.3398,-3.3346,-3.3293,-3.3293,-3.3293,-3.3309,-3.3309,-3.3361,-3.3398,-3.3607,-3.3555,-3.3503,-3.3555,-3.3503,-3.3293,-3.3293,-3.3346,-3.345,-3.3642,-3.3797,-3.3797,-3.3848,-3.3797,-3.4267,-3.4721,-3.5005,-3.5526,-3.6028,-3.6284,-3.6318,-3.6419,-3.6419,-3.6461,-3.6502,-3.6544,-3.6544,-3.6585,-3.6626,-3.6684,-3.6766,-3.6806,-3.6829,-3.6869,-3.6948,-3.697,-3.697,-3.7009,-3.7087,-3.7108,-3.7264,-3.7432,-3.7738,-3.7995,-3.8342,-3.8609,-3.8865,-3.8913,-3.8844,-3.8844,-3.8785,-3.8713,-3.867,-3.8732,-3.8792,-3.8792,-3.8732,-3.8528,-3.8465,-3.8433,-3.8925,-3.9455,-3.9911,-4.02,-4.0412,-4.0427,-4.0028,-3.94,-3.8674,-3.8469,-3.8564,-3.8578,-3.748,-3.748,-3.748,-3.718,-3.669,-3.65,-3.5758,-3.4826,-3.4865,-3.5058,-3.5235,-3.5603,-3.5628,-3.5301,-3.5729,-3.5662,-3.5197,-3.4985,-3.4932,-3.4804,-3.4707,-3.4546,-3.4399,-3.4101,-3.3899,-3.3761,-3.3658,-3.3591,-3.3642,-3.3642,-3.3694,-3.3694,-3.3642,-3.3487,-3.3293,-3.3293,-3.3293,-3.3293,-3.3293,-3.3293,-3.3309,-3.345,-3.3607,-3.3555,-3.345,-3.345,-3.345,-3.3346,-3.3293,-3.3293,-3.3293,-3.3346,-3.3382,-3.3435,-3.345,-3.3466,-3.3745,-3.4267,-3.469,-3.5115,-3.5661,-3.6011,-3.6284,-3.6284,-3.6284,-3.6343,-3.6343,-3.636,-3.6402,-3.6444,-3.6461,-3.652,-3.6561,-3.6643,-3.6684,-3.6748,-3.6788,-3.6908,-3.697,-3.697,-3.697,-3.7009,-3.7009,-3.7108,-3.7281,-3.7432,-3.7632,-3.7877,-3.8099,-3.8378,-3.8504,-3.8491,-3.8572,-3.8541,-3.8465,-3.8419,-3.8483,-3.8501,-3.8469,-3.8372,-3.8307,-3.8307,-3.8376,-3.8798,-3.9288,-3.9942,-4.0486,-4.0613,-4.0486,-4.0156,-3.9498,-3.8736,-3.8409,-3.8451,-3.8433,-3.748,-3.7433,-3.7133,-3.6785,-3.6358,-3.5758,-3.4999,-3.4336,-3.3988,-3.3915,-3.4128,-3.4514,-3.4574,-3.4316,-3.4939,-3.5153,-3.4724,-3.4611,-3.4594,-3.4594,-3.4448,-3.4234,-3.405,-3.3848,-3.3642,-3.3503,-3.3398,-3.3398,-3.3503,-3.3503,-3.3503,-3.3555,-3.3503,-3.345,-3.3293,-3.3293,-3.3293,-3.3293,-3.3293,-3.3293,-3.3293,-3.3398,-3.345,-3.3414,-3.3414,-3.3414,-3.3414,-3.3293,-3.3293,-3.3293,-3.3293,-3.3293,-3.3293,-3.3346,-3.3293,-3.345,-3.3797,-3.4317,-3.4785,-3.5328,-3.5793,-3.6156,-3.6284,-3.6284,-3.6284,-3.6301,-3.6301,-3.6343,-3.6343,-3.6343,-3.636,-3.6402,-3.6402,-3.6444,-3.6585,-3.6667,-3.6731,-3.6851,-3.693,-3.697,-3.697,-3.697,-3.7009,-3.7009,-3.7147,-3.7185,-3.7356,-3.7487,-3.7721,-3.7897,-3.8034,-3.8119,-3.8168,-3.8238,-3.8156,-3.814,-3.8174,-3.8158,-3.8192,-3.8225,-3.8259,-3.8225,-3.8352,-3.8896,-3.9585,-4.0437,-4.0871,-4.0998,-4.078,-4.0436,-3.967,-3.8794,-3.8609,-3.8427,-3.8358,-3.7259,-3.7133,-3.6532,-3.6216,-3.5979,-3.4857,-3.4257,-3.4051,-3.3577,-3.3324,-3.3425,-3.3618,-3.3813,-3.3949,-3.4101,-3.4234,-3.4349,-3.43,-3.4349,-3.4284,-3.4151,-3.4,-3.3848,-3.3642,-3.3503,-3.3398,-3.3309,-3.3309,-3.3346,-3.3346,-3.3346,-3.3293,-3.3293,-3.3293,-3.3293,-3.3293,-3.3293,-3.3293,-3.3293,-3.3293,-3.3293,-3.3293,-3.3309,-3.3309,-3.3293,-3.3293,-3.3293,-3.3293,-3.3293,-3.3293,-3.3293,-3.3293,-3.3293,-3.3293,-3.345,-3.3607,-3.4,-3.4513,-3.4975,-3.5464,-3.5881,-3.6199,-3.6241,-3.6284,-3.6284,-3.6284,-3.6284,-3.6284,-3.6284,-3.6284,-3.6301,-3.6301,-3.6301,-3.6343,-3.6444,-3.6527,-3.665,-3.6771,-3.6851,-3.693,-3.693,-3.693,-3.697,-3.697,-3.6987,-3.7027,-3.7122,-3.7238,-3.7372,-3.754,-3.7667,-3.7739,-3.7774,-3.781,-3.7828,-3.7934,-3.8003,-3.809,-3.8124,-3.8158,-3.8192,-3.8192,-3.85,-3.9206,-3.9948,-4.0691,-4.1234,-4.1452,-4.1144,-4.0764,-4.0165,-3.942,-3.8858,-3.8676,-3.8407,-3.6295,-3.5774,-3.5631,-3.5268,-3.4715,-3.4383,-3.3988,-3.353,-3.3388,-3.3293,-3.3293,-3.3346,-3.3503,-3.3797,-3.4,-3.4151,-3.4151,-3.405,-3.4101,-3.4101,-3.3899,-3.3745,-3.3642,-3.3503,-3.3346,-3.3293,-3.3293,-3.3293,-3.3293,-3.3293,-3.3293,-3.3293,-3.3293,-3.3293,-3.3293,-3.3293,-3.3293,-3.3293,-3.3293,-3.3293,-3.3293,-3.3293,-3.3293,-3.3293,-3.3293,-3.3293,-3.3293,-3.3293,-3.3293,-3.3293,-3.3293,-3.3293,-3.3293,-3.3346,-3.3503,-3.3832,-3.4284,-3.4785,-3.5299,-3.5749,-3.6174,-3.6241,-3.6284,-3.6284,-3.6284,-3.6284,-3.6284,-3.6284,-3.6284,-3.6284,-3.6284,-3.6284,-3.6284,-3.6343,-3.6444,-3.6502,-3.6585,-3.669,-3.6771,-3.6811,-3.6829,-3.6869,-3.6948,-3.6948,-3.6908,-3.6948,-3.7027,-3.7143,-3.722,-3.7297,-3.7372,-3.7372,-3.741,-3.7503,-3.7613,-3.781,-3.7881,-3.8003,-3.8038,-3.809,-3.8124,-3.8192,-3.8627,-3.9372,-4.004,-4.0709,-4.1197,-4.1809,-4.1576,-4.1215,-4.0727,-4.0113,-3.9461,-3.8952,-3.8665]}]]